[[{"header":{"parameterUnit":"m.s-1","parameterCategory":1,"la1":30.6,"la2":29.2853,"lo1":-89.7004,"lo2":-87.6739,"dy":0.0162,"dx":0.0183,"nx":112,"ny":82,"refTime":"2024-06-22T18:00:00:Z","depth":0,"parameterNumber":2,"parameterNumberName":"U-component_of_WINDS"},"data":[0.0,0.0,0.0,0.0,0.0,0.0,0.0,0.0,0.0,0.0,0.0,0.0,0.0,0.0,0.0,0.0,0.0,0.0,0.0,0.0,0.0,0.0,0.0,0.0,0.0,0.0,0.0,0.0,0.0,0.0,0.0,0.0,0.0,0.0,0.0,0.0,0.0,0.0,0.0,0.0,0.0,0.0,0.0,0.0,0.0,0.0,0.0,0.0,0.0,0.0,0.0,0.0,0.0,0.0,0.0,0.0,0.0,0.0,0.0,0.0,0.0,0.0,0.0,0.0,0.0,0.0,0.0,0.0,0.0,0.0,0.0,0.0,0.0,0.0,0.0,0.0,0.0,0.0,0.0,0.0,0.0,0.0,0.0,0.0,0.0,0.0,0.0,0.0,0.0,0.0,0.0,-1.2492,-1.4075,-1.491,-1.4609,-1.4282,-1.322,-1.1189,0.0,0.0,0.0,0.0,0.0,0.0,0.0,0.0,0.0,0.0,0.0,0.0,0.0,0.0,0.0,0.0,0.0,0.0,0.0,0.0,0.0,0.0,0.0,0.0,0.0,0.0,0.0,0.0,0.0,0.0,0.0,0.0,0.0,0.0,0.0,0.0,0.0,0.0,0.0,0.0,0.0,0.0,0.0,0.0,0.0,0.0,0.0,0.0,0.0,0.0,0.0,0.0,0.0,0.0,0.0,0.0,0.0,0.0,0.0,0.0,0.0,0.0,0.0,0.0,0.0,0.0,0.0,0.0,0.0,0.0,0.0,0.0,0.0,0.0,0.0,0.0,0.0,0.0,0.0,0.0,0.0,0.0,0.0,0.0,0.0,0.0,0.0,0.0,0.0,0.0,0.0,0.0,0.0,0.0,0.0,0.0,0.0,0.0,0.0,0.0,0.0,0.0,0.0,0.0,-1.149,-1.3921,-1.487,-1.5211,-1.4923,-1.4396,-1.3307,-1.1476,0.0,0.0,0.0,0.0,0.0,0.0,0.0,0.0,0.0,0.0,0.0,0.0,0.0,0.0,0.0,0.0,0.0,0.0,0.0,0.0,0.0,0.0,0.0,0.0,0.0,0.0,0.0,0.0,0.0,0.0,0.0,0.0,0.0,0.0,0.0,0.0,0.0,0.0,0.0,0.0,0.0,0.0,0.0,0.0,0.0,0.0,0.0,0.0,0.0,0.0,0.0,0.0,0.0,0.0,0.0,0.0,0.0,0.0,0.0,0.0,0.0,0.0,0.0,0.0,0.0,0.0,0.0,0.0,0.0,0.0,0.0,0.0,0.0,0.0,0.0,0.0,0.0,0.0,0.0,0.0,0.0,0.0,0.0,0.0,0.0,0.0,0.0,0.0,0.0,0.0,0.0,0.0,0.0,0.0,0.0,0.0,0.0,0.0,0.0,0.0,0.0,0.0,0.0,-1.1309,-1.2593,-1.4549,-1.5284,-1.5451,-1.5003,-1.4429,-1.3327,-1.1536,-1.0454,0.0,0.0,0.0,0.0,0.0,0.0,0.0,0.0,0.0,0.0,0.0,0.0,0.0,0.0,0.0,0.0,0.0,0.0,0.0,0.0,0.0,0.0,0.0,0.0,0.0,0.0,0.0,0.0,0.0,0.0,0.0,0.0,0.0,0.0,0.0,0.0,0.0,0.0,0.0,0.0,0.0,0.0,0.0,0.0,0.0,0.0,0.0,0.0,0.0,0.0,0.0,0.0,0.0,0.0,0.0,0.0,0.0,0.0,0.0,0.0,0.0,0.0,0.0,0.0,0.0,0.0,0.0,0.0,0.0,0.0,0.0,0.0,0.0,0.0,0.0,0.0,0.0,0.0,0.0,0.0,0.0,0.0,0.0,0.0,0.0,0.0,0.0,0.0,0.0,0.0,0.0,0.0,0.0,0.0,0.0,0.0,0.0,0.0,0.0,0.0,0.0,0.0,-1.2659,-1.3554,-1.483,-1.5484,-1.5591,-1.5017,-1.4302,-1.318,-1.153,-1.02,0.0,0.0,0.0,0.0,0.0,0.0,0.0,0.0,0.0,0.0,0.0,0.0,0.0,0.0,0.0,0.0,0.0,0.0,0.0,0.0,0.0,0.0,0.0,0.0,0.0,0.0,0.0,0.0,0.0,0.0,0.0,0.0,0.0,0.0,0.0,0.0,0.0,0.0,0.0,0.0,0.0,0.0,0.0,0.0,0.0,0.0,0.0,0.0,0.0,0.0,0.0,0.0,0.0,0.0,0.0,0.0,0.0,0.0,0.0,0.0,0.0,0.0,0.0,0.0,0.0,0.0,0.0,0.0,0.0,0.0,0.0,0.0,0.0,0.0,0.0,0.0,0.0,0.0,0.0,0.0,0.0,0.0,0.0,0.0,0.0,0.0,0.0,0.0,0.0,0.0,0.0,0.0,0.0,0.0,0.0,0.0,0.0,0.0,0.0,0.0,0.0,0.0,-1.2953,-1.4242,-1.4897,-1.5484,-1.5591,-1.5017,-1.3921,-1.2746,-1.1503,-0.982,0.0,0.0,0.0,0.0,0.0,0.0,0.0,0.0,0.0,0.0,0.0,0.0,0.0,0.0,0.0,0.0,0.0,0.0,0.0,0.0,0.0,0.0,0.0,0.0,0.0,0.0,0.0,0.0,0.0,0.0,0.0,0.0,0.0,0.0,0.0,0.0,0.0,0.0,0.0,0.0,0.0,0.0,0.0,0.0,0.0,0.0,0.0,0.0,0.0,0.0,0.0,0.0,0.0,0.0,0.0,0.0,0.0,0.0,0.0,0.0,0.0,0.0,0.0,0.0,0.0,0.0,0.0,0.0,0.0,0.0,0.0,0.0,0.0,0.0,0.0,0.0,0.0,0.0,0.0,0.0,0.0,0.0,0.0,0.0,0.0,0.0,0.0,0.0,0.0,0.0,0.0,0.0,0.0,0.0,0.0,0.0,0.0,0.0,0.0,0.0,0.0,0.0,-1.2939,-1.4175,0.0,-1.5591,-1.5591,-1.5017,-1.4222,-1.3093,-1.1523,0.0,0.0,0.0,0.0,0.0,0.0,0.0,0.0,0.0,0.0,0.0,0.0,0.0,0.0,0.0,0.0,0.0,0.0,0.0,0.0,0.0,0.0,0.0,0.0,0.0,0.0,0.0,0.0,0.0,0.0,0.0,0.0,0.0,0.0,0.0,0.0,0.0,0.0,0.0,0.0,0.0,0.0,0.0,0.0,0.0,0.0,0.0,0.0,0.0,0.0,0.0,0.0,0.0,0.0,0.0,0.0,0.0,0.0,0.0,0.0,0.0,0.0,0.0,0.0,0.0,0.0,0.0,0.0,0.0,0.0,0.0,0.0,0.0,0.0,0.0,0.0,0.0,0.0,0.0,0.0,0.0,0.0,0.0,0.0,0.0,0.0,0.0,0.0,0.0,0.0,0.0,0.0,0.0,0.0,0.0,0.0,0.0,0.0,0.0,0.0,0.0,0.0,-1.1663,-1.3066,-1.4302,0.0,-1.5658,-1.5591,-1.5017,-1.4255,-1.3126,-1.153,0.0,0.0,0.0,0.0,0.0,0.0,0.0,0.0,0.0,0.0,0.0,0.0,0.0,0.0,0.0,0.0,0.0,0.0,0.0,0.0,0.0,0.0,0.0,0.0,0.0,0.0,0.0,0.0,0.0,0.0,0.0,0.0,0.0,0.0,0.0,0.0,0.0,0.0,0.0,0.0,0.0,0.0,0.0,0.0,0.0,0.0,0.0,0.0,0.0,0.0,0.0,0.0,0.0,0.0,0.0,0.0,0.0,0.0,0.0,0.0,0.0,0.0,0.0,0.0,0.0,0.0,0.0,0.0,0.0,0.0,0.0,0.0,0.0,0.0,0.0,0.0,0.0,0.0,0.0,0.0,0.0,0.0,0.0,0.0,0.0,0.0,0.0,0.0,0.0,0.0,0.0,0.0,0.0,0.0,0.0,0.0,0.0,0.0,0.0,0.0,0.0,0.0,-1.1724,-1.3427,-1.475,-1.5337,-1.5658,-1.5591,-1.5017,-1.3895,-1.2705,0.0,0.0,0.0,0.0,0.0,0.0,0.0,0.0,0.0,0.0,0.0,0.0,0.0,0.0,0.0,0.0,0.0,0.0,0.0,0.0,0.0,0.0,0.0,0.0,0.0,0.0,0.0,0.0,0.0,0.0,0.0,0.0,0.0,0.0,0.0,0.0,0.0,0.0,0.0,0.0,0.0,0.0,0.0,0.0,0.0,0.0,0.0,0.0,0.0,0.0,0.0,0.0,0.0,0.0,0.0,0.0,0.0,0.0,0.0,0.0,0.0,0.0,0.0,0.0,0.0,0.0,0.0,0.0,0.0,0.0,0.0,0.0,0.0,0.0,0.0,0.0,0.0,0.0,0.0,0.0,0.0,0.0,0.0,0.0,0.0,0.0,0.0,0.0,0.0,0.0,0.0,0.0,0.0,0.0,0.0,0.0,0.0,0.0,0.0,0.0,0.0,0.0,0.0,-1.2024,-1.3734,-1.5057,-1.5638,-1.5778,-1.5591,-1.5017,-1.4269,-1.314,-1.153,0.0,0.0,0.0,0.0,0.0,0.0,0.0,0.0,0.0,0.0,0.0,0.0,0.0,0.0,0.0,0.0,0.0,0.0,0.0,0.0,0.0,0.0,0.0,0.0,0.0,0.0,0.0,0.0,0.0,0.0,0.0,0.0,0.0,0.0,0.0,0.0,0.0,0.0,0.0,0.0,0.0,0.0,0.0,0.0,0.0,0.0,0.0,0.0,0.0,0.0,0.0,0.0,0.0,0.0,0.0,0.0,0.0,0.0,0.0,0.0,0.0,0.0,0.0,0.0,0.0,0.0,0.0,0.0,0.0,0.0,0.0,0.0,0.0,0.0,0.0,0.0,0.0,0.0,0.0,0.0,0.0,0.0,0.0,0.0,0.0,0.0,0.0,0.0,0.0,0.0,0.0,0.0,0.0,0.0,0.0,0.0,0.0,0.0,0.0,0.0,0.0,0.0,-1.2151,-1.3861,-1.519,-1.5765,-1.5832,-1.5645,-1.5177,-1.4596,-1.3547,-1.1884,0.0,0.0,0.0,0.0,0.0,0.0,0.0,0.0,0.0,0.0,0.0,0.0,0.0,0.0,0.0,0.0,0.0,0.0,0.0,0.0,0.0,0.0,0.0,0.0,0.0,0.0,0.0,0.0,0.0,0.0,0.0,0.0,0.0,0.0,0.0,0.0,0.0,0.0,0.0,0.0,0.0,0.0,0.0,0.0,0.0,0.0,0.0,0.0,0.0,0.0,0.0,0.0,0.0,0.0,0.0,0.0,0.0,0.0,0.0,0.0,0.0,0.0,0.0,0.0,0.0,0.0,0.0,0.0,0.0,0.0,0.0,0.0,0.0,0.0,0.0,0.0,0.0,0.0,0.0,0.0,0.0,0.0,0.0,0.0,0.0,0.0,0.0,0.0,0.0,0.0,0.0,0.0,0.0,0.0,0.0,0.0,0.0,0.0,0.0,0.0,0.0,0.0,-1.2198,-1.3901,-1.5217,-1.5772,-1.5832,-1.5712,-1.5424,-1.4856,-1.3895,-1.2438,0.0,0.0,0.0,0.0,0.0,0.0,0.0,0.0,0.0,0.0,0.0,0.0,0.0,0.0,0.0,0.0,0.0,0.0,0.0,0.0,0.0,0.0,0.0,0.0,0.0,0.0,0.0,0.0,0.0,0.0,0.0,0.0,0.0,0.0,0.0,0.0,0.0,0.0,0.0,0.0,0.0,0.0,0.0,0.0,0.0,0.0,0.0,0.0,0.0,0.0,0.0,0.0,0.0,0.0,0.0,0.0,0.0,0.0,0.0,0.0,-0.9253,0.0,0.0,0.0,0.0,0.0,0.0,0.0,0.0,0.0,0.0,0.0,0.0,0.0,0.0,0.0,0.0,0.0,0.0,0.0,0.0,0.0,0.0,0.0,0.0,0.0,0.0,0.0,0.0,0.0,0.0,0.0,0.0,0.0,0.0,0.0,0.0,0.0,0.0,0.0,0.0,0.0,-1.2607,-1.4208,-1.5438,-1.5792,-1.5832,-1.5712,-1.5424,-1.4856,-1.3981,-1.2808,-1.1276,0.0,0.0,0.0,0.0,0.0,0.0,0.0,0.0,0.0,0.0,0.0,0.0,0.0,0.0,0.0,0.0,0.0,0.0,0.0,0.0,0.0,0.0,0.0,0.0,0.0,0.0,0.0,0.0,0.0,0.0,0.0,0.0,0.0,0.0,0.0,0.0,0.0,0.0,0.0,0.0,0.0,0.0,0.0,0.0,0.0,0.0,0.0,0.0,0.0,0.0,0.0,0.0,0.0,0.0,0.0,0.0,0.0,0.0,0.0,0.0,-1.0498,0.0,0.0,0.0,0.0,0.0,0.0,0.0,0.0,0.0,0.0,0.0,0.0,0.0,0.0,0.0,0.0,0.0,0.0,0.0,0.0,0.0,0.0,0.0,0.0,0.0,0.0,0.0,0.0,0.0,0.0,0.0,0.0,0.0,0.0,0.0,0.0,0.0,0.0,0.0,0.0,-1.2832,-1.4389,-1.5504,-1.5798,-1.5832,-1.5765,-1.5618,-1.5197,-1.4496,-1.3454,-1.2138,0.0,0.0,0.0,0.0,0.0,0.0,0.0,0.0,0.0,0.0,0.0,0.0,0.0,0.0,0.0,0.0,0.0,0.0,0.0,0.0,0.0,0.0,0.0,0.0,0.0,0.0,0.0,0.0,0.0,0.0,0.0,0.0,0.0,0.0,0.0,0.0,0.0,0.0,0.0,0.0,0.0,0.0,0.0,0.0,0.0,0.0,0.0,0.0,0.0,0.0,0.0,0.0,0.0,-1.1234,-1.0973,-1.1161,-1.0614,-1.1353,-1.2877,-1.1824,-1.1652,-1.2141,0.0,0.0,0.0,0.0,0.0,0.0,0.0,0.0,0.0,0.0,0.0,0.0,0.0,0.0,0.0,0.0,0.0,0.0,0.0,0.0,0.0,0.0,0.0,0.0,0.0,-0.8204,-0.8337,0.0,0.0,0.0,0.0,0.0,0.0,0.0,0.0,0.0,0.0,0.0,0.0,-1.3213,-1.4596,-1.5565,-1.5805,-1.5832,-1.5832,-1.5832,-1.5565,-1.5064,-1.4289,-1.312,-1.1897,0.0,0.0,0.0,0.0,0.0,0.0,0.0,0.0,0.0,0.0,0.0,0.0,0.0,0.0,0.0,0.0,0.0,0.0,0.0,0.0,0.0,0.0,0.0,0.0,0.0,0.0,0.0,0.0,0.0,0.0,0.0,0.0,-0.8259,-0.989,0.0,0.0,0.0,0.0,0.0,0.0,0.0,0.0,0.0,0.0,0.0,0.0,0.0,-0.9863,-1.0727,-1.2521,-1.316,-1.2737,-1.4185,-1.4325,-1.3336,-1.3231,-1.3881,-1.5175,-1.5003,0.0,-1.3787,-1.3801,0.0,0.0,0.0,0.0,0.0,0.0,0.0,0.0,0.0,0.0,0.0,0.0,0.0,0.0,0.0,0.0,0.0,0.0,0.0,0.0,0.0,0.0,-0.8137,-0.8254,-0.8292,-0.8799,0.0,-1.0055,-0.9427,-0.9231,-0.9409,0.0,0.0,0.0,0.0,0.0,0.0,0.0,-1.3848,-1.5023,-1.5785,-1.5825,-1.5832,-1.5832,-1.5832,-1.5565,-1.5244,-1.487,-1.3748,-1.2879,-1.2493,-1.0855,0.0,0.0,0.0,0.0,0.0,0.0,0.0,0.0,0.0,0.0,0.0,0.0,0.0,0.0,0.0,0.0,0.0,0.0,0.0,0.0,0.0,0.0,0.0,0.0,0.0,0.0,0.0,0.0,0.0,-0.8639,-0.9743,-0.9964,-1.0208,-1.0276,0.0,0.0,0.0,0.0,0.0,0.0,0.0,0.0,0.0,-0.9695,-1.0664,-1.1515,-1.2248,-1.3151,-1.4359,-1.567,-1.5696,-1.5608,-1.5076,-1.4298,-1.4635,-1.5967,-1.5967,-1.6125,-1.6259,-1.5591,-1.491,-1.4222,0.0,0.0,0.0,0.0,-1.2092,-1.0409,-1.312,-1.2294,0.0,-1.173,0.0,0.0,0.0,0.0,0.0,0.0,0.0,0.0,0.0,0.0,-1.0662,-1.0786,-1.0839,-1.1295,-1.2902,-1.2942,-1.2241,0.0,-1.103,-1.0846,-0.9892,0.0,0.0,0.0,0.0,0.0,-1.4482,-1.5311,-1.5832,-1.5832,-1.5832,-1.5832,-1.5832,-1.5712,-1.5518,-1.5224,-1.4416,-1.3741,-1.3273,-1.2024,-1.0915,0.0,0.0,0.0,0.0,0.0,0.0,0.0,0.0,0.0,0.0,0.0,0.0,0.0,0.0,0.0,0.0,0.0,0.0,0.0,0.0,0.0,0.0,0.0,0.0,0.0,0.0,0.0,0.0,-0.9554,-1.0368,-1.038,-1.0665,-1.0942,0.0,0.0,0.0,0.0,0.0,0.0,-1.0424,-1.1227,-1.1492,-1.1309,-1.2358,-1.3372,-1.4272,-1.433,-1.5794,-1.8497,-1.7415,-1.7089,-1.7279,-1.612,-1.6235,-1.7279,-1.7279,-1.7755,-1.8504,-1.7241,-1.65,-1.6099,-1.5444,-1.483,-1.4454,-1.5239,-1.4056,-1.2406,-1.5575,-1.4336,-1.1615,-1.34,0.0,-1.1106,-1.0912,0.0,0.0,0.0,0.0,-1.186,-1.2937,-1.2824,-1.2599,-1.2961,-1.3023,-1.3278,-1.4555,-1.4537,-1.4144,0.0,-1.3071,-1.2656,-1.1627,0.0,0.0,0.0,0.0,-1.4409,-1.4997,-1.5518,-1.5832,-1.5832,-1.5832,-1.5832,-1.5832,-1.5832,-1.5732,-1.5518,-1.503,-1.4516,-1.4001,-1.312,-1.2131,-1.1029,0.0,0.0,0.0,0.0,0.0,0.0,0.0,0.0,0.0,0.0,0.0,0.0,0.0,0.0,0.0,0.0,0.0,0.0,0.0,0.0,0.0,0.0,0.0,0.0,0.0,0.0,0.0,0.0,0.0,-1.229,-1.0014,0.0,0.0,0.0,0.0,-1.1413,-1.2615,-1.3025,-1.2127,-1.2879,-1.3662,-1.4153,-1.4312,-1.5118,-1.7014,-1.7262,-1.812,-1.9713,-1.9867,-2.0006,-2.002,-1.9892,-1.9892,-2.002,-2.002,-2.0013,-2.0007,-1.8537,-1.7589,-1.7081,-1.7034,-1.6214,-1.5087,-1.6609,-1.6298,-1.5384,-1.6971,-1.643,-1.5062,-1.5485,-1.335,-1.0599,-1.0199,-1.0049,0.0,0.0,-1.2309,-1.2941,-1.4815,-1.409,-1.3092,-1.3546,-1.3495,-1.3602,-1.4752,-1.3959,-1.3691,0.0,-1.5597,-1.5033,-1.4389,0.0,-1.3667,-1.3955,-1.4282,-1.471,-1.5297,-1.5645,-1.5832,-1.5832,-1.5832,-1.5832,-1.5832,-1.5832,-1.5818,-1.5805,-1.5524,-1.5217,-1.491,-1.4048,-1.3146,-1.2231,-1.1096,0.0,0.0,0.0,0.0,0.0,0.0,0.0,0.0,0.0,0.0,0.0,0.0,0.0,0.0,0.0,0.0,0.0,0.0,0.0,0.0,0.0,0.0,0.0,0.0,0.0,0.0,0.0,0.0,-1.3682,-1.2603,0.0,0.0,-1.2993,-1.287,-1.202,-1.2049,-1.2446,-1.3207,-1.384,-1.4365,-1.4672,-1.5904,-1.6434,-1.5994,-1.6081,-1.6369,-1.6742,-1.7946,-1.849,-1.8612,-1.9735,-2.0234,-2.0234,-2.0234,-2.0234,-2.0194,-1.9659,-1.9212,-1.8838,-1.8651,-1.817,-1.7585,-1.8141,-1.727,-1.6229,-1.7681,-1.6594,-1.4457,-1.4288,-1.3991,-1.3419,-1.2211,-1.1798,-1.2195,-1.3997,-1.4556,-1.5045,-1.6926,-1.697,-1.6611,-1.6698,-1.6673,-1.6801,-1.7143,-1.6756,-1.6461,-1.7239,-1.6156,-1.5061,-1.5272,-1.5504,-1.5518,-1.5251,-1.5618,-1.6005,-1.6213,-1.6166,-1.6112,-1.6112,-1.5945,-1.5832,-1.5832,-1.5832,-1.5752,-1.5565,-1.5277,-1.4983,-1.4689,-1.4195,-1.3507,-1.2605,-1.1991,-1.0922,0.0,0.0,0.0,0.0,0.0,0.0,0.0,0.0,0.0,0.0,0.0,0.0,0.0,0.0,0.0,0.0,0.0,0.0,0.0,0.0,0.0,0.0,0.0,0.0,0.0,0.0,-1.2909,-1.4731,-1.4094,-1.3716,-1.4063,-1.4634,-1.451,-1.3653,-1.3811,-1.4327,-1.5061,-1.5413,-1.5964,-1.673,-1.7526,-1.7783,-1.7235,-1.7235,-1.686,-1.6233,-1.8001,-1.8505,-1.7995,-1.9769,-2.0528,-2.0528,-2.0528,-2.0528,-2.0528,-2.0528,-2.0414,-2.0201,-1.9813,-1.9539,-1.9366,-1.9366,-1.8641,-1.7638,-1.8021,-1.6471,-1.4325,-1.3922,-1.4282,-1.4696,-1.3617,-1.3592,-1.4281,-1.5557,-1.6282,-1.6913,-1.8328,-1.8217,-1.7712,-1.7802,-1.7757,-1.7687,-1.7687,-1.7994,-1.8196,-1.8196,-1.6819,-1.5802,-1.6241,-1.6513,-1.6573,-1.6186,-1.646,-1.6707,-1.6707,-1.6533,-1.638,-1.6286,-1.6092,-1.5939,-1.5838,-1.5738,-1.5645,-1.5545,-1.5177,-1.4877,-1.4676,-1.4295,-1.3714,-1.2919,-1.2412,-1.1536,-1.0267,0.0,0.0,0.0,0.0,0.0,0.0,0.0,0.0,0.0,0.0,0.0,0.0,0.0,0.0,0.0,0.0,0.0,0.0,0.0,0.0,0.0,0.0,0.0,-1.3701,-1.3299,-1.3737,-1.5635,-1.441,-1.4249,-1.6491,-1.638,-1.6294,-1.6316,-1.8231,-1.8803,-1.7733,-1.7619,-1.8501,-2.0551,-1.9031,-1.9154,-2.0976,-2.0982,-2.0195,-1.8378,-2.0195,-2.0068,-1.8506,-2.0329,-2.1109,-2.1109,-2.1109,-2.1109,-2.1109,-2.1109,-2.1109,-2.1056,-2.0481,-2.0254,-2.0247,-2.0247,-2.0241,-1.9938,-1.8178,-1.6386,-1.4978,-1.4667,-1.4523,-1.4477,-1.4246,-1.5079,-1.621,-1.6322,-1.7359,-1.8466,-1.8865,-1.7566,-1.6286,-1.6533,-1.6398,-1.6222,-1.6222,-1.7477,-1.8504,-1.8504,-1.7796,-1.7188,-1.7181,-1.6934,-1.6734,-1.6734,-1.6734,0.0,-1.6734,-1.6727,-1.6613,-1.6333,-1.6286,-1.6152,-1.5865,-1.5578,-1.5524,-1.5785,-1.5277,-1.4963,-1.495,-1.4402,-1.3828,-1.3253,-1.2358,-1.1757,-1.1463,0.0,0.0,0.0,0.0,0.0,0.0,0.0,0.0,0.0,0.0,0.0,0.0,0.0,0.0,0.0,0.0,0.0,0.0,0.0,0.0,0.0,0.0,-1.4917,-1.4917,-1.4682,-1.5208,-1.7127,-1.6282,-1.5806,-1.6587,-1.7798,-1.818,-1.7262,-1.7948,-1.8258,-1.8025,-1.8102,-1.8387,-1.9036,-1.9827,-1.9986,-1.9285,-1.9158,-1.8378,-1.6695,-1.8378,-1.8896,-1.8506,-2.0329,-2.1109,-2.1109,-2.1109,-2.1109,-2.1109,-2.1109,-2.1109,-2.1096,-2.0929,-2.0735,-2.0555,-2.0555,-2.0421,-2.0099,-1.9637,-1.9114,-1.8471,-1.734,-1.6806,-1.6402,-1.5147,-1.4898,-1.5354,-1.6518,-1.711,-1.7718,-1.8981,-1.8833,-1.8551,-1.8628,-1.859,-1.8531,-1.8531,-1.8604,-1.8804,-1.8804,-1.8437,-1.8056,-1.7836,-1.7549,-1.7341,-1.7341,-1.7341,0.0,-1.7341,-1.7154,-1.7001,-1.6914,-1.6526,-1.6239,-1.6159,-1.5879,-1.5565,-1.5224,-1.505,-1.487,-1.4649,-1.4489,-1.4229,-1.3854,-1.2959,-1.254,0.0,0.0,0.0,0.0,0.0,0.0,0.0,0.0,0.0,0.0,0.0,0.0,0.0,0.0,0.0,0.0,0.0,0.0,0.0,0.0,0.0,0.0,-1.5257,-1.6259,-1.664,-1.6433,-1.6756,-1.8214,-1.7966,-1.7665,-1.794,-1.907,-1.9483,-1.8903,-1.9067,-1.915,-1.9299,-1.8794,-1.8734,-1.954,-1.9807,-1.9935,-1.9546,-1.9546,-1.8762,-1.6953,-1.8768,-1.9158,-1.8506,-2.0329,-2.1109,0.0,-2.1109,-2.1109,-2.1109,-2.1109,-2.1109,0.0,0.0,0.0,0.0,0.0,-2.0237,-1.9566,-2.0209,-1.9911,-1.9265,-1.9023,-1.8744,-1.8372,-1.752,-1.7052,-1.7177,-1.8019,-1.8302,-1.8338,-1.9305,-1.8972,-1.8402,-1.8402,-1.8402,-1.8402,-1.8402,-1.8751,-1.9112,-1.9112,-1.8871,0.0,-1.8444,-1.8063,-1.7736,-1.7602,-1.7582,-1.7582,-1.7582,-1.7435,-1.7281,-1.7161,-1.684,-1.654,-1.6293,-1.5999,0.0,0.0,0.0,-1.483,-1.4529,-1.4522,0.0,0.0,0.0,0.0,0.0,0.0,0.0,0.0,-1.2979,-1.3093,0.0,0.0,0.0,0.0,0.0,0.0,0.0,0.0,0.0,0.0,0.0,0.0,0.0,0.0,0.0,0.0,-1.6533,-1.7602,-1.847,-1.839,-1.8437,-1.8958,-1.9285,-1.9579,-1.9867,-2.0134,-2.0408,-2.0702,-2.0728,-2.0842,-2.1096,0.0,0.0,0.0,0.0,-1.9546,-2.1109,-2.1109,-2.0329,-1.8768,-2.0329,-2.0329,-1.8896,-2.0329,-2.1109,-2.1109,-2.1109,-2.1109,-2.1109,-2.1109,-2.1109,-2.1109,-2.1109,-2.1109,-2.1109,-2.1109,-2.0068,-1.8994,-2.0302,0.0,0.0,-1.9911,-2.0307,-2.0287,-2.0287,-2.0261,-2.0234,-2.0234,-2.0047,-1.9853,-1.9853,-1.8557,-1.7403,-1.7373,-1.7367,-1.7361,-1.7331,-1.8402,-1.9366,-1.9366,-1.9152,-1.8965,-1.8931,-1.8464,-1.7989,-1.7682,-1.7635,-1.7622,-1.7589,-1.7582,-1.7482,-1.7228,0.0,0.0,-1.6413,-1.6072,-1.5865,-1.5832,-1.5317,-1.4897,-1.4629,-1.4649,-1.4649,-1.4616,-1.4616,-1.475,-1.5017,-1.5271,-1.5297,-1.5077,-1.3803,-1.3661,0.0,0.0,0.0,0.0,0.0,0.0,0.0,0.0,0.0,0.0,0.0,0.0,0.0,0.0,0.0,-1.6339,-1.7455,-1.8457,-1.9105,-1.9352,-1.9506,-1.9619,-1.9887,-2.018,-2.0481,-2.0561,-2.0708,-2.1002,-2.1029,-2.1049,-2.1109,-2.0722,0.0,-2.1109,-2.0722,-2.0716,-2.1109,-2.1109,-2.0976,-2.0589,0.0,0.0,-2.0589,-2.0976,-2.1109,-2.1109,-2.1109,-2.1109,-2.1109,-2.1109,-2.1109,-2.1109,-2.1109,-2.1109,-2.1109,-2.1109,-2.0849,-2.0583,-2.0916,-2.077,-2.0498,-2.083,-2.0782,-2.0588,-2.0588,-2.0421,0.0,-2.0234,-2.0194,-2.0147,-2.0147,-1.9859,-1.9513,-1.9279,-1.9226,-1.9168,-1.894,-1.9127,-1.9366,-1.9366,-1.9319,-1.9205,-1.8965,-1.8631,-1.8303,-1.8003,-1.7956,-1.7862,-1.7615,-1.7582,-1.7562,-1.7502,-1.7288,-1.7101,-1.6987,-1.6493,-1.6086,-1.5845,-1.5504,-1.5284,-1.5231,-1.5451,-1.5464,-1.5231,-1.5231,-1.5257,-1.5311,-1.5364,-1.5611,-1.6005,-1.5478,-1.5357,0.0,0.0,0.0,0.0,0.0,0.0,0.0,0.0,0.0,0.0,0.0,-1.4436,0.0,0.0,-1.6901,-1.7502,-1.8343,-1.9085,-1.9519,-1.996,-2.018,-2.0034,-2.0274,-2.0514,-2.0661,-2.0808,-2.0955,-2.1096,-2.1109,-2.1109,-2.1109,-2.1109,-2.1109,-2.1109,-2.1109,-2.1109,-2.1109,-2.1109,-2.1109,-2.1109,-2.1109,-2.1109,-2.1109,-2.1109,-2.1109,-2.1109,-2.1109,-2.1109,-2.1109,-2.1109,-2.1109,-2.1109,-2.1109,-2.1109,-2.1109,-2.1109,-2.1109,-2.1109,-2.1109,-2.1109,-2.1109,-2.1109,-2.1009,-2.0895,-2.0895,-2.0788,-2.0668,-2.0668,-2.0568,-2.0454,-2.0454,-2.0341,-2.0194,-2.0054,-2.0013,-1.994,-1.9646,-1.9586,-1.9539,-1.9399,-1.9366,-1.9319,-1.9172,-1.9025,-1.8778,-1.8337,-1.827,-1.8156,-1.7856,-1.7816,-1.7756,-1.7602,-1.7455,-1.7308,-1.7161,-1.674,-1.6366,-1.6072,-1.5912,-1.5772,-1.5618,-1.5752,-1.5758,-1.5618,-1.5758,-1.5832,-1.5832,-1.5985,-1.6199,-1.6486,-1.6339,-1.6266,0.0,0.0,0.0,0.0,0.0,0.0,0.0,0.0,-1.3834,-1.4242,-1.517,-1.6052,-1.6526,-1.7288,-1.8023,-1.8571,-1.9105,-1.9573,-1.992,-2.0374,-2.0608,-2.0421,-2.0615,-2.0762,-2.0762,-2.0969,-2.1109,-2.1109,-2.1109,-2.1109,-2.1109,-2.1109,-2.1109,-2.1109,-2.1109,-2.1109,-2.1109,-2.1109,-2.1136,-2.1196,-2.1196,-2.1223,-2.1276,-2.1223,-2.1196,-2.1189,-2.1136,-2.1109,-2.1109,-2.1109,-2.1109,-2.1109,-2.1109,-2.1109,-2.1109,-2.1109,-2.1109,-2.1109,-2.1109,-2.1109,-2.1109,-2.1109,-2.1109,-2.1109,-2.1109,-2.1109,-2.1109,-2.1109,-2.0942,-2.0762,-2.0762,-2.0581,-2.0388,-2.0334,-2.0321,-2.0241,-1.9947,-1.9887,-1.98,-1.9506,-1.9452,-1.9432,-1.9379,-1.9366,-1.9185,-1.8657,-1.8577,-1.8464,-1.817,-1.8083,-1.7949,-1.7702,-1.7615,-1.7462,-1.7174,-1.6934,-1.6667,-1.6373,-1.6359,-1.6246,-1.6005,-1.5999,-1.5999,-1.5999,-1.6233,-1.6359,-1.6359,-1.6587,-1.6734,-1.6794,-1.6794,-1.6794,-1.1176,-1.1703,-1.2345,-1.2919,-1.3086,-1.3581,0.0,0.0,-1.5772,-1.6593,-1.7288,-1.7769,-1.7836,-1.8357,-1.8885,-1.9212,-1.9539,-1.9947,-2.0501,-2.0635,-2.0762,-2.0989,-2.1042,-2.1062,-2.1062,-2.1089,-2.1109,-2.1109,-2.1109,-2.1109,-2.1109,-2.1109,-2.1109,-2.1109,-2.1109,-2.1109,-2.1109,-2.1109,-2.1243,-2.1503,-2.1503,-2.1637,-2.1877,-2.1623,-2.1503,-2.149,-2.1223,-2.1109,-2.1109,-2.1109,-2.1109,-2.1109,-2.1109,-2.1109,-2.1109,-2.1109,-2.1109,-2.1109,-2.1109,-2.1109,-2.1109,-2.1109,-2.1109,-2.1109,-2.1109,-2.1109,-2.1109,-2.1109,-2.1089,-2.1062,-2.1062,-2.1036,-2.0949,-2.0688,-2.0628,-2.0548,-2.0247,-2.0187,-2.01,-1.9806,-1.9753,-1.9673,-1.9412,-1.9366,-1.9259,-1.8925,-1.8878,-1.8771,-1.8477,-1.821,-1.8029,-1.7996,-1.7749,-1.7462,-1.7174,-1.7121,-1.6974,-1.668,-1.666,-1.6647,-1.6613,-1.6607,-1.6607,-1.6607,-1.664,-1.666,-1.666,-1.6693,-1.684,-1.7101,-1.7101,-1.7101,-1.322,-1.3534,0.0,0.0,-1.5124,-1.5685,-1.6366,-1.6834,-1.7221,-1.7582,-1.8136,-1.8557,-1.8557,-1.8898,-1.9279,0.0,-1.986,-2.0201,-2.0621,-2.0675,-2.0722,-2.0842,-2.0855,-2.0922,-2.1089,-2.1109,-2.1109,-2.1109,-2.1109,-2.1109,-2.1109,-2.1109,-2.1109,-2.1109,-2.1276,-2.137,-2.137,-2.1537,-2.1683,-2.1804,-2.1804,-2.1864,-2.1984,-2.1857,-2.171,-2.1543,-2.1423,-2.1269,-2.1109,-2.1109,-2.1109,-2.1109,-2.1109,-2.1109,-2.1109,-2.1109,-2.1109,-2.1109,-2.1109,-2.1109,-2.1109,-2.1109,-2.1109,-2.1109,-2.1109,-2.1109,-2.1109,-2.1109,-2.1109,-2.1109,-2.1109,-2.1109,-2.1082,-2.0955,-2.0929,-2.0848,-2.0555,-2.0494,-2.0401,-2.0107,-1.9913,-1.976,-1.9639,-1.9479,-1.9325,-1.9199,-1.9185,-1.9078,-1.8778,-1.8631,-1.8424,-1.8083,-1.7769,-1.7528,-1.7415,-1.7402,-1.7281,-1.6981,-1.6967,-1.6887,-1.6714,-1.6707,-1.6707,-1.6707,-1.6874,-1.6967,-1.6967,-1.7134,-1.7281,-1.7402,-1.7402,-1.7502,-1.4449,0.0,0.0,-1.5772,-1.662,-1.7235,-1.7108,-1.7702,-1.8283,-1.827,-1.8617,-1.8925,-1.8925,-1.9098,0.0,-1.974,-2.0047,-2.0368,-2.0742,-2.0728,-2.0675,-2.0675,-2.0601,-2.0668,-2.0962,-2.1062,-2.1109,-2.1109,-2.1109,-2.1109,-2.1109,-2.1109,-2.1149,-2.1229,-2.1443,-2.159,-2.167,-2.1884,-2.2024,-2.2104,-2.2104,-2.2151,-2.2225,-2.2144,-2.1944,-2.167,-2.159,-2.143,-2.1223,-2.1142,-2.1109,-2.1109,-2.1109,-2.1109,-2.1109,-2.1109,-2.1109,-2.1109,-2.1109,-2.1109,-2.1109,-2.1109,-2.1109,-2.1109,-2.1109,-2.1109,-2.1109,-2.1109,-2.1109,-2.1109,-2.1109,-2.1109,-2.1109,-2.1109,-2.1109,-2.1049,-2.0842,-2.0795,-2.0708,-2.0414,-2.0187,-1.9993,-1.9826,-1.9626,-1.9459,-1.9379,-1.9366,-1.9292,-1.9078,-1.8978,-1.8731,-1.8223,-1.7896,-1.7709,-1.7709,-1.7629,-1.7495,-1.7281,-1.7268,-1.7174,-1.6961,-1.6947,-1.6947,-1.6947,-1.7161,-1.7268,-1.7268,-1.7482,-1.7622,-1.7709,-1.7709,-1.7876,0.0,0.0,-1.5865,-1.6179,-1.6921,-1.7649,-1.7936,-1.8464,-1.8898,-1.8891,-1.8911,-1.8925,-1.8925,-1.8931,-1.9125,-1.9706,-2.0047,-2.0434,-2.1015,-2.0855,-2.0675,-2.0675,-2.0421,-2.0361,0.0,-2.0942,-2.1109,-2.1109,-2.1109,-2.1109,-2.1109,-2.1109,-2.1243,-2.153,-2.155,-2.1683,-2.1971,-2.1984,-2.2124,-2.2405,-2.2405,-2.2559,-2.2826,-2.2539,-2.2245,-2.1957,-2.1677,-2.155,-2.1516,-2.1229,-2.1109,-2.1109,-2.1109,-2.1109,-2.1109,-2.1109,-2.1109,-2.1109,-2.1109,-2.1109,-2.1109,-2.1109,-2.1109,-2.1109,-2.1109,-2.1109,-2.1109,-2.1109,-2.1109,-2.1109,-2.1109,-2.1109,-2.1109,-2.1109,-2.1109,-2.1109,-2.1096,-2.1096,-2.1009,-2.0722,-2.0655,-2.0468,-1.99,-1.9793,-1.9693,-1.9412,-1.9366,-1.9366,-1.9359,-1.9098,-1.8804,-1.851,-1.821,-1.8029,-1.8029,-1.7756,-1.7582,-1.7569,-1.7569,-1.7562,-1.7555,-1.7555,-1.7555,-1.7555,-1.7562,-1.7569,-1.7569,-1.7582,-1.7736,-1.8029,-1.8029,-1.819,0.0,0.0,-1.682,-1.7308,-1.7956,-1.8497,-1.8604,-1.8778,-1.8925,-1.8925,-1.8611,-1.8343,-1.8343,-1.8343,-1.8597,-1.9386,-1.976,-2.0221,-2.1002,-2.0862,-2.0601,-2.0408,-2.0468,0.0,0.0,0.0,0.0,-2.1096,-2.1109,-2.1109,-2.1109,-2.1109,-2.1243,-2.1543,-2.1737,-2.1977,-2.2271,-2.2472,-2.2619,-2.2712,-2.2712,-2.2766,-2.2859,-2.2759,-2.2552,-2.2265,-2.2171,-2.1911,-2.1543,-2.1443,-2.1289,-2.1109,-2.1109,-2.1109,-2.1109,-2.1109,-2.1109,-2.1109,-2.1109,-2.1109,-2.1109,-2.1109,-2.1109,-2.1109,-2.1109,-2.1109,-2.1109,-2.1109,-2.1109,-2.1109,-2.1109,-2.1109,-2.1109,-2.1109,-2.1109,-2.1109,-2.1109,-2.1109,-2.1082,-2.0982,-2.0808,-2.0615,-2.0414,-2.006,-1.97,-1.9412,-1.9366,-1.9366,-1.9366,-1.9112,-1.8885,-1.8791,-1.8517,-1.8343,-1.8343,-1.8243,-1.8103,-1.7903,-1.7889,-1.7796,-1.7589,-1.7582,-1.7582,-1.7582,-1.7582,-1.7682,-1.7889,-1.7889,-1.805,-1.8343,-1.8343,-1.8497,-1.65,-1.7081,-1.7468,-1.8163,-1.8631,-1.8925,-1.8925,-1.8844,-1.8738,-1.8624,-1.805,-1.7602,-1.7702,-1.7642,-1.7929,-1.9032,-1.9459,-1.9987,-2.0969,-2.0862,-2.0608,-2.0414,-2.0468,-2.0481,0.0,0.0,0.0,-2.1089,-2.1109,-2.1109,-2.1109,-2.1209,-2.1403,-2.1697,-2.1991,-2.2285,-2.2572,-2.2766,-2.2859,-2.2859,-2.2859,-2.2859,-2.2859,-2.2859,-2.2759,-2.2572,-2.2465,-2.2151,-2.1704,-2.1597,-2.1376,-2.1109,-2.1109,-2.1109,-2.1109,-2.1109,-2.1109,-2.1109,-2.1109,-2.1109,-2.1109,-2.1109,-2.1109,-2.1109,-2.1109,-2.1109,-2.1109,-2.1109,-2.1109,-2.1109,-2.1109,-2.1109,-2.1109,-2.1109,-2.1109,-2.1109,-2.1109,-2.1109,-2.1109,-2.1109,-2.0955,-2.0802,-2.0695,-2.0274,-1.986,-1.9566,-1.9519,-1.9486,-1.9379,-1.9199,-1.9085,-1.9085,-1.8818,-1.8644,-1.8644,-1.8551,-1.841,-1.8217,-1.8203,-1.8116,-1.7916,-1.7903,-1.7903,-1.7903,-1.7903,-1.8003,-1.8203,-1.8203,-1.8357,-1.8644,-1.8644,-1.8804,-1.7027,-1.7422,-1.7856,-1.8724,-1.8931,-1.8918,-1.8905,-1.8664,-1.8343,-1.7996,-1.7241,-1.6714,0.0,0.0,-1.7141,-1.8597,-1.9132,-1.9773,-2.0922,-2.0862,-2.0695,0.0,0.0,0.0,0.0,0.0,0.0,-2.1089,0.0,-2.1116,-2.1129,-2.1403,-2.1697,-2.1997,-2.2271,-2.2565,-2.2859,-2.2859,-2.2859,-2.2859,-2.2859,-2.2859,-2.2859,-2.2859,-2.2859,-2.2846,-2.2565,-2.2271,-2.1984,-2.1697,-2.1403,-2.1129,-2.1116,-2.1109,-2.1109,-2.1109,-2.1109,-2.1109,-2.1109,-2.1109,-2.1109,-2.1109,-2.1109,-2.1109,-2.1109,-2.1109,-2.1109,-2.1109,-2.1109,-2.1109,-2.1109,-2.1109,-2.1109,-2.1109,-2.1109,-2.1109,-2.1109,-2.1109,-2.1109,-2.1109,-2.1109,-2.1015,-2.0728,-2.0441,-2.0154,-1.9867,-1.9813,-1.9693,-1.9406,-1.9366,-1.9366,-1.9366,-1.9118,-1.8945,-1.8945,-1.8691,-1.8531,-1.851,-1.851,-1.8504,-1.849,-1.849,-1.849,-1.849,-1.849,-1.8497,-1.851,-1.851,-1.8657,-1.8945,-1.8945,-1.9098,-1.7535,-1.819,-1.8691,-1.9145,-1.9085,-1.8865,-1.8651,-1.819,-1.7602,-1.6867,-1.6192,-1.5618,-1.5257,0.0,0.0,-1.7435,-1.8597,0.0,-2.0655,-2.0909,0.0,0.0,0.0,-2.0828,-2.0688,-2.0869,0.0,0.0,-2.1109,-2.1203,-2.143,-2.151,-2.1784,-2.2291,-2.2378,-2.2565,-2.2859,-2.2859,-2.2859,-2.2859,-2.2859,-2.2859,-2.2859,-2.2859,-2.2859,-2.2859,-2.2779,-2.2579,-2.2285,-2.1997,-2.1704,-2.1416,-2.1196,-2.1109,-2.1109,-2.1109,-2.1109,-2.1109,-2.1109,-2.1109,-2.1109,-2.1109,-2.1109,-2.1109,-2.1109,-2.1109,-2.1109,-2.1109,-2.1109,-2.1109,-2.1109,-2.1109,-2.1109,-2.1109,-2.1109,-2.1109,-2.1109,-2.1109,-2.1109,-2.1109,-2.1109,-2.1015,-2.0728,-2.0615,-2.0461,-2.0167,-1.994,-1.9693,-1.9406,-1.9366,-1.9366,-1.9366,-1.9299,-1.9252,-1.9252,-1.9185,-1.9045,-1.8824,-1.8811,-1.8718,-1.8497,-1.849,-1.849,-1.849,-1.849,-1.8597,-1.8811,-1.8811,-1.8965,-1.9252,-1.9252,-1.9292,-1.8183,-1.8764,-1.9125,-1.9165,-1.8951,-1.8557,-1.7862,-1.7241,-1.6526,-1.5524,-1.495,0.0,-1.4028,0.0,0.0,0.0,0.0,0.0,-2.0341,-2.0842,-2.1049,0.0,-2.1009,0.0,-2.0882,-2.1015,-2.1109,0.0,-2.1229,-2.1376,-2.1543,-2.1797,-2.2084,-2.2405,-2.2545,-2.2692,-2.2859,-2.2859,-2.2859,-2.2859,-2.2859,-2.2859,-2.2859,-2.2859,-2.2859,-2.2859,0.0,-2.2619,-2.2218,-2.2051,-2.1737,-2.1343,-2.1176,-2.1109,-2.1109,-2.1109,-2.1109,-2.1109,-2.1109,-2.1109,-2.1109,-2.1109,-2.1109,-2.1109,-2.1109,-2.1109,-2.1109,-2.1109,-2.1109,-2.1109,-2.1109,-2.1109,-2.1109,-2.1109,-2.1109,-2.1109,-2.1109,-2.1109,-2.1109,-2.1109,-2.1109,-2.1056,-2.0895,-2.0869,-2.0768,-2.0474,-2.0287,-2.0034,-1.9613,-1.9446,-1.9366,-1.9366,-1.9366,-1.9366,-1.9366,-1.9366,-1.9299,-1.9132,-1.9118,-1.9045,-1.8885,-1.8871,-1.8871,-1.8871,-1.8871,-1.8958,-1.9118,-1.9118,-1.9205,-1.9366,-1.9366,-1.9366,-1.8764,-1.9138,-1.9299,-1.8998,-1.8671,-1.8116,-1.6921,-1.6159,-1.5371,-1.4162,0.0,-1.3373,-1.3086,0.0,-1.4803,-1.6019,0.0,-1.8851,-2.006,-2.0702,-2.1069,-2.1109,-2.1109,-2.1109,-2.1109,-2.1109,-2.1109,-2.1109,-2.139,-2.157,-2.161,-2.2124,-2.2438,-2.2478,-2.2732,-2.2859,-2.2859,-2.2859,-2.2859,-2.2859,-2.2859,-2.2859,-2.2859,-2.2859,-2.2859,-2.2859,0.0,0.0,-2.2038,-2.1997,-2.1663,-2.1162,-2.1122,-2.1109,-2.1109,-2.1109,-2.1109,-2.1109,-2.1109,-2.1109,-2.1109,-2.1109,-2.1109,-2.1109,-2.1109,-2.1109,-2.1109,-2.1109,-2.1109,-2.1109,-2.1109,-2.1109,-2.1109,-2.1109,-2.1109,-2.1109,-2.1109,-2.1109,-2.1109,-2.1109,-2.1109,-2.1109,-2.1109,-2.1109,-2.1022,-2.0768,-2.0702,-2.0494,-1.998,-1.9626,-1.9412,-1.9372,-1.9366,-1.9366,-1.9366,-1.9366,-1.9366,-1.9366,-1.9366,-1.9366,-1.9366,-1.9366,-1.9366,-1.9366,-1.9366,-1.9366,-1.9366,-1.9366,-1.9366,-1.9366,-1.9366,-1.9366,-1.8758,-1.9138,-1.9299,-1.8998,-1.8524,-1.7816,-1.662,-1.5705,0.0,0.0,0.0,-1.2445,-1.2158,-1.3026,0.0,-1.5678,0.0,0.0,0.0,0.0,-2.0842,0.0,0.0,0.0,0.0,0.0,0.0,0.0,0.0,0.0,-2.1897,-2.2231,-2.2532,-2.2779,-2.2839,-2.2859,-2.2859,-2.2859,-2.2859,-2.2859,-2.2859,-2.2859,-2.2859,-2.2859,-2.2859,-2.2859,-2.2859,0.0,-2.2325,-2.2084,-2.1784,-2.1456,-2.1203,-2.1109,-2.1109,-2.1109,-2.1109,-2.1109,-2.1109,-2.1109,-2.1109,-2.1109,-2.1109,-2.1109,-2.1109,-2.1109,-2.1109,-2.1109,-2.1109,-2.1109,-2.1109,-2.1109,-2.1109,-2.1109,-2.1109,-2.1109,-2.1109,-2.1109,-2.1109,-2.1109,-2.1109,-2.1109,-2.1109,-2.1109,-2.1089,-2.1042,-2.0828,-2.0641,-2.0541,-2.0054,-1.9633,-1.9392,-1.9366,-1.9366,-1.9366,-1.9366,-1.9366,-1.9366,-1.9366,-1.9366,-1.9366,-1.9366,-1.9366,-1.9366,-1.9366,-1.9366,-1.9366,-1.9366,-1.9366,-1.9366,-1.9366,-1.9366,-1.8758,-1.9138,-1.9259,-1.8811,-1.825,-1.7375,-1.5732,0.0,0.0,0.0,0.0,-1.171,-1.1269,0.0,0.0,0.0,0.0,0.0,0.0,0.0,0.0,0.0,0.0,0.0,0.0,0.0,0.0,0.0,0.0,0.0,-2.175,-2.2178,-2.2485,-2.2625,-2.2779,-2.2859,-2.2859,-2.2859,-2.2859,-2.2859,-2.2859,-2.2779,-2.2632,-2.2632,-2.2552,-2.2405,-2.2405,0.0,-2.1957,-2.1817,-2.1583,-2.1309,-2.1162,-2.1109,-2.1109,-2.1109,-2.1109,-2.1109,-2.1109,-2.1109,-2.1109,-2.1109,-2.1109,-2.1109,-2.1109,-2.1109,-2.1109,-2.1109,-2.1109,-2.1109,-2.1109,-2.1109,-2.1109,-2.1109,-2.1109,-2.1109,-2.1109,-2.1109,-2.1109,-2.1109,-2.1109,-2.1109,-2.1109,-2.1109,-2.1109,-2.1109,-2.0989,-2.0848,-2.0695,-2.0434,-2.0087,-1.9639,-1.9459,-1.9366,-1.9366,-1.9366,-1.9366,-1.9366,-1.9366,-1.9366,-1.9366,-1.9366,-1.9366,-1.9366,-1.9366,-1.9366,-1.9366,-1.9366,-1.9366,-1.9366,-1.9366,-1.9366,-1.8591,-1.8951,-1.9038,-1.8444,-1.7842,-1.6874,-1.4883,-1.3874,0.0,0.0,-1.1076,-1.1042,-1.0715,0.0,0.0,0.0,0.0,0.0,0.0,0.0,0.0,0.0,0.0,0.0,0.0,0.0,0.0,0.0,0.0,0.0,-2.1637,-2.2078,-2.2325,-2.2325,-2.2552,-2.2679,-2.2679,-2.2679,-2.2679,-2.2679,-2.2679,-2.2552,-2.2325,-2.2325,-2.2205,-2.1984,-2.1984,0.0,0.0,-2.155,-2.1376,-2.1109,-2.1109,-2.1109,-2.1109,-2.1109,-2.1109,-2.1109,-2.1109,-2.1109,-2.1109,-2.1109,-2.1109,-2.1109,-2.1109,-2.1109,-2.1109,-2.1109,-2.1109,-2.1109,-2.1109,-2.1109,-2.1109,-2.1109,-2.1109,-2.1109,-2.1109,-2.1109,-2.1109,-2.1109,-2.1109,-2.1109,-2.1109,-2.1109,-2.1109,-2.1109,-2.1109,-2.1029,-2.0802,-2.0715,-2.0501,-2.004,-1.9673,-1.9432,-1.9372,-1.9366,-1.9366,-1.9366,-1.9366,-1.9366,-1.9366,-1.9366,-1.9366,-1.9366,-1.9366,-1.9366,-1.9366,-1.9366,-1.9366,-1.9366,-1.9366,-1.9366,-1.8036,-1.8343,-1.8424,-1.7816,-1.7221,-1.6319,-1.4536,0.0,0.0,-1.1189,-1.0588,-1.0381,-1.0868,-1.1276,0.0,0.0,0.0,0.0,0.0,0.0,0.0,0.0,0.0,0.0,0.0,0.0,0.0,0.0,0.0,0.0,-2.1917,-2.1997,-2.2024,-2.2024,-2.2051,-2.2064,-2.2064,-2.2064,-2.2064,-2.2064,-2.2064,-2.2051,-2.2024,-2.2024,-2.2011,-2.1984,-2.1984,0.0,0.0,-2.155,-2.1376,-2.1109,-2.1109,-2.1109,-2.1109,-2.1109,-2.1109,-2.1109,-2.1109,-2.1109,-2.1109,-2.1109,-2.1109,-2.1109,-2.1109,-2.1109,-2.1109,-2.1109,-2.1109,-2.1109,-2.1109,-2.1109,-2.1109,-2.1109,-2.1109,-2.1109,-2.1109,-2.1109,-2.1109,-2.1109,-2.1109,-2.1109,-2.1109,-2.1109,-2.1109,-2.1109,-2.1109,-2.1096,-2.1076,-2.0842,-2.0655,-2.0601,-2.0094,-1.9653,-1.9392,-1.9366,-1.9366,-1.9366,-1.9366,-1.9366,-1.9366,-1.9366,-1.9366,-1.9366,-1.9366,-1.9366,-1.9366,-1.9366,-1.9366,-1.9366,-1.9366,-1.9366,-1.7589,-1.8123,-1.8343,-1.7736,-1.7141,-1.6199,-1.4262,0.0,-1.2218,-1.0989,-1.0548,-1.0454,-1.0688,-1.0969,-1.151,0.0,0.0,0.0,0.0,0.0,0.0,0.0,0.0,0.0,0.0,0.0,0.0,0.0,0.0,0.0,-2.1443,-2.1623,-2.1724,-2.1724,-2.1897,-2.1984,-2.1984,-2.1984,-2.1984,-2.1984,-2.1984,-2.1897,-2.1724,-2.1724,-2.1623,-2.1456,-2.1456,0.0,0.0,-2.1289,-2.1216,-2.1109,-2.1109,-2.1109,-2.1109,-2.1109,-2.1109,-2.1109,-2.1109,-2.1109,-2.1109,-2.1109,-2.1109,-2.1109,-2.1109,-2.1109,-2.1109,-2.1109,-2.1109,-2.1109,-2.1109,-2.1109,-2.1109,-2.1109,-2.1109,-2.1109,-2.1109,-2.1109,-2.1109,-2.1109,-2.1109,-2.1109,-2.1109,-2.1109,-2.1109,-2.1109,-2.1109,-2.1109,-2.1109,-2.1009,-2.0869,-2.0695,-2.0154,-1.9753,-1.9639,-1.9466,-1.9366,-1.9366,-1.9366,-1.9366,-1.9366,-1.9366,-1.9366,-1.9366,-1.9366,-1.9366,-1.9366,-1.9366,-1.9366,-1.9366,-1.9366,-1.9366,-1.6847,-1.7502,-1.7842,-1.7321,-1.6754,-1.5825,0.0,0.0,-1.219,-1.0893,-1.0488,-1.0454,-1.0611,-1.0728,-1.1089,0.0,0.0,0.0,0.0,0.0,0.0,0.0,0.0,0.0,0.0,0.0,0.0,0.0,0.0,0.0,0.0,-2.1309,-2.1423,-2.1423,-2.1617,-2.1724,-2.1724,-2.1724,-2.1724,-2.1724,-2.1724,-2.1617,-2.1423,-2.1423,-2.1309,-2.1109,0.0,0.0,0.0,-2.1109,-2.1109,-2.1109,-2.1109,-2.1109,-2.1109,-2.1109,-2.1109,-2.1109,-2.1109,-2.1109,-2.1109,-2.1109,-2.1109,-2.1109,-2.1109,-2.1109,-2.1109,-2.1109,-2.1109,-2.1109,-2.1109,-2.1109,-2.1109,-2.1109,-2.1109,-2.1109,-2.1109,-2.1109,-2.1109,-2.1109,-2.1109,-2.1109,-2.1109,-2.1109,-2.1109,-2.1109,-2.1109,-2.1109,-2.1109,-2.1109,-2.1029,-2.0828,-2.0361,-1.9987,-1.9813,-1.9613,-1.9459,-1.9372,-1.9366,-1.9366,-1.9366,-1.9366,-1.9366,-1.9366,-1.9366,-1.9366,-1.9366,-1.9366,-1.9366,-1.9366,-1.9366,-1.9412,-1.5691,-1.6279,-1.6653,-1.6359,-1.5845,-1.5023,0.0,-1.2518,-1.163,-1.0806,-1.0327,-1.0214,-1.0571,-1.0624,-1.0913,-1.173,-1.2432,0.0,0.0,0.0,0.0,0.0,0.0,0.0,0.0,0.0,0.0,0.0,0.0,0.0,0.0,-2.1109,-2.1116,-2.1116,-2.1116,-2.1116,-2.1116,-2.1116,-2.1116,-2.1116,-2.1116,-2.1116,-2.1116,-2.1116,-2.1109,0.0,0.0,0.0,0.0,-2.1109,-2.1109,-2.1109,-2.1109,-2.1109,-2.1109,-2.1109,-2.1109,-2.1109,-2.1109,-2.1109,-2.1109,-2.1109,-2.1109,-2.1109,-2.1109,-2.1109,-2.1109,-2.1109,-2.1109,-2.1109,-2.1109,-2.1109,-2.1109,-2.1109,-2.1109,-2.1109,-2.1109,-2.1109,-2.1109,-2.1109,-2.1109,-2.1109,-2.1109,-2.1109,-2.1109,-2.1109,-2.1109,-2.1109,-2.1109,-2.1109,-2.1109,-2.1109,-2.0842,-2.0434,-1.9853,-1.98,-1.9673,-1.9386,-1.9366,-1.9366,-1.9366,-1.9366,-1.9366,-1.9366,-1.9366,-1.9366,-1.9366,-1.9366,-1.9366,-1.9366,-1.9366,-1.9519,-1.4175,-1.4763,-1.509,-1.4603,-1.4335,-1.3861,-1.2585,-1.1917,-1.1376,-1.0759,-1.0321,-1.0207,-1.0571,-1.0624,-1.1048,-1.2338,-1.2701,0.0,0.0,0.0,0.0,0.0,0.0,0.0,0.0,0.0,0.0,0.0,0.0,0.0,0.0,-2.1109,-2.1109,-2.1109,-2.1109,-2.1109,-2.1109,-2.1109,-2.1109,-2.1109,-2.1109,-2.1109,-2.1109,-2.1109,0.0,0.0,0.0,0.0,0.0,-2.1109,-2.1109,-2.1109,-2.1109,-2.1109,-2.1109,-2.1109,-2.1109,-2.1109,-2.1109,-2.1109,-2.1109,-2.1109,-2.1109,-2.1109,-2.1109,-2.1109,-2.1109,-2.1109,-2.1109,-2.1109,-2.1109,-2.1109,-2.1109,-2.1109,-2.1109,-2.1109,-2.1109,-2.1109,-2.1109,-2.1109,-2.1109,-2.1109,-2.1109,-2.1109,-2.1109,-2.1109,-2.1109,-2.1109,-2.1109,-2.1109,-2.1109,-2.1109,-2.1029,-2.0815,-2.0434,-2.0034,-1.976,-1.9673,-1.9472,-1.9366,-1.9366,-1.9366,-1.9366,-1.9366,-1.9366,-1.9366,-1.9366,-1.9366,-1.9466,-1.9666,-1.9867,-2.0007,0.0,-1.3574,-1.3935,-1.3574,-1.3394,-1.3019,-1.1944,-1.147,-1.1062,-1.0374,-1.0167,-1.0174,-1.0354,-1.0488,-1.0994,-1.2064,-1.2607,0.0,0.0,0.0,0.0,0.0,0.0,0.0,0.0,0.0,0.0,0.0,0.0,0.0,0.0,-2.1109,-2.1109,-2.1109,-2.1109,-2.1109,-2.1109,-2.1109,-2.1109,-2.1109,-2.1109,-2.1109,-2.1109,-2.1109,0.0,0.0,0.0,0.0,0.0,-2.1109,-2.1109,-2.1109,-2.1109,-2.1109,-2.1109,-2.1109,-2.1109,-2.1109,-2.1109,-2.1109,-2.1109,-2.1109,-2.1109,-2.1109,-2.1109,-2.1109,-2.1109,-2.1109,-2.1109,-2.1109,-2.1109,-2.1109,-2.1109,-2.1109,-2.1109,-2.1109,-2.1109,-2.1109,-2.1109,-2.1109,-2.1109,-2.1109,-2.1109,-2.1109,-2.1109,-2.1109,-2.1109,-2.1109,-2.1109,-2.1109,-2.1109,-2.1109,-2.1109,-2.1036,-2.0855,-2.0408,-2.0087,-1.9967,-1.9793,-1.9646,-1.9539,-1.9533,-1.9479,-1.9372,-1.9366,-1.9419,-1.9533,-1.9639,-1.9786,-1.9967,-2.0147,-2.0294,0.0,-1.2525,-1.2986,-1.2966,-1.2759,-1.2338,-1.149,-1.1096,0.0,-0.9853,-0.99,-1.0107,-1.0194,-1.0421,-1.0822,-1.153,-1.2318,0.0,0.0,0.0,0.0,0.0,0.0,0.0,0.0,0.0,0.0,0.0,0.0,0.0,0.0,-2.1109,-2.1109,-2.1109,-2.1109,-2.1109,-2.1109,-2.1109,-2.1109,-2.1109,-2.1109,-2.1109,-2.1109,-2.1109,0.0,0.0,0.0,0.0,0.0,-2.1109,-2.1109,-2.1109,-2.1109,-2.1109,-2.1109,-2.1109,-2.1109,-2.1109,-2.1109,-2.1109,-2.1109,-2.1109,-2.1109,-2.1109,-2.1109,-2.1109,-2.1109,-2.1109,-2.1109,-2.1109,-2.1109,-2.1109,-2.1109,-2.1109,-2.1109,-2.1109,-2.1109,-2.1109,-2.1109,-2.1109,-2.1109,-2.1109,-2.1109,-2.1109,-2.1109,-2.1109,-2.1109,-2.1109,-2.1109,-2.1109,-2.1109,-2.1109,-2.1109,-2.1109,-2.1109,-2.0842,-2.0561,-2.0281,-2.0241,-2.0107,-1.9846,-1.9833,-1.97,-1.9432,-1.9432,-1.9559,-1.9833,-2.012,-2.0267,-2.0267,-2.0287,-2.0441,-0.9787,0.0,-1.0788,-1.0568,-1.0628,-1.0621,0.0,-1.004,-0.9933,-0.9726,0.0,-1.006,-1.0955,-1.0995,-1.153,-1.3474,0.0,0.0,0.0,0.0,0.0,0.0,0.0,0.0,0.0,0.0,0.0,0.0,0.0,0.0,0.0,-2.1109,-2.1109,-2.1109,-2.1109,-2.1109,-2.1109,-2.1109,-2.1109,-2.1109,-2.1109,-2.1109,-2.1109,-2.1109,0.0,0.0,0.0,0.0,-2.1109,-2.1109,-2.1109,-2.1109,-2.1109,-2.1109,-2.1109,-2.1109,-2.1109,-2.1109,-2.1109,-2.1109,-2.1109,-2.1109,-2.1109,-2.1109,-2.1109,-2.1109,-2.1109,-2.1109,-2.1109,-2.1109,-2.1109,-2.1109,-2.1109,-2.1109,-2.1109,-2.1109,-2.1109,-2.1109,-2.1109,-2.1109,-2.1109,-2.1109,-2.1109,-2.1109,-2.1109,-2.1109,-2.1109,-2.1109,-2.1109,-2.1109,-2.1109,-2.1109,-2.1109,-2.1109,-2.1109,-2.0842,-2.0648,-2.0575,-2.0361,-2.0201,-2.0134,-2.0134,-2.01,-2.0034,-2.0034,-2.006,-2.0134,-2.0428,-2.0575,-2.0575,-2.0802,-2.0942,-0.9038,-0.9766,-1.0481,-1.0321,-1.0401,-1.0441,-1.0147,0.0,0.0,0.0,0.0,-0.996,-1.0862,0.0,0.0,0.0,0.0,0.0,0.0,0.0,0.0,0.0,0.0,0.0,0.0,0.0,0.0,0.0,0.0,0.0,0.0,-2.1109,-2.1109,-2.1109,-2.1109,-2.1109,-2.1109,-2.1109,-2.1109,-2.1109,-2.1109,-2.1109,-2.1109,-2.1109,-2.1109,0.0,0.0,0.0,-2.1109,-2.1109,-2.1109,-2.1109,-2.1109,-2.1109,-2.1109,-2.1109,-2.1109,-2.1109,-2.1109,-2.1109,-2.1109,-2.1109,-2.1109,-2.1109,-2.1109,-2.1109,-2.1109,-2.1109,-2.1109,-2.1109,-2.1109,-2.1109,-2.1109,-2.1109,-2.1109,-2.1109,-2.1109,-2.1109,-2.1109,-2.1109,-2.1109,-2.1109,-2.1109,-2.1109,-2.1109,-2.1109,-2.1109,-2.1109,-2.1109,-2.1109,-2.1109,-2.1109,-2.1109,-2.1109,-2.1109,-2.0962,-2.0875,-2.0875,-2.0722,-2.0575,-2.0441,-2.0434,-2.0374,-2.0234,-2.0368,-2.0434,-2.0434,-2.0735,-2.0875,-2.0882,-2.1036,-2.1109,-0.8971,-0.9887,-1.0804,-1.0717,-1.0862,-1.0909,-1.0568,0.0,0.0,0.0,0.0,0.0,0.0,0.0,0.0,0.0,0.0,0.0,0.0,0.0,0.0,0.0,0.0,0.0,0.0,0.0,0.0,0.0,0.0,0.0,0.0,-2.1109,-2.1109,-2.1109,-2.1109,-2.1109,-2.1109,-2.1109,-2.1109,-2.1109,-2.1109,-2.1109,-2.1109,-2.1109,-2.1109,-2.1109,0.0,0.0,-2.1109,-2.1109,-2.1109,-2.1109,-2.1109,-2.1109,-2.1109,-2.1109,-2.1109,-2.1109,-2.1109,-2.1109,-2.1109,-2.1109,-2.1109,-2.1109,-2.1109,-2.1109,-2.1109,-2.1109,-2.1109,-2.1109,-2.1109,-2.1109,-2.1109,-2.1109,-2.1109,-2.1109,-2.1109,-2.1109,-2.1109,-2.1109,-2.1109,-2.1109,-2.1109,-2.1109,-2.1109,-2.1109,-2.1109,-2.1109,-2.1109,-2.1109,-2.1109,-2.1109,-2.1109,-2.1109,-2.1109,-2.1109,-2.1109,-2.1109,-2.1109,-2.0995,-2.0755,-2.0742,-2.0621,-2.0374,-2.0615,-2.0742,-2.0742,-2.0989,-2.1109,-2.1109,-2.1109,-2.1109,-0.9713,-0.9906,-0.9843,-0.9518,-1.0254,-1.0848,-1.0307,0.0,0.0,0.0,0.0,0.0,0.0,0.0,0.0,0.0,0.0,0.0,0.0,0.0,0.0,0.0,0.0,0.0,0.0,0.0,0.0,0.0,0.0,0.0,0.0,-2.1109,-2.1109,-2.1109,-2.1109,-2.1109,-2.1109,-2.1109,-2.1109,-2.1109,-2.1109,-2.1109,-2.1109,-2.1109,-2.1109,-2.1109,0.0,-2.1109,-2.1109,-2.1109,-2.1109,-2.1109,-2.1109,-2.1109,-2.1109,-2.1109,-2.1109,-2.1109,-2.1109,-2.1109,-2.1109,-2.1109,-2.1109,-2.1109,-2.1109,-2.1109,-2.1109,-2.1109,-2.1109,-2.1109,-2.1109,-2.1109,-2.1109,-2.1109,-2.1109,-2.1109,-2.1109,-2.1109,-2.1109,-2.1109,-2.1109,-2.1109,-2.1109,-2.1109,-2.1109,-2.1109,-2.1109,-2.1109,-2.1109,-2.1109,-2.1109,-2.1109,-2.1109,-2.1109,-2.1109,-2.1109,-2.1109,-2.1109,-2.1109,-2.1089,-2.1042,-2.1042,-2.1022,-2.0975,-2.1015,-2.1042,-2.1042,-2.1089,-2.1109,-2.1109,-2.1109,-2.1109,-0.9299,-0.9794,-1.0133,-0.9999,-1.0597,-1.1363,-1.1702,0.0,0.0,0.0,0.0,0.0,0.0,0.0,0.0,0.0,0.0,0.0,0.0,0.0,0.0,0.0,0.0,0.0,0.0,0.0,0.0,0.0,0.0,0.0,0.0,0.0,-2.1109,-2.1109,-2.1109,-2.1109,-2.1109,-2.1109,-2.1109,-2.1109,-2.1109,-2.1109,-2.1109,-2.1109,-2.1109,-2.1109,0.0,-2.1109,-2.1109,-2.1109,-2.1109,-2.1109,-2.1109,-2.1109,-2.1109,-2.1109,-2.1109,-2.1109,-2.1109,-2.1109,-2.1109,-2.1109,-2.1109,-2.1109,-2.1109,-2.1109,-2.1109,-2.1109,-2.1109,-2.1109,-2.1109,-2.1109,-2.1109,-2.1109,-2.1109,-2.1109,-2.1109,-2.1109,-2.1109,-2.1109,-2.1109,-2.1109,-2.1109,-2.1109,-2.1109,-2.1109,-2.1109,-2.1109,-2.1109,-2.1109,-2.1109,-2.1109,-2.1109,-2.1109,-2.1109,-2.1109,-2.1109,-2.1109,-2.1109,-2.1109,-2.1109,-2.1109,-2.1109,-2.1109,-2.1109,-2.1109,-2.1109,-2.1109,-2.1109,-2.1109,-2.1109,-2.1109,-0.9058,-0.9643,-1.0283,-1.075,-1.1222,-1.1901,-1.2916,0.0,0.0,0.0,0.0,0.0,0.0,0.0,0.0,0.0,0.0,0.0,0.0,0.0,0.0,0.0,0.0,0.0,0.0,0.0,0.0,0.0,0.0,0.0,0.0,0.0,-2.1109,-2.1109,-2.1109,-2.1109,-2.1109,-2.1109,-2.1109,-2.1109,-2.1109,-2.1109,-2.1109,-2.1109,-2.1109,-2.1109,-2.1109,-2.1109,-2.1109,-2.1109,-2.1109,-2.1109,-2.1109,-2.1109,-2.1109,-2.1109,-2.1109,-2.1109,-2.1109,-2.1109,-2.1109,-2.1109,-2.1109,-2.1109,-2.1109,-2.1109,-2.1109,-2.1109,-2.1109,-2.1109,-2.1109,-2.1109,-2.1109,-2.1109,-2.1109,-2.1109,-2.1109,-2.1109,-2.1109,-2.1109,-2.1109,-2.1109,-2.1109,-2.1109,-2.1109,-2.1109,-2.1109,-2.1109,-2.1109,-2.1109,-2.1109,-2.1109,-2.1109,-2.1109,-2.1109,-2.1109,-2.1109,-2.1109,-2.1109,-2.1109,-2.1109,-2.1109,-2.1109,-2.1109,-2.1109,-2.1109,-2.1109,-2.1109,-2.1109,-2.1109,-2.1109,-2.1109,-0.98,-0.9463,-0.9367,-1.1286,-1.187,0.0,-1.3019,-1.2025,0.0,-1.1893,0.0,0.0,0.0,0.0,0.0,0.0,0.0,0.0,0.0,0.0,0.0,0.0,0.0,0.0,0.0,0.0,0.0,0.0,0.0,0.0,0.0,0.0,0.0,-2.1109,-2.1109,-2.1109,-2.1109,-2.1109,-2.1109,-2.1109,-2.1109,-2.1109,-2.1109,-2.1109,-2.1109,-2.1109,-2.1109,-2.1109,-2.1109,-2.1109,-2.1109,-2.1109,-2.1109,-2.1109,-2.1109,-2.1109,-2.1109,-2.1109,-2.1109,-2.1109,-2.1109,-2.1109,-2.1109,-2.1109,-2.1109,-2.1109,-2.1109,-2.1109,-2.1109,-2.1109,-2.1109,-2.1109,-2.1109,-2.1109,-2.1109,-2.1109,-2.1109,-2.1109,-2.1109,-2.1109,-2.1109,-2.1109,-2.1109,-2.1109,-2.1109,-2.1109,-2.1109,-2.1109,-2.1109,-2.1109,-2.1109,-2.1109,-2.1109,-2.1109,-2.1109,-2.1109,-2.1109,-2.1109,-2.1109,-2.1109,-2.1109,-2.1109,-2.1109,-2.1109,-2.1109,-2.1109,-2.1109,-2.1109,-2.1109,-2.1109,-2.1109,-2.1109,-0.9212,-0.9114,-0.9325,-1.1112,-1.1547,0.0,0.0,-1.193,-1.1354,0.0,0.0,0.0,0.0,0.0,0.0,0.0,0.0,0.0,0.0,0.0,0.0,0.0,0.0,0.0,0.0,0.0,0.0,0.0,0.0,0.0,0.0,0.0,0.0,-2.1109,-2.1109,-2.1109,-2.1109,-2.1109,-2.1109,-2.1109,-2.1109,-2.1109,-2.1109,-2.1109,-2.1109,-2.1109,-2.1109,-2.1109,-2.1109,-2.1109,-2.1109,-2.1109,-2.1109,-2.1109,-2.1109,-2.1109,-2.1109,-2.1109,-2.1109,-2.1109,-2.1109,-2.1109,-2.1109,-2.1109,-2.1109,-2.1109,-2.1109,-2.1109,-2.1109,-2.1109,-2.1109,-2.1109,-2.1109,-2.1109,-2.1109,-2.1109,-2.1109,-2.1109,-2.1109,-2.1109,-2.1109,-2.1109,-2.1109,-2.1109,-2.1109,-2.1109,-2.1109,-2.1109,-2.1109,-2.1109,-2.1109,-2.1109,-2.1109,-2.1109,-2.1109,-2.1109,-2.1109,-2.1109,-2.1109,-2.1109,-2.1109,-2.1109,-2.1109,-2.1109,-2.1109,-2.1109,-2.1109,-2.1109,-2.1109,-2.1109,-2.1109,-2.1109,-0.8635,-0.8659,-0.9096,0.0,0.0,0.0,-1.2255,-1.227,-1.1915,0.0,0.0,0.0,0.0,0.0,0.0,0.0,0.0,0.0,0.0,0.0,0.0,0.0,0.0,0.0,0.0,0.0,0.0,0.0,0.0,0.0,0.0,0.0,0.0,0.0,-2.1109,-2.1109,-2.1109,-2.1109,-2.1109,-2.1109,-2.1109,-2.1109,-2.1109,-2.1109,-2.1109,-2.1109,-2.1109,-2.1109,-2.1109,-2.1109,-2.1109,-2.1109,-2.1109,-2.1109,-2.1109,-2.1109,-2.1109,-2.1109,-2.1109,-2.1109,-2.1109,-2.1109,-2.1109,-2.1109,-2.1109,-2.1109,-2.1109,-2.1109,-2.1109,-2.1109,-2.1109,-2.1109,-2.1109,-2.1109,-2.1109,-2.1109,-2.1109,-2.1109,-2.1109,-2.1109,-2.1109,-2.1109,-2.1109,-2.1109,-2.1109,-2.1109,-2.1109,-2.1109,-2.1109,-2.1109,-2.1109,-2.1109,-2.1109,-2.1109,-2.1109,-2.1109,-2.1109,-2.1109,-2.1109,-2.1109,-2.1109,-2.1109,-2.1109,-2.1109,-2.1109,-2.1109,-2.1109,-2.1109,-2.1109,-2.1109,-2.1109,-2.1109,-0.8187,-0.8101,-0.8396,0.0,0.0,0.0,0.0,0.0,0.0,0.0,0.0,0.0,0.0,0.0,0.0,0.0,0.0,0.0,0.0,0.0,0.0,0.0,0.0,0.0,0.0,0.0,0.0,0.0,0.0,0.0,0.0,0.0,0.0,0.0,-2.1102,-2.1102,-2.1102,-2.1102,-2.1102,-2.1102,-2.1102,-2.1109,-2.1109,-2.1109,-2.1109,-2.1109,-2.1109,-2.1109,-2.1109,-2.1109,-2.1109,-2.1109,-2.1109,-2.1109,-2.1109,-2.1109,-2.1109,-2.1109,-2.1109,-2.1109,-2.1109,-2.1109,-2.1109,-2.1109,-2.1109,-2.1109,-2.1109,-2.1109,-2.1109,-2.1109,-2.1109,-2.1109,-2.1109,-2.1109,-2.1109,-2.1109,-2.1109,-2.1109,-2.1109,-2.1109,-2.1109,-2.1109,-2.1109,-2.1109,-2.1109,-2.1109,-2.1109,-2.1109,-2.1109,-2.1109,-2.1109,-2.1109,-2.1109,-2.1109,-2.1109,-2.1109,-2.1109,-2.1109,-2.1109,-2.1109,-2.1109,-2.1109,-2.1109,-2.1109,-2.1109,-2.1109,-2.1109,-2.1109,-2.1109,-2.1109,-2.1109,-2.1109,-0.8909,-0.9116,0.0,0.0,0.0,0.0,0.0,0.0,0.0,0.0,0.0,0.0,0.0,0.0,0.0,0.0,0.0,0.0,0.0,0.0,0.0,0.0,0.0,0.0,0.0,0.0,0.0,0.0,0.0,0.0,0.0,0.0,0.0,0.0,-2.0494,-2.0494,-2.0494,-2.0494,-2.0494,-2.0494,-2.0708,-2.0909,-2.1109,-2.1109,-2.1109,-2.1109,-2.1109,-2.1109,-2.1109,-2.1109,-2.1109,-2.1109,-2.1109,-2.1109,-2.1109,-2.1109,-2.1109,-2.1109,-2.1109,-2.1109,-2.1109,-2.1109,-2.1109,-2.1109,-2.1109,-2.1109,-2.1109,-2.1109,-2.1109,-2.1109,-2.1109,-2.1109,-2.1109,-2.1109,-2.1109,-2.1109,-2.1109,-2.1109,-2.1109,-2.1109,-2.1109,-2.1109,-2.1109,-2.1109,-2.1109,-2.1109,-2.1109,-2.1109,-2.1109,-2.1109,-2.1109,-2.1109,-2.1109,-2.1109,-2.1109,-2.1109,-2.1109,-2.1109,-2.1109,-2.1109,-2.1109,-2.1109,-2.1109,-2.1109,-2.1109,-2.1109,-2.1109,-2.1109,-2.1109,-2.1109,-2.1109,-2.1109,-0.8944,0.0,0.0,0.0,0.0,0.0,0.0,0.0,0.0,0.0,0.0,0.0,0.0,0.0,0.0,0.0,0.0,0.0,0.0,0.0,0.0,0.0,0.0,0.0,0.0,0.0,0.0,0.0,0.0,0.0,0.0,0.0,0.0,0.0,-2.0234,-2.0234,-2.0234,-2.0234,-2.0234,-2.0234,-2.0414,-2.0595,-2.0768,-2.1002,-2.1109,-2.1109,-2.1109,-2.1109,-2.1109,-2.1109,-2.1109,-2.1109,-2.1109,-2.1109,-2.1109,-2.1109,-2.1109,-2.1109,-2.1109,-2.1109,-2.1109,-2.1109,-2.1109,-2.1109,-2.1109,-2.1109,-2.1109,-2.1109,-2.1109,-2.1109,-2.1109,-2.1109,-2.1109,-2.1109,-2.1109,-2.1109,-2.1109,-2.1109,-2.1109,-2.1109,-2.1109,-2.1109,-2.1109,-2.1109,-2.1109,-2.1109,-2.1109,-2.1109,-2.1109,-2.1109,-2.1109,-2.1109,-2.1109,-2.1109,-2.1109,-2.1109,-2.1109,-2.1109,-2.1109,-2.1109,-2.1109,-2.1109,-2.1109,-2.1109,-2.1109,-2.1109,-2.1109,-2.1109,-2.1109,-2.1109,-2.1109,-2.1109,-0.8669,0.0,0.0,0.0,0.0,0.0,0.0,0.0,0.0,0.0,0.0,0.0,0.0,0.0,0.0,0.0,0.0,0.0,0.0,0.0,0.0,0.0,0.0,0.0,0.0,0.0,0.0,0.0,0.0,0.0,0.0,0.0,0.0,-2.0154,-2.0154,-2.0154,-2.0154,-2.0154,-2.0154,-2.0154,-2.018,-2.0194,-2.0214,-2.0775,-2.1042,-2.1069,-2.1069,-2.1082,-2.1109,-2.1109,-2.1109,-2.1109,-2.1109,-2.1109,-2.1109,-2.1109,-2.1109,-2.1109,-2.1109,-2.1109,-2.1109,-2.1109,-2.1109,-2.1109,-2.1109,-2.1109,-2.1109,-2.1109,-2.1109,-2.1109,-2.1109,-2.1109,-2.1109,-2.1109,-2.1109,-2.1109,-2.1109,-2.1109,-2.1109,-2.1109,-2.1109,-2.1109,-2.1109,-2.1109,-2.1109,-2.1109,-2.1109,-2.1109,-2.1109,-2.1109,-2.1109,-2.1109,-2.1109,-2.1109,-2.1109,-2.1109,-2.1109,-2.1109,-2.1109,-2.1109,-2.1109,-2.1109,-2.1109,-2.1109,-2.1109,-2.1109,-2.1109,-2.1109,-2.1109,-2.1109,-2.1109,-2.1109,0.0,0.0,0.0,0.0,0.0,0.0,0.0,0.0,0.0,0.0,0.0,0.0,0.0,0.0,0.0,0.0,0.0,0.0,0.0,0.0,0.0,0.0,0.0,0.0,0.0,0.0,0.0,0.0,0.0,0.0,0.0,0.0,0.0,-1.9553,-1.9553,-1.9553,-1.9553,-1.9553,-1.9553,0.0,-1.9786,-1.9893,-1.9907,-2.0261,-2.0548,-2.0768,-2.0768,-2.0902,-2.1109,-2.1109,-2.1109,-2.1109,-2.1109,-2.1109,-2.1109,-2.1109,-2.1109,-2.1109,-2.1109,-2.1109,-2.1109,-2.1109,-2.1109,-2.1109,-2.1109,-2.1109,-2.1109,-2.1109,-2.1109,-2.1109,-2.1109,-2.1109,-2.1109,-2.1109,-2.1109,-2.1109,-2.1109,-2.1109,-2.1109,-2.1109,-2.1109,-2.1109,-2.1109,-2.1109,-2.1109,-2.1109,-2.1109,-2.1109,-2.1109,-2.1109,-2.1109,-2.1109,-2.1109,-2.1109,-2.1109,-2.1109,-2.1109,-2.1109,-2.1109,-2.1109,-2.1109,-2.1109,-2.1109,-2.1109,-2.1109,-2.1109,-2.1109,-2.1109,-2.1109,-2.1109,-2.1109,-2.1109,0.0,0.0,0.0,0.0,0.0,0.0,0.0,0.0,0.0,0.0,0.0,0.0,0.0,0.0,0.0,0.0,0.0,0.0,0.0,0.0,0.0,0.0,0.0,0.0,0.0,0.0,0.0,0.0,0.0,0.0,0.0,-1.9366,-1.9366,-1.9366,-1.9366,-1.9366,-1.9366,-1.9366,-1.9366,-1.9372,-1.9519,-1.9593,-1.9606,-2.004,-2.0321,-2.0468,-2.0468,-2.0548,-2.0702,-2.0842,-2.0902,-2.0915,-2.1056,-2.1109,-2.1109,-2.1109,-2.1109,-2.1109,-2.1109,-2.1109,-2.1109,-2.1109,-2.1109,-2.1109,-2.1109,-2.1109,-2.1109,-2.1109,-2.1109,-2.1109,-2.1109,-2.1109,-2.1109,-2.1109,-2.1109,-2.1109,-2.1109,-2.1109,-2.1109,-2.1109,-2.1109,-2.1109,-2.1109,-2.1109,-2.1109,-2.1109,-2.1109,-2.1109,-2.1109,-2.1109,-2.1109,-2.1109,-2.1109,-2.1109,-2.1109,-2.1109,-2.1109,-2.1109,-2.1109,-2.1109,-2.1109,-2.1109,-2.1109,-2.1109,-2.1109,-2.1109,-2.1109,-2.1109,-2.1109,-2.1109,-2.1109,-2.1109,0.0,0.0,0.0,0.0,0.0,0.0,0.0,0.0,0.0,0.0,0.0,0.0,0.0,0.0,0.0,0.0,0.0,0.0,0.0,0.0,0.0,0.0,0.0,0.0,0.0,0.0,0.0,0.0,0.0,0.0,-1.9219,-1.9265,-1.9292,-1.9292,-1.9339,-1.9366,-1.9366,-1.9366,-1.9366,-1.9366,-1.9366,-1.9366,-1.9386,-1.9867,-2.0107,-2.0154,-2.0154,-2.0187,-2.0254,-2.0501,-2.0601,-2.0621,-2.0869,-2.0989,-2.1036,-2.1036,-2.1069,-2.1109,-2.1109,-2.1109,-2.1109,-2.1109,-2.1109,-2.1109,-2.1109,-2.1109,-2.1109,-2.1109,-2.1109,-2.1109,-2.1109,-2.1109,-2.1109,-2.1109,-2.1109,-2.1109,-2.1109,-2.1109,-2.1109,-2.1109,-2.1109,-2.1109,-2.1109,-2.1109,-2.1109,-2.1109,-2.1109,-2.1109,-2.1109,-2.1109,-2.1109,-2.1109,-2.1109,-2.1109,-2.1109,-2.1109,-2.1109,-2.1109,-2.1109,-2.1109,-2.1109,-2.1109,-2.1109,-2.1109,-2.1109,-2.1109,-2.1109,-2.1109,-2.1109,-2.1109,-2.1109,-2.1109,0.0,0.0,0.0,0.0,0.0,0.0,0.0,0.0,0.0,0.0,0.0,0.0,0.0,0.0,0.0,0.0,0.0,0.0,0.0,0.0,0.0,0.0,0.0,0.0,0.0,0.0,0.0,0.0,0.0,0.0,-1.8611,-1.8844,-1.8985,-1.8985,-1.9232,-1.9366,-1.9366,-1.9366,-1.9366,-1.9366,-1.9366,-1.9366,-1.9372,-1.9446,-1.9619,-1.986,-1.986,-2.0,-2.0234,-2.0274,-2.0294,-2.0294,-2.0334,-2.0508,-2.0735,-2.0735,-2.0895,-2.1109,-2.1109,-2.1109,-2.1109,-2.1109,-2.1109,-2.1109,-2.1109,-2.1109,-2.1109,-2.1109,-2.1109,-2.1109,-2.1109,-2.1109,-2.1109,-2.1109,-2.1109,-2.1109,-2.1109,-2.1109,-2.1109,-2.1109,-2.1109,-2.1109,-2.1109,-2.1109,-2.1109,-2.1109,-2.1109,-2.1109,-2.1109,-2.1109,-2.1109,-2.1109,-2.1109,-2.1109,-2.1109,-2.1109,-2.1109,-2.1109,-2.1109,-2.1109,-2.1109,-2.1109,-2.1109,-2.1109,-2.1109,-2.1109,-2.1109,-2.1109,-2.1109,-2.1109,-2.1109,-2.1109,0.0,0.0,0.0,0.0,0.0,0.0,0.0,0.0,0.0,0.0,0.0,0.0,0.0,0.0,0.0,0.0,0.0,0.0,0.0,0.0,0.0,0.0,0.0,0.0,0.0,0.0,0.0,0.0,0.0,-1.849,-1.849,-1.8611,-1.8684,-1.8684,-1.8811,-1.8878,-1.8878,-1.8878,-1.8958,-1.9118,-1.9285,-1.9366,-1.9366,-1.9366,-1.9432,-1.9559,-1.9559,-1.9633,-1.976,-1.992,-1.9993,-2.0007,-2.0167,-2.0314,-2.0428,-2.0428,-2.0615,-2.0869,-2.0869,-2.0969,-2.1109,-2.1109,-2.1109,-2.1109,-2.1109,-2.1109,-2.1109,-2.1109,-2.1109,-2.1109,-2.1109,-2.1109,-2.1109,-2.1109,-2.1109,-2.1109,-2.1109,-2.1109,-2.1109,-2.1109,-2.1109,-2.1109,-2.1109,-2.1109,-2.1109,-2.1109,-2.1109,-2.1109,-2.1109,-2.1109,-2.1109,-2.1109,-2.1109,-2.1109,-2.1109,-2.1109,-2.1109,-2.1109,-2.1109,-2.1109,-2.1109,-2.1109,-2.1109,-2.1109,-2.1109,-2.1109,-2.1109,-2.1109,-2.1109,-2.1109,-2.1109,-2.1109,0.0,0.0,0.0,0.0,0.0,0.0,0.0,0.0,0.0,0.0,0.0,0.0,0.0,0.0,0.0,0.0,0.0,0.0,0.0,0.0,0.0,0.0,0.0,0.0,0.0,0.0,0.0,0.0,0.0,-1.8257,-1.8257,-1.8337,-1.8377,-1.8377,-1.845,-1.849,-1.849,-1.849,-1.8597,-1.8818,-1.9112,-1.9259,-1.9259,-1.9332,-1.9366,-1.9366,-1.9366,-1.9366,-1.9386,-1.9599,-1.9693,-1.9713,-1.9927,-2.0054,-2.0127,-2.0127,-2.0307,-2.0568,-2.0568,-2.0755,-2.1002,-2.1002,-2.1049,-2.1109,-2.1109,-2.1109,-2.1109,-2.1109,-2.1109,-2.1109,-2.1109,-2.1109,-2.1109,-2.1109,-2.1109,-2.1109,-2.1109,-2.1109,-2.1109,-2.1109,-2.1109,-2.1109,-2.1109,-2.1109,-2.1109,-2.1109,-2.1109,-2.1109,-2.1109,-2.1109,-2.1109,-2.1109,-2.1109,-2.1109,-2.1109,-2.1109,-2.1109,-2.1109,-2.1109,-2.1109,-2.1109,-2.1109,-2.1109,-2.1109,-2.1109,-2.1109,-2.1109,-2.1109,-2.1109,-2.1109,-2.1109,-2.1109,0.0,0.0,0.0,0.0,0.0,0.0,0.0,0.0,0.0,0.0,0.0,0.0,0.0,0.0,0.0,0.0,0.0,0.0,0.0,0.0,0.0,0.0,0.0,0.0,0.0,0.0,0.0,0.0,0.0,-1.7629,-1.7629,-1.7909,-1.807,-1.807,-1.8343,-1.849,-1.849,-1.849,-1.8497,-1.8517,-1.8811,-1.8945,-1.8958,-1.9239,-1.9366,-1.9366,-1.9366,-1.9366,-1.9366,-1.9386,-1.9392,-1.9392,-1.9406,-1.9579,-1.982,-1.982,-2.0007,-2.0254,-2.0254,-2.0448,-2.0702,-2.0702,-2.0882,-2.1109,-2.1109,-2.1109,-2.1109,-2.1109,-2.1109,-2.1109,-2.1109,-2.1109,-2.1109,-2.1109,-2.1109,-2.1109,-2.1109,-2.1109,-2.1109,-2.1109,-2.1109,-2.1109,-2.1109,-2.1109,-2.1109,-2.1109,-2.1109,-2.1109,-2.1109,-2.1109,-2.1109,-2.1109,-2.1109,-2.1109,-2.1109,-2.1109,-2.1109,-2.1109,-2.1109,-2.1109,-2.1109,-2.1109,-2.1109,-2.1109,-2.1109,-2.1109,-2.1109,-2.1109,-2.1109,-2.1109,-2.1109,-2.1109,0.0,0.0,0.0,0.0,0.0,0.0,0.0,0.0,0.0,0.0,0.0,0.0,0.0,0.0,0.0,0.0,0.0,0.0,0.0,0.0,0.0,0.0,0.0,0.0,0.0,0.0,0.0,0.0,0.0,0.0,-1.7582,-1.7689,-1.7749,-1.7749,-1.7856,-1.7909,-1.7909,-1.8103,-1.8203,-1.821,-1.8504,-1.8644,-1.8657,-1.8951,-1.9085,-1.9092,-1.9285,-1.9366,-1.9366,-1.9366,-1.9366,-1.9366,-1.9366,-1.9432,-1.9519,-1.9519,-1.9706,-1.9953,-1.9953,-2.0147,-2.0421,-2.0615,-2.0742,-2.0869,-2.1049,-2.1109,-2.1109,-2.1109,-2.1109,-2.1109,-2.1109,-2.1109,-2.1109,-2.1109,-2.1109,-2.1109,-2.1109,-2.1109,-2.1109,-2.1109,-2.1109,-2.1109,-2.1109,-2.1109,-2.1109,-2.1109,-2.1109,-2.1109,-2.1109,-2.1109,-2.1109,-2.1109,-2.1109,-2.1109,-2.1109,-2.1109,-2.1109,-2.1109,-2.1109,-2.1109,-2.1109,-2.1109,-2.1109,-2.1109,-2.1109,-2.1109,-2.1109,-2.1109,-2.1109,-2.1109,-2.1109,-2.1109,0.0,0.0,0.0,0.0,0.0,0.0,0.0,0.0,0.0,0.0,0.0,0.0,0.0,0.0,0.0,0.0,0.0,0.0,0.0,0.0,0.0,0.0,0.0,0.0,0.0,0.0,0.0,0.0,0.0,0.0,-1.7442,-1.7528,-1.7582,-1.7582,-1.7582,-1.7582,-1.7582,-1.7789,-1.7889,-1.7896,-1.8196,-1.8343,-1.835,-1.8644,-1.8778,-1.8791,-1.9092,-1.9279,-1.9366,-1.9366,-1.9366,-1.9366,-1.9366,-1.9366,-1.9366,-1.9366,-1.9492,-1.9659,-1.9659,-1.9846,-2.012,-2.0321,-2.0448,-2.0581,-2.0875,-2.0962,-2.0982,-2.1082,-2.1109,-2.1109,-2.1109,-2.1109,-2.1109,-2.1109,-2.1109,-2.1109,-2.1109,-2.1109,-2.1109,-2.1109,-2.1109,-2.1109,-2.1109,-2.1109,-2.1109,-2.1109,-2.1109,-2.1109,-2.1109,-2.1109,-2.1109,-2.1109,-2.1109,-2.1109,-2.1109,-2.1109,-2.1109,-2.1109,-2.1109,-2.1109,-2.1109,-2.1109,-2.1109,-2.1109,-2.1109,-2.1109,-2.1109,-2.1109,-2.1109,-2.1109,-2.1109,-2.1109,0.0,0.0,0.0,0.0,0.0,0.0,0.0,0.0,0.0,0.0,0.0,0.0,0.0,0.0,0.0,0.0,0.0,0.0,0.0,0.0,0.0,0.0,0.0,0.0,0.0,0.0,0.0,0.0,0.0,-1.7237,-1.7237,-1.7415,-1.7569,-1.7569,-1.7582,-1.7582,-1.7582,-1.7582,-1.7582,-1.7589,-1.7889,-1.8029,-1.8043,-1.8343,-1.8477,-1.8497,-1.8784,-1.9078,-1.9359,-1.9366,-1.9366,-1.9366,-1.9366,-1.9366,-1.9366,-1.9366,-1.9366,-1.9366,-1.9366,-1.9553,-1.9786,-1.98,-1.9993,-2.0274,-2.0575,-2.0661,-2.0722,-2.1002,-2.1089,-2.1096,-2.1109,-2.1109,-2.1109,-2.1109,-2.1109,-2.1109,-2.1109,-2.1109,-2.1109,-2.1109,-2.1109,-2.1109,-2.1109,-2.1109,-2.1109,-2.1109,-2.1109,-2.1109,-2.1109,-2.1109,-2.1109,-2.1109,-2.1109,-2.1109,-2.1109,-2.1109,-2.1109,-2.1109,-2.1109,-2.1109,-2.1109,-2.1109,-2.1109,-2.1109,-2.1109,-2.1109,-2.1109,-2.1109,-2.1109,-2.1109,-2.1109,-2.1109,-0.7963,0.0,0.0,0.0,0.0,0.0,0.0,0.0,0.0,0.0,0.0,0.0,0.0,0.0,0.0,0.0,0.0,0.0,0.0,0.0,0.0,0.0,0.0,0.0,0.0,0.0,0.0,0.0,-1.678,-1.6827,-1.6827,-1.7108,-1.7268,-1.7268,-1.7475,-1.7582,-1.7582,-1.7582,-1.7582,-1.7582,-1.7669,-1.7709,-1.7722,-1.8029,-1.817,-1.819,-1.8484,-1.8778,-1.9065,-1.9279,-1.9366,-1.9366,-1.9366,-1.9366,-1.9366,-1.9366,-1.9366,-1.9366,-1.9366,-1.9419,-1.9519,-1.9733,-1.9853,-1.9973,-2.0267,-2.0354,-2.0374,-2.0454,-2.0628,-2.0848,-2.1056,-2.1109,-2.1109,-2.1109,-2.1109,-2.1109,-2.1109,-2.1109,-2.1109,-2.1109,-2.1109,-2.1109,-2.1109,-2.1109,-2.1109,-2.1109,-2.1109,-2.1109,-2.1109,-2.1109,-2.1109,-2.1109,-2.1109,-2.1109,-2.1109,-2.1109,-2.1109,-2.1109,-2.1109,-2.1109,-2.1109,-2.1109,-2.1109,-2.1109,-2.1109,-2.1109,-2.1109,-2.1109,-2.1109,-2.1109,-2.1109,-2.1109,-0.8377,-0.8637,0.0,0.0,0.0,0.0,0.0,0.0,0.0,0.0,0.0,0.0,0.0,0.0,0.0,0.0,0.0,0.0,0.0,0.0,0.0,0.0,0.0,0.0,0.0,0.0,0.0,-1.6339,-1.6453,-1.658,-1.67,-1.6867,-1.6967,-1.6967,-1.7128,-1.7275,-1.7402,-1.7402,-1.7462,-1.7582,-1.7582,-1.7582,-1.7589,-1.7769,-1.7856,-1.7869,-1.8176,-1.8404,-1.8577,-1.8878,-1.9145,-1.9366,-1.9366,-1.9366,-1.9366,-1.9366,-1.9366,-1.9366,-1.9366,-1.9366,-1.9399,-1.9566,-1.9619,-1.9673,-1.9967,-2.0054,-2.008,-2.0201,-2.0361,-2.0535,-2.0702,-2.0742,-2.0775,-2.0902,-2.0929,-2.0962,-2.1082,-2.1109,-2.1109,-2.1109,-2.1109,-2.1109,-2.1109,-2.1109,-2.1109,-2.1109,-2.1109,-2.1109,-2.1109,-2.1109,-2.1109,-2.1109,-2.1109,-2.1109,-2.1109,-2.1109,-2.1109,-2.1109,-2.1109,-2.1109,-2.1109,-2.1109,-2.1109,-2.1109,-2.1109,-2.1109,-2.1109,-2.1109,-2.1109,-2.1109,-2.1109,-2.1109,-0.9078,-0.9192,0.0,0.0,0.0,0.0,-1.0875,-1.0808,0.0,0.0,0.0,0.0,0.0,0.0,0.0,0.0,0.0,0.0,0.0,0.0,0.0,0.0,0.0,0.0,0.0,-1.5832,-1.5832,-1.5832,-1.6072,-1.6339,-1.6593,-1.664,-1.666,-1.666,-1.6687,-1.6834,-1.7094,-1.7101,-1.7248,-1.7535,-1.7535,-1.7549,-1.7582,-1.7582,-1.7582,-1.7595,-1.7876,-1.8016,-1.807,-1.833,-1.8784,-1.9319,-1.9319,-1.9339,-1.9366,-1.9366,-1.9366,-1.9366,-1.9366,-1.9366,-1.9366,-1.9366,-1.9366,-1.9412,-1.9673,-1.9753,-1.9813,-2.01,-2.0187,-2.0194,-2.0227,-2.0234,-2.0301,-2.0568,-2.0628,-2.0695,-2.0955,-2.1009,-2.1009,-2.1009,-2.1062,-2.1109,-2.1109,-2.1109,-2.1109,-2.1109,-2.1109,-2.1109,-2.1109,-2.1109,-2.1109,-2.1109,-2.1109,-2.1109,-2.1109,-2.1109,-2.1109,-2.1109,-2.1109,-2.1109,-2.1109,-2.1109,-2.1109,-2.1109,-2.1109,-2.1109,-2.1109,-2.1109,-2.1109,-2.1109,-2.1109,-2.1109,-1.0294,-1.0261,-1.0227,-0.9927,0.0,0.0,0.0,-0.9773,0.0,0.0,0.0,0.0,0.0,0.0,0.0,0.0,0.0,0.0,0.0,0.0,0.0,0.0,0.0,0.0,0.0,-1.5832,-1.5832,-1.5832,-1.5885,-1.5939,-1.5999,-1.6226,-1.6359,-1.6359,-1.6587,-1.6734,-1.6794,-1.6794,-1.6941,-1.7235,-1.7235,-1.7355,-1.7582,-1.7582,-1.7582,-1.7589,-1.7649,-1.7816,-1.805,-1.811,-1.8477,-1.9011,-1.9011,-1.9158,-1.9366,-1.9366,-1.9366,-1.9366,-1.9366,-1.9366,-1.9366,-1.9366,-1.9366,-1.9379,-1.9432,-1.9452,-1.9512,-1.9806,-1.9887,-1.994,-2.0174,-2.0234,-2.0247,-2.0307,-2.0321,-2.0334,-2.0388,-2.0408,-2.0408,-2.0408,-2.0782,-2.1109,-2.1109,-2.1109,-2.1109,-2.1109,-2.1109,-2.1109,-2.1109,-2.1109,-2.1109,-2.1109,-2.1109,-2.1109,-2.1109,-2.1109,-2.1109,-2.1109,-2.1109,-2.1109,-2.1109,-2.1109,-2.1109,-2.1109,-2.1109,-2.1109,-2.1109,-2.1109,-2.1109,-2.1109,-2.1109,-2.1109,-1.0895,-1.0775,-1.0742,-1.0595,0.0,0.0,0.0,0.0,0.0,0.0,0.0,0.0,0.0,0.0,0.0,0.0,0.0,0.0,0.0,0.0,0.0,0.0,0.0,0.0,0.0,-1.5745,-1.5832,-1.5832,-1.5832,-1.5832,-1.5832,-1.5972,-1.6052,-1.6052,-1.6192,-1.6339,-1.6486,-1.6486,-1.664,-1.6927,-1.6927,-1.7081,-1.7368,-1.7368,-1.7442,-1.7582,-1.7582,-1.7669,-1.7816,-1.7816,-1.8076,-1.8497,-1.8651,-1.8885,-1.9145,-1.9145,-1.9239,-1.9366,-1.9366,-1.9366,-1.9366,-1.9366,-1.9366,-1.9366,-1.9366,-1.9366,-1.9399,-1.9546,-1.9586,-1.9619,-1.9766,-1.98,-1.9833,-1.9987,-2.0013,-2.0054,-2.0201,-2.0234,-2.0234,-2.0234,-2.0468,-2.0722,-2.0869,-2.1009,-2.1109,-2.1109,-2.1109,-2.1109,-2.1109,-2.1109,-2.1109,-2.1109,-2.1109,-2.1109,-2.1109,-2.1109,-2.1109,-2.1109,-2.1109,-2.1109,-2.1109,-2.1109,-2.1109,-2.1109,-2.1109,-2.1109,-2.1109,-2.1109,-2.1109,-2.1109,-2.1109,-2.1109,0.0,0.0,0.0,0.0,0.0,-1.1015,0.0,0.0,0.0,-1.0935,0.0,0.0,0.0,0.0,0.0,0.0,0.0,0.0,0.0,0.0,0.0,0.0,0.0,0.0,0.0,-1.5337,-1.5498,-1.5732,-1.5591,-1.5591,-1.5818,-1.5832,-1.5832,-1.5832,-1.5832,-1.5945,-1.6186,-1.6186,-1.6333,-1.662,-1.662,-1.678,-1.7068,-1.7121,-1.7275,-1.7502,-1.7555,-1.7582,-1.7582,-1.7582,-1.7729,-1.7989,-1.829,-1.8584,-1.8838,-1.8838,-1.9032,-1.9279,-1.9279,-1.9319,-1.9366,-1.9366,-1.9366,-1.9366,-1.9366,-1.9366,-1.9366,-1.9366,-1.9366,-1.9366,-1.9366,-1.9366,-1.9426,-1.9659,-1.972,-1.978,-2.0013,-2.0067,-2.0067,-2.0067,-2.0107,-2.0241,-2.0541,-2.0788,-2.0942,-2.0942,-2.0989,-2.1029,-2.1029,-2.1076,-2.1109,-2.1109,-2.1109,-2.1089,-2.1029,-2.1029,-2.1002,-2.0942,-2.0942,-2.0942,-2.0942,-2.0995,-2.1049,-2.1109,-2.1109,-2.1109,-2.1109,-2.1109,-2.1109,-2.1109,-2.1109,-2.1109,0.0,0.0,0.0,0.0,-1.2171,0.0,0.0,0.0,-1.0661,-1.0013,0.0,0.0,0.0,0.0,0.0,0.0,0.0,0.0,0.0,0.0,0.0,0.0,0.0,0.0,0.0,0.0,-1.4322,-1.5364,-1.4723,-1.4736,-1.5772,-1.5832,-1.5832,-1.5832,-1.5832,-1.5845,-1.5879,-1.5879,-1.6025,-1.6326,-1.6326,-1.6473,-1.6767,-1.7027,-1.7271,-1.7215,-1.7468,-1.7582,-1.7582,-1.7582,-1.7602,-1.7662,-1.7976,-1.8277,-1.8544,-1.8544,-1.8724,-1.8978,-1.8978,-1.9145,-1.9366,-1.9366,-1.9366,-1.9366,-1.9366,-1.9366,-1.9366,-1.9366,-1.9366,-1.9366,-1.9366,-1.9366,-1.9372,-1.9406,-1.9419,-1.9426,-1.9459,-1.9466,-1.9466,-1.9466,-1.9673,-1.994,-2.0234,-2.0307,-2.0334,-2.0334,-2.0555,-2.0728,-2.0728,-2.0949,-2.1109,-2.1109,-2.1109,-2.1002,-2.0748,-2.0728,-2.0615,-2.0347,-2.0334,-2.0334,-2.0334,-2.0588,-2.0848,-2.1109,-2.1109,-2.1109,-2.1109,-2.1109,-2.1109,-2.1109,-2.1109,-2.1109,0.0,0.0,0.0,0.0,0.0,0.0,-1.0995,0.0,-1.0528,0.0,0.0,0.0,0.0,0.0,0.0,0.0,0.0,0.0,0.0,0.0,0.0,0.0,0.0,0.0,0.0,0.0,0.0,0.0,0.0,-1.4269,-1.5271,-1.5484,-1.5658,-1.5825,-1.5832,-1.5832,-1.5832,-1.5832,-1.5892,-1.6012,-1.6012,-1.6172,-1.646,-1.658,-1.6827,-1.7257,-1.7281,-1.7428,-1.7582,-1.7582,-1.7582,-1.7595,-1.7722,-1.7963,-1.823,-1.823,-1.8417,-1.8698,-1.8865,-1.9005,-1.9138,-1.9312,-1.9366,-1.9366,-1.9366,-1.9366,-1.9366,-1.9366,-1.9366,-1.9366,-1.9366,-1.9366,-1.9366,-1.9366,-1.9366,-1.9366,-1.9366,-1.9366,-1.9366,-1.9366,-1.9466,-1.9586,-1.9713,-2.0007,-2.0234,-2.0234,-2.0341,-2.0421,-2.0421,-2.0528,-2.0601,-2.0601,-2.0601,-2.0548,-2.0428,-2.0421,-2.0368,-2.0241,-2.0234,-2.0234,-2.0234,-2.0514,-2.0655,-2.0601,-2.0768,-2.0855,-2.0855,-2.0855,-2.0942,-2.1109,-2.1109,-2.1109,-1.3554,0.0,0.0,0.0,0.0,0.0,0.0,0.0,0.0,0.0,0.0,0.0,0.0,0.0,0.0,0.0,0.0,0.0,0.0,0.0,0.0,0.0,0.0,0.0,0.0,0.0,0.0,0.0,0.0,0.0,-1.4897,-1.5164,-1.5444,-1.5818,-1.5832,-1.5832,-1.5832,-1.5832,-1.5832,-1.5832,-1.5832,-1.5945,-1.6152,-1.6239,-1.6506,-1.6921,-1.7081,-1.7268,-1.7468,-1.7549,-1.7582,-1.7582,-1.7582,-1.7722,-1.7916,-1.7916,-1.811,-1.8397,-1.8611,-1.8791,-1.8971,-1.9272,-1.9366,-1.9366,-1.9366,-1.9366,-1.9366,-1.9366,-1.9366,-1.9366,-1.9366,-1.9366,-1.9366,-1.9366,-1.9366,-1.9366,-1.9366,-1.9366,-1.9366,-1.9366,-1.9366,-1.9366,-1.9366,-1.972,-1.9993,-1.9993,-2.006,-2.0114,-2.0114,-2.018,-2.0234,-2.0234,-2.0234,-2.0201,-2.012,-2.0114,-2.008,-2.0,-1.9993,-2.0034,-2.0107,-2.0321,-2.0374,-2.0234,-2.0441,-2.0555,-2.0555,-2.0555,-2.0661,-2.0875,-2.1029,-2.1109,0.0,0.0,0.0,-1.2752,0.0,0.0,0.0,0.0,-1.1663,0.0,0.0,0.0,0.0,0.0,-1.0768,-1.0207,0.0,0.0,0.0,0.0,0.0,0.0,0.0,0.0,0.0,0.0,0.0,0.0,0.0,0.0,-1.4836,-1.497,-1.5237,-1.5812,-1.5832,-1.5832,-1.5832,-1.5832,-1.5832,-1.5832,-1.5832,-1.5832,-1.5852,-1.6139,-1.6286,-1.6333,-1.6901,-1.7154,-1.7188,-1.7468,-1.7582,-1.7582,-1.7582,-1.7589,-1.7595,-1.7595,-1.7796,-1.8063,-1.807,-1.845,-1.8971,-1.9272,-1.9366,-1.9366,-1.9366,-1.9366,-1.9366,-1.9366,-1.9366,-1.9366,-1.9366,-1.9366,-1.9366,-1.9366,-1.9366,-1.9366,-1.9366,-1.9366,-1.9366,-1.9366,-1.9366,-1.9366,-1.9366,-1.9379,-1.9399,-1.9399,-1.9633,-1.9813,-1.9813,-2.006,-2.0234,-2.0234,-2.0234,-2.0114,-1.9833,-1.9813,-1.9693,-1.9412,-1.9399,-1.9519,-1.9806,-1.982,-1.9953,-2.0227,-2.0241,-2.0247,-2.0247,-2.0247,-2.0254,-2.0274,-2.0842,-2.1109,0.0,0.0,-1.4923,-1.3534,0.0,0.0,0.0,0.0,0.0,0.0,0.0,0.0,0.0,0.0,-1.0868,-1.0474,-1.0087,0.0,0.0,0.0,0.0,0.0,0.0,0.0,0.0,0.0,0.0,0.0,0.0,0.0,0.0,-1.4643,-1.5137,-1.5531,-1.5732,-1.5832,-1.5832,-1.5832,-1.5832,-1.5832,-1.5832,-1.5832,-1.5832,-1.5932,-1.6086,-1.6286,-1.6486,-1.6794,-1.7257,-1.7255,-1.7408,-1.7582,-1.7582,-1.7582,-1.7582,-1.7582,-1.7649,-1.7769,-1.7976,-1.8303,-1.8684,-1.8978,-1.9078,-1.9112,-1.9305,-1.9366,-1.9366,-1.9366,-1.9366,-1.9366,-1.9366,-1.9366,-1.9366,-1.9366,-1.9366,-1.9366,-1.9366,-1.9366,-1.9366,-1.9366,-1.9366,-1.9366,-1.9366,-1.9366,-1.9366,-1.9366,-1.9452,-1.9512,-1.9512,-1.9599,-1.9659,-1.9659,-1.9659,-1.9619,-1.9519,-1.9512,-1.9472,-1.9372,-1.9366,-1.9412,-1.9506,-1.97,-1.976,-1.9659,-1.9846,-1.9947,-1.9947,-1.9947,-2.0047,-2.0234,-2.0434,-2.0528,-1.5023,-1.5177,0.0,-1.4068,-1.3661,0.0,-1.2011,0.0,0.0,0.0,0.0,0.0,0.0,0.0,0.0,-1.0915,-1.0287,-0.9666,0.0,0.0,0.0,0.0,0.0,0.0,0.0,0.0,-1.0414,-1.1209,0.0,0.0,0.0,0.0,-1.4883,-1.5384,-1.5678,-1.5832,-1.5832,-1.5832,-1.5832,-1.5832,-1.5832,-1.5832,-1.5832,-1.5832,-1.5932,-1.6119,-1.6226,-1.6486,-1.6854,-1.7061,-1.7261,-1.7442,-1.7542,-1.7582,-1.7582,-1.7582,-1.7582,-1.7622,-1.7943,-1.817,-1.8384,-1.8671,-1.8838,-1.8958,-1.9152,-1.9285,-1.9366,-1.9366,-1.9366,-1.9366,-1.9366,-1.9366,-1.9366,-1.9366,-1.9366,-1.9366,-1.9366,-1.9366,-1.9366,-1.9366,-1.9366,-1.9366,-1.9366,-1.9366,-1.9366,-1.9366,-1.9366,-1.9366,-1.9366,-1.9366,-1.9366,-1.9366,-1.9366,-1.9366,-1.9366,-1.9366,-1.9366,-1.9366,-1.9366,-1.9366,-1.9366,-1.9546,-1.9559,-1.9372,-1.9553,-1.9646,-1.9646,-1.9646,-1.974,-1.9927,-1.9927,-1.9927]},{"header":{"parameterUnit":"m.s-1","parameterCategory":1,"la1":30.6,"la2":29.2853,"lo1":-89.7004,"lo2":-87.6739,"dy":0.0162,"dx":0.0183,"nx":112,"ny":82,"refTime":"2024-06-22T18:00:00:Z","depth":0,"parameterNumber":3,"parameterNumberName":"V-component_of_WINDS"},"data":[0.0,0.0,0.0,0.0,0.0,0.0,0.0,0.0,0.0,0.0,0.0,0.0,0.0,0.0,0.0,0.0,0.0,0.0,0.0,0.0,0.0,0.0,0.0,0.0,0.0,0.0,0.0,0.0,0.0,0.0,0.0,0.0,0.0,0.0,0.0,0.0,0.0,0.0,0.0,0.0,0.0,0.0,0.0,0.0,0.0,0.0,0.0,0.0,0.0,0.0,0.0,0.0,0.0,0.0,0.0,0.0,0.0,0.0,0.0,0.0,0.0,0.0,0.0,0.0,0.0,0.0,0.0,0.0,0.0,0.0,0.0,0.0,0.0,0.0,0.0,0.0,0.0,0.0,0.0,0.0,0.0,0.0,0.0,0.0,0.0,0.0,0.0,0.0,0.0,0.0,0.0,-3.4321,-3.867,-4.0965,-4.0139,-3.9239,-3.6321,-3.0742,0.0,0.0,0.0,0.0,0.0,0.0,0.0,0.0,0.0,0.0,0.0,0.0,0.0,0.0,0.0,0.0,0.0,0.0,0.0,0.0,0.0,0.0,0.0,0.0,0.0,0.0,0.0,0.0,0.0,0.0,0.0,0.0,0.0,0.0,0.0,0.0,0.0,0.0,0.0,0.0,0.0,0.0,0.0,0.0,0.0,0.0,0.0,0.0,0.0,0.0,0.0,0.0,0.0,0.0,0.0,0.0,0.0,0.0,0.0,0.0,0.0,0.0,0.0,0.0,0.0,0.0,0.0,0.0,0.0,0.0,0.0,0.0,0.0,0.0,0.0,0.0,0.0,0.0,0.0,0.0,0.0,0.0,0.0,0.0,0.0,0.0,0.0,0.0,0.0,0.0,0.0,0.0,0.0,0.0,0.0,0.0,0.0,0.0,0.0,0.0,0.0,0.0,0.0,0.0,-3.1568,-3.8248,-4.0855,-4.1791,-4.1001,-3.9551,-3.656,-3.1531,0.0,0.0,0.0,0.0,0.0,0.0,0.0,0.0,0.0,0.0,0.0,0.0,0.0,0.0,0.0,0.0,0.0,0.0,0.0,0.0,0.0,0.0,0.0,0.0,0.0,0.0,0.0,0.0,0.0,0.0,0.0,0.0,0.0,0.0,0.0,0.0,0.0,0.0,0.0,0.0,0.0,0.0,0.0,0.0,0.0,0.0,0.0,0.0,0.0,0.0,0.0,0.0,0.0,0.0,0.0,0.0,0.0,0.0,0.0,0.0,0.0,0.0,0.0,0.0,0.0,0.0,0.0,0.0,0.0,0.0,0.0,0.0,0.0,0.0,0.0,0.0,0.0,0.0,0.0,0.0,0.0,0.0,0.0,0.0,0.0,0.0,0.0,0.0,0.0,0.0,0.0,0.0,0.0,0.0,0.0,0.0,0.0,0.0,0.0,0.0,0.0,0.0,0.0,-3.1072,-3.4367,-3.9974,-4.1992,-4.2451,-4.1222,-3.9643,-3.6615,-3.1696,-2.8723,0.0,0.0,0.0,0.0,0.0,0.0,0.0,0.0,0.0,0.0,0.0,0.0,0.0,0.0,0.0,0.0,0.0,0.0,0.0,0.0,0.0,0.0,0.0,0.0,0.0,0.0,0.0,0.0,0.0,0.0,0.0,0.0,0.0,0.0,0.0,0.0,0.0,0.0,0.0,0.0,0.0,0.0,0.0,0.0,0.0,0.0,0.0,0.0,0.0,0.0,0.0,0.0,0.0,0.0,0.0,0.0,0.0,0.0,0.0,0.0,0.0,0.0,0.0,0.0,0.0,0.0,0.0,0.0,0.0,0.0,0.0,0.0,0.0,0.0,0.0,0.0,0.0,0.0,0.0,0.0,0.0,0.0,0.0,0.0,0.0,0.0,0.0,0.0,0.0,0.0,0.0,0.0,0.0,0.0,0.0,0.0,0.0,0.0,0.0,0.0,0.0,0.0,-3.478,-3.7239,-4.0744,-4.2543,-4.2837,-4.1258,-3.9294,-3.6211,-3.1678,-2.8026,0.0,0.0,0.0,0.0,0.0,0.0,0.0,0.0,0.0,0.0,0.0,0.0,0.0,0.0,0.0,0.0,0.0,0.0,0.0,0.0,0.0,0.0,0.0,0.0,0.0,0.0,0.0,0.0,0.0,0.0,0.0,0.0,0.0,0.0,0.0,0.0,0.0,0.0,0.0,0.0,0.0,0.0,0.0,0.0,0.0,0.0,0.0,0.0,0.0,0.0,0.0,0.0,0.0,0.0,0.0,0.0,0.0,0.0,0.0,0.0,0.0,0.0,0.0,0.0,0.0,0.0,0.0,0.0,0.0,0.0,0.0,0.0,0.0,0.0,0.0,0.0,0.0,0.0,0.0,0.0,0.0,0.0,0.0,0.0,0.0,0.0,0.0,0.0,0.0,0.0,0.0,0.0,0.0,0.0,0.0,0.0,0.0,0.0,0.0,0.0,0.0,0.0,-3.5587,-3.9129,-4.0928,-4.2543,-4.2837,-4.1258,-3.8248,-3.5018,-3.1604,-2.6979,0.0,0.0,0.0,0.0,0.0,0.0,0.0,0.0,0.0,0.0,0.0,0.0,0.0,0.0,0.0,0.0,0.0,0.0,0.0,0.0,0.0,0.0,0.0,0.0,0.0,0.0,0.0,0.0,0.0,0.0,0.0,0.0,0.0,0.0,0.0,0.0,0.0,0.0,0.0,0.0,0.0,0.0,0.0,0.0,0.0,0.0,0.0,0.0,0.0,0.0,0.0,0.0,0.0,0.0,0.0,0.0,0.0,0.0,0.0,0.0,0.0,0.0,0.0,0.0,0.0,0.0,0.0,0.0,0.0,0.0,0.0,0.0,0.0,0.0,0.0,0.0,0.0,0.0,0.0,0.0,0.0,0.0,0.0,0.0,0.0,0.0,0.0,0.0,0.0,0.0,0.0,0.0,0.0,0.0,0.0,0.0,0.0,0.0,0.0,0.0,0.0,0.0,-3.555,-3.8946,0.0,-4.2837,-4.2837,-4.1258,-3.9074,-3.5973,-3.1659,0.0,0.0,0.0,0.0,0.0,0.0,0.0,0.0,0.0,0.0,0.0,0.0,0.0,0.0,0.0,0.0,0.0,0.0,0.0,0.0,0.0,0.0,0.0,0.0,0.0,0.0,0.0,0.0,0.0,0.0,0.0,0.0,0.0,0.0,0.0,0.0,0.0,0.0,0.0,0.0,0.0,0.0,0.0,0.0,0.0,0.0,0.0,0.0,0.0,0.0,0.0,0.0,0.0,0.0,0.0,0.0,0.0,0.0,0.0,0.0,0.0,0.0,0.0,0.0,0.0,0.0,0.0,0.0,0.0,0.0,0.0,0.0,0.0,0.0,0.0,0.0,0.0,0.0,0.0,0.0,0.0,0.0,0.0,0.0,0.0,0.0,0.0,0.0,0.0,0.0,0.0,0.0,0.0,0.0,0.0,0.0,0.0,0.0,0.0,0.0,0.0,0.0,-3.2045,-3.5899,-3.9294,0.0,-4.302,-4.2837,-4.1258,-3.9166,-3.6064,-3.1678,0.0,0.0,0.0,0.0,0.0,0.0,0.0,0.0,0.0,0.0,0.0,0.0,0.0,0.0,0.0,0.0,0.0,0.0,0.0,0.0,0.0,0.0,0.0,0.0,0.0,0.0,0.0,0.0,0.0,0.0,0.0,0.0,0.0,0.0,0.0,0.0,0.0,0.0,0.0,0.0,0.0,0.0,0.0,0.0,0.0,0.0,0.0,0.0,0.0,0.0,0.0,0.0,0.0,0.0,0.0,0.0,0.0,0.0,0.0,0.0,0.0,0.0,0.0,0.0,0.0,0.0,0.0,0.0,0.0,0.0,0.0,0.0,0.0,0.0,0.0,0.0,0.0,0.0,0.0,0.0,0.0,0.0,0.0,0.0,0.0,0.0,0.0,0.0,0.0,0.0,0.0,0.0,0.0,0.0,0.0,0.0,0.0,0.0,0.0,0.0,0.0,0.0,-3.221,-3.689,-4.0524,-4.2139,-4.302,-4.2837,-4.1258,-3.8175,-3.4908,0.0,0.0,0.0,0.0,0.0,0.0,0.0,0.0,0.0,0.0,0.0,0.0,0.0,0.0,0.0,0.0,0.0,0.0,0.0,0.0,0.0,0.0,0.0,0.0,0.0,0.0,0.0,0.0,0.0,0.0,0.0,0.0,0.0,0.0,0.0,0.0,0.0,0.0,0.0,0.0,0.0,0.0,0.0,0.0,0.0,0.0,0.0,0.0,0.0,0.0,0.0,0.0,0.0,0.0,0.0,0.0,0.0,0.0,0.0,0.0,0.0,0.0,0.0,0.0,0.0,0.0,0.0,0.0,0.0,0.0,0.0,0.0,0.0,0.0,0.0,0.0,0.0,0.0,0.0,0.0,0.0,0.0,0.0,0.0,0.0,0.0,0.0,0.0,0.0,0.0,0.0,0.0,0.0,0.0,0.0,0.0,0.0,0.0,0.0,0.0,0.0,0.0,0.0,-3.3036,-3.7734,-4.1368,-4.2965,-4.3351,-4.2837,-4.1258,-3.9203,-3.6101,-3.1678,0.0,0.0,0.0,0.0,0.0,0.0,0.0,0.0,0.0,0.0,0.0,0.0,0.0,0.0,0.0,0.0,0.0,0.0,0.0,0.0,0.0,0.0,0.0,0.0,0.0,0.0,0.0,0.0,0.0,0.0,0.0,0.0,0.0,0.0,0.0,0.0,0.0,0.0,0.0,0.0,0.0,0.0,0.0,0.0,0.0,0.0,0.0,0.0,0.0,0.0,0.0,0.0,0.0,0.0,0.0,0.0,0.0,0.0,0.0,0.0,0.0,0.0,0.0,0.0,0.0,0.0,0.0,0.0,0.0,0.0,0.0,0.0,0.0,0.0,0.0,0.0,0.0,0.0,0.0,0.0,0.0,0.0,0.0,0.0,0.0,0.0,0.0,0.0,0.0,0.0,0.0,0.0,0.0,0.0,0.0,0.0,0.0,0.0,0.0,0.0,0.0,0.0,-3.3385,-3.8083,-4.1735,-4.3314,-4.3497,-4.2983,-4.1699,-4.0102,-3.7221,-3.2651,0.0,0.0,0.0,0.0,0.0,0.0,0.0,0.0,0.0,0.0,0.0,0.0,0.0,0.0,0.0,0.0,0.0,0.0,0.0,0.0,0.0,0.0,0.0,0.0,0.0,0.0,0.0,0.0,0.0,0.0,0.0,0.0,0.0,0.0,0.0,0.0,0.0,0.0,0.0,0.0,0.0,0.0,0.0,0.0,0.0,0.0,0.0,0.0,0.0,0.0,0.0,0.0,0.0,0.0,0.0,0.0,0.0,0.0,0.0,0.0,0.0,0.0,0.0,0.0,0.0,0.0,0.0,0.0,0.0,0.0,0.0,0.0,0.0,0.0,0.0,0.0,0.0,0.0,0.0,0.0,0.0,0.0,0.0,0.0,0.0,0.0,0.0,0.0,0.0,0.0,0.0,0.0,0.0,0.0,0.0,0.0,0.0,0.0,0.0,0.0,0.0,0.0,-3.3513,-3.8193,-4.1809,-4.3332,-4.3497,-4.3167,-4.2378,-4.0818,-3.8175,-3.4174,0.0,0.0,0.0,0.0,0.0,0.0,0.0,0.0,0.0,0.0,0.0,0.0,0.0,0.0,0.0,0.0,0.0,0.0,0.0,0.0,0.0,0.0,0.0,0.0,0.0,0.0,0.0,0.0,0.0,0.0,0.0,0.0,0.0,0.0,0.0,0.0,0.0,0.0,0.0,0.0,0.0,0.0,0.0,0.0,0.0,0.0,0.0,0.0,0.0,0.0,0.0,0.0,0.0,0.0,0.0,0.0,0.0,0.0,0.0,0.0,-2.8907,0.0,0.0,0.0,0.0,0.0,0.0,0.0,0.0,0.0,0.0,0.0,0.0,0.0,0.0,0.0,0.0,0.0,0.0,0.0,0.0,0.0,0.0,0.0,0.0,0.0,0.0,0.0,0.0,0.0,0.0,0.0,0.0,0.0,0.0,0.0,0.0,0.0,0.0,0.0,0.0,0.0,-3.4403,-3.9038,-4.2415,-4.3387,-4.3497,-4.3167,-4.2378,-4.0818,-3.8414,-3.4954,-3.098,0.0,0.0,0.0,0.0,0.0,0.0,0.0,0.0,0.0,0.0,0.0,0.0,0.0,0.0,0.0,0.0,0.0,0.0,0.0,0.0,0.0,0.0,0.0,0.0,0.0,0.0,0.0,0.0,0.0,0.0,0.0,0.0,0.0,0.0,0.0,0.0,0.0,0.0,0.0,0.0,0.0,0.0,0.0,0.0,0.0,0.0,0.0,0.0,0.0,0.0,0.0,0.0,0.0,0.0,0.0,0.0,0.0,0.0,0.0,0.0,-3.1376,0.0,0.0,0.0,0.0,0.0,0.0,0.0,0.0,0.0,0.0,0.0,0.0,0.0,0.0,0.0,0.0,0.0,0.0,0.0,0.0,0.0,0.0,0.0,0.0,0.0,0.0,0.0,0.0,0.0,0.0,0.0,0.0,0.0,0.0,0.0,0.0,0.0,0.0,0.0,0.0,-3.5257,-3.9533,-4.2598,-4.3406,-4.3497,-4.3314,-4.291,-4.1754,-3.9827,-3.6964,-3.3348,0.0,0.0,0.0,0.0,0.0,0.0,0.0,0.0,0.0,0.0,0.0,0.0,0.0,0.0,0.0,0.0,0.0,0.0,0.0,0.0,0.0,0.0,0.0,0.0,0.0,0.0,0.0,0.0,0.0,0.0,0.0,0.0,0.0,0.0,0.0,0.0,0.0,0.0,0.0,0.0,0.0,0.0,0.0,0.0,0.0,0.0,0.0,0.0,0.0,0.0,0.0,0.0,0.0,-3.8858,-3.9905,-4.1292,-4.1415,-4.1644,-4.1792,-3.8376,-3.6956,-3.6819,0.0,0.0,0.0,0.0,0.0,0.0,0.0,0.0,0.0,0.0,0.0,0.0,0.0,0.0,0.0,0.0,0.0,0.0,0.0,0.0,0.0,0.0,0.0,0.0,0.0,-4.0326,-4.008,0.0,0.0,0.0,0.0,0.0,0.0,0.0,0.0,0.0,0.0,0.0,0.0,-3.6303,-4.0102,-4.2763,-4.3424,-4.3497,-4.3497,-4.3497,-4.2763,-4.1387,-3.9258,-3.6046,-3.2687,0.0,0.0,0.0,0.0,0.0,0.0,0.0,0.0,0.0,0.0,0.0,0.0,0.0,0.0,0.0,0.0,0.0,0.0,0.0,0.0,0.0,0.0,0.0,0.0,0.0,0.0,0.0,0.0,0.0,0.0,0.0,0.0,-2.6599,-2.7929,0.0,0.0,0.0,0.0,0.0,0.0,0.0,0.0,0.0,0.0,0.0,0.0,0.0,-3.8483,-4.0033,-4.2612,-4.4073,-4.4421,-4.6396,-4.7598,-4.8087,-4.8116,-4.8014,-4.7765,-4.7225,0.0,-3.8401,-3.7918,0.0,0.0,0.0,0.0,0.0,0.0,0.0,0.0,0.0,0.0,0.0,0.0,0.0,0.0,0.0,0.0,0.0,0.0,0.0,0.0,0.0,0.0,-4.5568,-4.5646,-4.5858,-4.5266,0.0,-3.8534,-3.4578,-3.167,-3.0536,0.0,0.0,0.0,0.0,0.0,0.0,0.0,-3.8046,-4.1277,-4.3369,-4.3479,-4.3497,-4.3497,-4.3497,-4.2763,-4.1882,-4.0855,-3.7771,-3.5385,-3.4092,-2.9824,0.0,0.0,0.0,0.0,0.0,0.0,0.0,0.0,0.0,0.0,0.0,0.0,0.0,0.0,0.0,0.0,0.0,0.0,0.0,0.0,0.0,0.0,0.0,0.0,0.0,0.0,0.0,0.0,0.0,-2.582,-2.891,-2.9144,-3.0072,-2.9843,0.0,0.0,0.0,0.0,0.0,0.0,0.0,0.0,0.0,-4.158,-4.2773,-4.4128,-4.5712,-4.7024,-4.771,-4.7872,-4.9033,-4.9881,-5.0492,-5.0698,-5.0622,-5.0259,-5.0259,-4.8194,-4.4672,-4.2837,-4.0965,-3.9074,0.0,0.0,0.0,0.0,-3.7493,-3.7853,-3.9499,-4.0213,0.0,-3.867,0.0,0.0,0.0,0.0,0.0,0.0,0.0,0.0,0.0,0.0,-4.5726,-4.672,-4.6949,-4.66,-4.5369,-4.3343,-4.0352,0.0,-3.4982,-3.4139,-3.0219,0.0,0.0,0.0,0.0,0.0,-3.979,-4.2066,-4.3497,-4.3497,-4.3497,-4.3497,-4.3497,-4.3167,-4.2635,-4.1827,-3.9606,-3.7753,-3.6468,-3.3036,-2.9989,0.0,0.0,0.0,0.0,0.0,0.0,0.0,0.0,0.0,0.0,0.0,0.0,0.0,0.0,0.0,0.0,0.0,0.0,0.0,0.0,0.0,0.0,0.0,0.0,0.0,0.0,0.0,0.0,-2.8973,-3.1214,-3.0798,-3.2823,-3.3184,0.0,0.0,0.0,0.0,0.0,0.0,-3.9245,-4.0828,-4.3265,-4.6657,-4.7783,-4.905,-5.0604,-5.0811,-5.0866,-5.082,-5.1304,-5.1825,-5.24,-5.2727,-5.2692,-5.24,-5.24,-5.1931,-5.0839,-4.737,-4.5333,-4.4232,-4.2433,-4.1305,-4.0817,-4.2154,-4.2625,-4.2911,-4.4915,-4.5817,-4.5735,-4.349,0.0,-4.1812,-3.8056,0.0,0.0,0.0,0.0,-4.1706,-4.4749,-4.5472,-4.5819,-4.7542,-4.7768,-4.7475,-4.6874,-4.6818,-4.5202,0.0,-3.9351,-3.8665,-3.45,0.0,0.0,0.0,0.0,-3.9588,-4.1203,-4.2635,-4.3497,-4.3497,-4.3497,-4.3497,-4.3497,-4.3497,-4.3222,-4.2635,-4.1295,-3.9882,-3.8469,-3.6046,-3.333,-3.0301,0.0,0.0,0.0,0.0,0.0,0.0,0.0,0.0,0.0,0.0,0.0,0.0,0.0,0.0,0.0,0.0,0.0,0.0,0.0,0.0,0.0,0.0,0.0,0.0,0.0,0.0,0.0,0.0,0.0,-3.4705,-3.7049,0.0,0.0,0.0,0.0,-3.7623,-4.0626,-4.3278,-4.5259,-4.6836,-4.8848,-5.1468,-5.1607,-5.2292,-5.3554,-5.4335,-5.455,-5.4161,-5.4957,-5.5342,-5.5379,-5.5404,-5.5404,-5.5379,-5.5379,-5.5361,-5.4968,-5.093,-4.8324,-4.6929,-4.6801,-4.643,-4.609,-4.658,-4.7,-4.7348,-4.7924,-4.8401,-4.8884,-4.9489,-4.8549,-4.6843,-4.5071,-4.3964,0.0,0.0,-4.4764,-4.5886,-4.8082,-4.834,-4.8438,-5.0116,-4.9927,-4.9047,-4.7876,-4.789,-4.7357,0.0,-4.3146,-4.1585,-3.9803,0.0,-3.7551,-3.834,-3.9239,-4.0414,-4.2029,-4.2983,-4.3497,-4.3497,-4.3497,-4.3497,-4.3497,-4.3497,-4.3461,-4.3424,-4.2653,-4.1809,-4.0965,-3.8597,-3.6119,-3.3605,-3.0485,0.0,0.0,0.0,0.0,0.0,0.0,0.0,0.0,0.0,0.0,0.0,0.0,0.0,0.0,0.0,0.0,0.0,0.0,0.0,0.0,0.0,0.0,0.0,0.0,0.0,0.0,0.0,0.0,-3.8107,-4.0588,0.0,0.0,-4.0896,-4.2427,-4.298,-4.5765,-4.8124,-4.9721,-5.0764,-5.2241,-5.4282,-5.4565,-5.504,-5.5779,-5.608,-5.6159,-5.6069,-5.6065,-5.6073,-5.6032,-5.573,-5.5592,-5.5592,-5.5592,-5.5592,-5.5482,-5.4014,-5.2784,-5.1756,-5.1242,-5.0606,-5.0006,-5.0181,-5.0157,-4.9949,-4.993,-5.0323,-5.0836,-5.066,-4.9608,-4.8388,-4.8083,-4.7764,-4.7583,-4.8021,-4.8365,-4.8828,-4.9862,-4.9991,-5.0008,-5.0638,-5.0564,-5.0213,-4.9787,-4.9362,-4.8844,-4.8015,-4.6264,-4.4369,-4.2537,-4.2598,-4.2635,-4.1901,-4.291,-4.3975,-4.4544,-4.4415,-4.4268,-4.4268,-4.3809,-4.3497,-4.3497,-4.3497,-4.3277,-4.2763,-4.1974,-4.1167,-4.0359,-3.9001,-3.711,-3.4633,-3.2944,-3.0008,0.0,0.0,0.0,0.0,0.0,0.0,0.0,0.0,0.0,0.0,0.0,0.0,0.0,0.0,0.0,0.0,0.0,0.0,0.0,0.0,0.0,0.0,0.0,0.0,0.0,0.0,-4.0328,-4.1029,-4.3701,-4.4864,-4.328,-4.5374,-4.7093,-4.7612,-4.98,-5.1663,-5.2959,-5.3752,-5.4771,-5.6032,-5.6443,-5.6833,-5.7267,-5.7267,-5.7379,-5.7559,-5.7092,-5.6952,-5.7074,-5.6608,-5.64,-5.64,-5.64,-5.64,-5.64,-5.64,-5.6088,-5.55,-5.4436,-5.3683,-5.3206,-5.3206,-5.3009,-5.2713,-5.2336,-5.2639,-5.3,-5.1956,-5.1068,-5.0421,-5.038,-5.0285,-5.0216,-5.049,-5.0486,-5.0546,-5.1048,-5.1088,-5.1078,-5.1337,-5.1208,-5.1005,-5.1005,-5.0462,-4.9994,-4.9994,-4.8163,-4.6221,-4.4928,-4.5369,-4.5535,-4.447,-4.5223,-4.5902,-4.5902,-4.5424,-4.5002,-4.4745,-4.4213,-4.3791,-4.3516,-4.324,-4.2983,-4.2708,-4.1699,-4.0873,-4.0322,-3.9276,-3.7679,-3.5495,-3.41,-3.1696,-2.8209,0.0,0.0,0.0,0.0,0.0,0.0,0.0,0.0,0.0,0.0,0.0,0.0,0.0,0.0,0.0,0.0,0.0,0.0,0.0,0.0,0.0,0.0,0.0,-3.7643,-4.0036,-4.2277,-4.3548,-4.6408,-4.7723,-4.6249,-4.8603,-5.0523,-5.1357,-5.2573,-5.3842,-5.4984,-5.5882,-5.6521,-5.6849,-5.7293,-5.7664,-5.8024,-5.8042,-5.8238,-5.8735,-5.8238,-5.8282,-5.8694,-5.8213,-5.7997,-5.7997,-5.7997,-5.7997,-5.7997,-5.7997,-5.7997,-5.785,-5.6271,-5.5647,-5.5629,-5.5629,-5.5611,-5.5533,-5.5127,-5.5319,-5.5414,-5.3798,-5.327,-5.3101,-5.2253,-5.1734,-5.1411,-5.1376,-5.1138,-5.1081,-5.183,-5.1748,-5.1653,-5.2436,-5.2007,-5.1448,-5.1448,-5.1118,-5.0839,-5.0839,-4.8893,-4.7223,-4.7205,-4.6526,-4.5975,-4.5975,-4.5975,0.0,-4.5975,-4.5957,-4.5645,-4.4874,-4.4745,-4.4378,-4.3589,-4.28,-4.2653,-4.3369,-4.1974,-4.1111,-4.1075,-3.957,-3.7991,-3.6413,-3.3954,-3.2302,-3.1494,0.0,0.0,0.0,0.0,0.0,0.0,0.0,0.0,0.0,0.0,0.0,0.0,0.0,0.0,0.0,0.0,0.0,0.0,0.0,0.0,0.0,0.0,-4.0983,-4.0983,-4.3878,-4.6461,-4.7702,-4.9377,-5.0514,-5.0674,-5.1689,-5.2797,-5.3926,-5.4832,-5.5779,-5.6737,-5.6979,-5.7441,-5.8155,-5.7993,-5.8042,-5.8484,-5.8526,-5.8735,-5.9195,-5.8735,-5.8591,-5.8694,-5.8213,-5.7997,-5.7997,-5.7997,-5.7997,-5.7997,-5.7997,-5.7997,-5.796,-5.7501,-5.6969,-5.6473,-5.6473,-5.6106,-5.56,-5.5454,-5.5512,-5.5606,-5.5417,-5.4969,-5.4499,-5.4618,-5.418,-5.3545,-5.3197,-5.3051,-5.2954,-5.2867,-5.2817,-5.2751,-5.2972,-5.2862,-5.2696,-5.2696,-5.2173,-5.1665,-5.1665,-5.0655,-4.9609,-4.9003,-4.8214,-4.7645,-4.7645,-4.7645,0.0,-4.7645,-4.7131,-4.6709,-4.6471,-4.5406,-4.4617,-4.4397,-4.3626,-4.2763,-4.1827,-4.135,-4.0855,-4.0249,-3.9808,-3.9093,-3.8065,-3.5605,-3.422,0.0,0.0,0.0,0.0,0.0,0.0,0.0,0.0,0.0,0.0,0.0,0.0,0.0,0.0,0.0,0.0,0.0,0.0,0.0,0.0,0.0,0.0,-4.1919,-4.4672,-4.5718,-4.7388,-4.9011,-5.0383,-5.1445,-5.2416,-5.323,-5.3852,-5.4638,-5.5688,-5.6168,-5.6821,-5.7677,-5.7843,-5.8089,-5.84,-5.8351,-5.8307,-5.8418,-5.8418,-5.8613,-5.9121,-5.8632,-5.8526,-5.8694,-5.8213,-5.7997,0.0,-5.7997,-5.7997,-5.7997,-5.7997,-5.7997,0.0,0.0,0.0,0.0,0.0,-5.7148,-5.6823,-5.6287,-5.6227,-5.6348,-5.6039,-5.5618,-5.531,-5.5565,-5.5343,-5.4895,-5.4645,-5.4303,-5.4023,-5.3768,-5.3576,-5.3444,-5.3444,-5.3444,-5.3444,-5.3444,-5.295,-5.2509,-5.2509,-5.1848,0.0,-5.0674,-4.9627,-4.8728,-4.8361,-4.8306,-4.8306,-4.8306,-4.7902,-4.748,-4.715,-4.6269,-4.5443,-4.4764,-4.3956,0.0,0.0,0.0,-4.0744,-3.9918,-3.99,0.0,0.0,0.0,0.0,0.0,0.0,0.0,0.0,-3.5661,-3.5973,0.0,0.0,0.0,0.0,0.0,0.0,0.0,0.0,0.0,0.0,0.0,0.0,0.0,0.0,0.0,0.0,-4.5424,-4.8361,-5.0747,-5.0527,-5.0655,-5.2087,-5.2986,-5.3794,-5.4583,-5.5317,-5.6069,-5.6877,-5.695,-5.7262,-5.796,0.0,0.0,0.0,0.0,-5.8418,-5.7997,-5.7997,-5.8213,-5.8632,-5.8213,-5.8213,-5.8591,-5.8213,-5.7997,-5.7997,-5.7997,-5.7997,-5.7997,-5.7997,-5.7997,-5.7997,-5.7997,-5.7997,-5.7997,-5.7997,-5.8282,-5.8456,-5.7332,0.0,0.0,-5.6227,-5.5794,-5.5739,-5.5739,-5.5666,-5.5592,-5.5592,-5.5078,-5.4546,-5.4546,-5.4279,-5.3962,-5.3869,-5.3851,-5.3832,-5.3739,-5.3444,-5.3206,-5.3206,-5.2619,-5.2105,-5.2013,-5.0729,-4.9426,-4.8581,-4.8453,-4.8416,-4.8324,-4.8306,-4.8031,-4.7333,0.0,0.0,-4.5094,-4.4158,-4.3589,-4.3497,-4.2084,-4.0928,-4.0194,-4.0249,-4.0249,-4.0157,-4.0157,-4.0524,-4.1258,-4.1956,-4.2029,-4.1423,-3.7668,-3.7533,0.0,0.0,0.0,0.0,0.0,0.0,0.0,0.0,0.0,0.0,0.0,0.0,0.0,0.0,0.0,-4.4892,-4.7957,-5.071,-5.2491,-5.317,-5.3592,-5.3904,-5.4638,-5.5445,-5.6271,-5.6492,-5.6895,-5.7703,-5.7776,-5.7831,-5.7997,-5.8115,0.0,-5.7997,-5.8115,-5.8097,-5.7997,-5.7997,-5.8024,-5.8142,0.0,0.0,-5.8142,-5.8024,-5.7997,-5.7997,-5.7997,-5.7997,-5.7997,-5.7997,-5.7997,-5.7997,-5.7997,-5.7997,-5.7997,-5.7997,-5.807,-5.8123,-5.7859,-5.7849,-5.7884,-5.762,-5.7097,-5.6565,-5.6565,-5.6106,0.0,-5.5592,-5.5482,-5.5354,-5.5354,-5.5312,-5.5104,-5.4441,-5.4294,-5.4128,-5.3484,-5.3272,-5.3206,-5.3206,-5.3078,-5.2766,-5.2105,-5.1187,-5.0288,-4.9462,-4.9334,-4.9077,-4.8398,-4.8306,-4.8251,-4.8086,-4.7498,-4.6985,-4.6673,-4.5314,-4.4195,-4.3534,-4.2598,-4.1992,-4.1846,-4.2451,-4.2488,-4.1846,-4.1846,-4.1919,-4.2066,-4.2213,-4.2892,-4.3975,-4.2525,-4.2194,0.0,0.0,0.0,0.0,0.0,0.0,0.0,0.0,0.0,0.0,0.0,-3.9662,0.0,0.0,-4.6434,-4.8086,-5.0398,-5.2435,-5.3628,-5.484,-5.5445,-5.5042,-5.5702,-5.6363,-5.6767,-5.7171,-5.7574,-5.796,-5.7997,-5.7997,-5.7997,-5.7997,-5.7997,-5.7997,-5.7997,-5.7997,-5.7997,-5.7997,-5.7997,-5.7997,-5.7997,-5.7997,-5.7997,-5.7997,-5.7997,-5.7997,-5.7997,-5.7997,-5.7997,-5.7997,-5.7997,-5.7997,-5.7997,-5.7997,-5.7997,-5.7997,-5.7997,-5.7997,-5.7997,-5.7997,-5.7997,-5.7997,-5.7721,-5.7409,-5.7409,-5.7116,-5.6785,-5.6785,-5.651,-5.6198,-5.6198,-5.5886,-5.5482,-5.5097,-5.4987,-5.4785,-5.3977,-5.3812,-5.3683,-5.3298,-5.3206,-5.3078,-5.2674,-5.227,-5.1591,-5.038,-5.0196,-4.9884,-4.9058,-4.8948,-4.8783,-4.8361,-4.7957,-4.7553,-4.715,-4.5993,-4.4966,-4.4158,-4.3718,-4.3332,-4.291,-4.3277,-4.3296,-4.291,-4.3296,-4.3497,-4.3497,-4.392,-4.4507,-4.5296,-4.4892,-4.469,0.0,0.0,0.0,0.0,0.0,0.0,0.0,0.0,-3.801,-3.9129,-4.168,-4.4103,-4.5406,-4.7498,-4.9517,-5.1022,-5.2491,-5.3775,-5.473,-5.5978,-5.662,-5.6106,-5.6638,-5.7042,-5.7042,-5.7611,-5.7997,-5.7997,-5.7997,-5.7997,-5.7997,-5.7997,-5.7997,-5.7997,-5.7997,-5.7997,-5.7997,-5.7997,-5.807,-5.8235,-5.8235,-5.8309,-5.8455,-5.8309,-5.8235,-5.8217,-5.807,-5.7997,-5.7997,-5.7997,-5.7997,-5.7997,-5.7997,-5.7997,-5.7997,-5.7997,-5.7997,-5.7997,-5.7997,-5.7997,-5.7997,-5.7997,-5.7997,-5.7997,-5.7997,-5.7997,-5.7997,-5.7997,-5.7538,-5.7042,-5.7042,-5.6547,-5.6014,-5.5868,-5.5831,-5.5611,-5.4803,-5.4638,-5.4399,-5.3592,-5.3445,-5.339,-5.3243,-5.3206,-5.2711,-5.1261,-5.1041,-5.0729,-4.9921,-4.9682,-4.9315,-4.8636,-4.8398,-4.7976,-4.7186,-4.6526,-4.5792,-4.4984,-4.4947,-4.4635,-4.3975,-4.3956,-4.3956,-4.3956,-4.4599,-4.4947,-4.4947,-4.5571,-4.5975,-4.614,-4.614,-4.614,-3.0705,-3.2155,-3.3917,-3.5495,-3.5954,-3.7312,0.0,0.0,-4.3332,-4.559,-4.7498,-4.882,-4.9003,-5.0435,-5.1885,-5.2784,-5.3683,-5.4803,-5.6326,-5.6693,-5.7042,-5.7666,-5.7813,-5.7868,-5.7868,-5.7941,-5.7997,-5.7997,-5.7997,-5.7997,-5.7997,-5.7997,-5.7997,-5.7997,-5.7997,-5.7997,-5.7997,-5.7997,-5.8364,-5.9079,-5.9079,-5.9446,-6.0107,-5.941,-5.9079,-5.9043,-5.8309,-5.7997,-5.7997,-5.7997,-5.7997,-5.7997,-5.7997,-5.7997,-5.7997,-5.7997,-5.7997,-5.7997,-5.7997,-5.7997,-5.7997,-5.7997,-5.7997,-5.7997,-5.7997,-5.7997,-5.7997,-5.7997,-5.7941,-5.7868,-5.7868,-5.7795,-5.7556,-5.684,-5.6675,-5.6455,-5.5629,-5.5464,-5.5225,-5.4418,-5.4271,-5.4051,-5.3335,-5.3206,-5.2913,-5.1995,-5.1867,-5.1573,-5.0765,-5.0031,-4.9536,-4.9444,-4.8765,-4.7976,-4.7186,-4.704,-4.6636,-4.5828,-4.5773,-4.5736,-4.5645,-4.5626,-4.5626,-4.5626,-4.5718,-4.5773,-4.5773,-4.5865,-4.6269,-4.6985,-4.6985,-4.6985,-3.6321,-3.7184,0.0,0.0,-4.1552,-4.3094,-4.4966,-4.625,-4.7315,-4.8306,-4.9829,-5.0986,-5.0986,-5.1922,-5.2968,0.0,-5.4564,-5.55,-5.6657,-5.6804,-5.6932,-5.7262,-5.7299,-5.7483,-5.7941,-5.7997,-5.7997,-5.7997,-5.7997,-5.7997,-5.7997,-5.7997,-5.7997,-5.7997,-5.8455,-5.8712,-5.8712,-5.9171,-5.9575,-5.9905,-5.9905,-6.007,-6.0401,-6.0052,-5.9648,-5.9189,-5.8859,-5.8437,-5.7997,-5.7997,-5.7997,-5.7997,-5.7997,-5.7997,-5.7997,-5.7997,-5.7997,-5.7997,-5.7997,-5.7997,-5.7997,-5.7997,-5.7997,-5.7997,-5.7997,-5.7997,-5.7997,-5.7997,-5.7997,-5.7997,-5.7997,-5.7997,-5.7923,-5.7574,-5.7501,-5.7281,-5.6473,-5.6308,-5.6051,-5.5244,-5.4711,-5.4289,-5.3959,-5.3518,-5.3096,-5.2747,-5.2711,-5.2417,-5.1591,-5.1187,-5.0618,-4.9682,-4.882,-4.8159,-4.7847,-4.781,-4.748,-4.6654,-4.6617,-4.6397,-4.592,-4.5902,-4.5902,-4.5902,-4.6361,-4.6617,-4.6617,-4.7076,-4.748,-4.781,-4.781,-4.8086,-3.9698,0.0,0.0,-4.3332,-4.5663,-4.7352,-4.7003,-4.8636,-5.0233,-5.0196,-5.1151,-5.1995,-5.1995,-5.2472,0.0,-5.4234,-5.5078,-5.5959,-5.6987,-5.695,-5.6804,-5.6804,-5.6602,-5.6785,-5.7593,-5.7868,-5.7997,-5.7997,-5.7997,-5.7997,-5.7997,-5.7997,-5.8107,-5.8327,-5.8914,-5.9318,-5.9538,-6.0126,-6.0511,-6.0731,-6.0731,-6.086,-6.1062,-6.0841,-6.0291,-5.9538,-5.9318,-5.8877,-5.8309,-5.8088,-5.7997,-5.7997,-5.7997,-5.7997,-5.7997,-5.7997,-5.7997,-5.7997,-5.7997,-5.7997,-5.7997,-5.7997,-5.7997,-5.7997,-5.7997,-5.7997,-5.7997,-5.7997,-5.7997,-5.7997,-5.7997,-5.7997,-5.7997,-5.7997,-5.7997,-5.7831,-5.7262,-5.7134,-5.6895,-5.6088,-5.5464,-5.4932,-5.4473,-5.3922,-5.3463,-5.3243,-5.3206,-5.3004,-5.2417,-5.2142,-5.1463,-5.0068,-4.9169,-4.8655,-4.8655,-4.8434,-4.8067,-4.748,-4.7443,-4.7186,-4.6599,-4.6562,-4.6562,-4.6562,-4.715,-4.7443,-4.7443,-4.8031,-4.8416,-4.8655,-4.8655,-4.9114,0.0,0.0,-4.3589,-4.4452,-4.6489,-4.8489,-4.9279,-5.0729,-5.1922,-5.1903,-5.1958,-5.1995,-5.1995,-5.2013,-5.2546,-5.4142,-5.5078,-5.6143,-5.774,-5.7299,-5.6804,-5.6804,-5.6106,-5.5941,0.0,-5.7538,-5.7997,-5.7997,-5.7997,-5.7997,-5.7997,-5.7997,-5.8364,-5.9153,-5.9208,-5.9575,-6.0364,-6.0401,-6.0786,-6.1557,-6.1557,-6.1979,-6.2713,-6.1924,-6.1117,-6.0327,-5.9557,-5.9208,-5.9116,-5.8327,-5.7997,-5.7997,-5.7997,-5.7997,-5.7997,-5.7997,-5.7997,-5.7997,-5.7997,-5.7997,-5.7997,-5.7997,-5.7997,-5.7997,-5.7997,-5.7997,-5.7997,-5.7997,-5.7997,-5.7997,-5.7997,-5.7997,-5.7997,-5.7997,-5.7997,-5.7997,-5.796,-5.796,-5.7721,-5.6932,-5.6748,-5.6235,-5.4675,-5.4381,-5.4106,-5.3335,-5.3206,-5.3206,-5.3188,-5.2472,-5.1665,-5.0857,-5.0031,-4.9536,-4.9536,-4.8783,-4.8306,-4.8269,-4.8269,-4.8251,-4.8233,-4.8233,-4.8233,-4.8233,-4.8251,-4.8269,-4.8269,-4.8306,-4.8728,-4.9536,-4.9536,-4.9976,0.0,0.0,-4.6214,-4.7553,-4.9334,-5.082,-5.1114,-5.1591,-5.1995,-5.1995,-5.1132,-5.0398,-5.0398,-5.0398,-5.1096,-5.3261,-5.4289,-5.5556,-5.7703,-5.7317,-5.6602,-5.6069,-5.6235,0.0,0.0,0.0,0.0,-5.796,-5.7997,-5.7997,-5.7997,-5.7997,-5.8364,-5.9189,-5.9722,-6.0382,-6.119,-6.1741,-6.2144,-6.2401,-6.2401,-6.2548,-6.2805,-6.253,-6.1961,-6.1172,-6.0915,-6.0199,-5.9189,-5.8914,-5.8492,-5.7997,-5.7997,-5.7997,-5.7997,-5.7997,-5.7997,-5.7997,-5.7997,-5.7997,-5.7997,-5.7997,-5.7997,-5.7997,-5.7997,-5.7997,-5.7997,-5.7997,-5.7997,-5.7997,-5.7997,-5.7997,-5.7997,-5.7997,-5.7997,-5.7997,-5.7997,-5.7997,-5.7923,-5.7648,-5.7171,-5.6638,-5.6088,-5.5115,-5.4124,-5.3335,-5.3206,-5.3206,-5.3206,-5.2509,-5.1885,-5.1628,-5.0875,-5.0398,-5.0398,-5.0123,-4.9738,-4.9187,-4.915,-4.8893,-4.8324,-4.8306,-4.8306,-4.8306,-4.8306,-4.8581,-4.915,-4.915,-4.9591,-5.0398,-5.0398,-5.082,-4.5333,-4.6929,-4.7994,-4.9903,-5.1187,-5.1995,-5.1995,-5.1775,-5.1481,-5.1169,-4.9591,-4.8361,-4.8636,-4.8471,-4.926,-5.2289,-5.3463,-5.4913,-5.7611,-5.7317,-5.662,-5.6088,-5.6235,-5.6271,0.0,0.0,0.0,-5.7941,-5.7997,-5.7997,-5.7997,-5.8272,-5.8804,-5.9612,-6.0419,-6.1227,-6.2016,-6.2548,-6.2805,-6.2805,-6.2805,-6.2805,-6.2805,-6.2805,-6.253,-6.2016,-6.1722,-6.086,-5.963,-5.9336,-5.8731,-5.7997,-5.7997,-5.7997,-5.7997,-5.7997,-5.7997,-5.7997,-5.7997,-5.7997,-5.7997,-5.7997,-5.7997,-5.7997,-5.7997,-5.7997,-5.7997,-5.7997,-5.7997,-5.7997,-5.7997,-5.7997,-5.7997,-5.7997,-5.7997,-5.7997,-5.7997,-5.7997,-5.7997,-5.7997,-5.7574,-5.7152,-5.6859,-5.5702,-5.4564,-5.3757,-5.3628,-5.3537,-5.3243,-5.2747,-5.2435,-5.2435,-5.1701,-5.1224,-5.1224,-5.0967,-5.0582,-5.005,-5.0013,-4.9774,-4.9224,-4.9187,-4.9187,-4.9187,-4.9187,-4.9462,-5.0013,-5.0013,-5.0435,-5.1224,-5.1224,-5.1665,-4.6783,-4.7865,-4.9058,-5.1444,-5.2013,-5.1977,-5.194,-5.1279,-5.0398,-4.9444,-4.737,-4.592,0.0,0.0,-4.7095,-5.1096,-5.2564,-5.4326,-5.7483,-5.7317,-5.6859,0.0,0.0,0.0,0.0,0.0,0.0,-5.7941,0.0,-5.8015,-5.8052,-5.8804,-5.9612,-6.0438,-6.119,-6.1998,-6.2805,-6.2805,-6.2805,-6.2805,-6.2805,-6.2805,-6.2805,-6.2805,-6.2805,-6.2768,-6.1998,-6.119,-6.0401,-5.9612,-5.8804,-5.8052,-5.8015,-5.7997,-5.7997,-5.7997,-5.7997,-5.7997,-5.7997,-5.7997,-5.7997,-5.7997,-5.7997,-5.7997,-5.7997,-5.7997,-5.7997,-5.7997,-5.7997,-5.7997,-5.7997,-5.7997,-5.7997,-5.7997,-5.7997,-5.7997,-5.7997,-5.7997,-5.7997,-5.7997,-5.7997,-5.774,-5.695,-5.6161,-5.5372,-5.4583,-5.4436,-5.4106,-5.3316,-5.3206,-5.3206,-5.3206,-5.2527,-5.205,-5.205,-5.1353,-5.0912,-5.0857,-5.0857,-5.0839,-5.0802,-5.0802,-5.0802,-5.0802,-5.0802,-5.082,-5.0857,-5.0857,-5.1261,-5.205,-5.205,-5.2472,-4.8177,-4.9976,-5.1353,-5.2601,-5.2435,-5.183,-5.1242,-4.9976,-4.8361,-4.6342,-4.4488,-4.291,-4.1919,0.0,0.0,-4.7902,-5.1096,0.0,-5.6748,-5.7446,0.0,0.0,0.0,-5.7226,-5.684,-5.7336,0.0,0.0,-5.7997,-5.8253,-5.8877,-5.9098,-5.985,-6.1245,-6.1484,-6.1998,-6.2805,-6.2805,-6.2805,-6.2805,-6.2805,-6.2805,-6.2805,-6.2805,-6.2805,-6.2805,-6.2585,-6.2034,-6.1227,-6.0438,-5.963,-5.8841,-5.8235,-5.7997,-5.7997,-5.7997,-5.7997,-5.7997,-5.7997,-5.7997,-5.7997,-5.7997,-5.7997,-5.7997,-5.7997,-5.7997,-5.7997,-5.7997,-5.7997,-5.7997,-5.7997,-5.7997,-5.7997,-5.7997,-5.7997,-5.7997,-5.7997,-5.7997,-5.7997,-5.7997,-5.7997,-5.774,-5.695,-5.6638,-5.6216,-5.5409,-5.4785,-5.4106,-5.3316,-5.3206,-5.3206,-5.3206,-5.3023,-5.2894,-5.2894,-5.2711,-5.2325,-5.172,-5.1683,-5.1426,-5.082,-5.0802,-5.0802,-5.0802,-5.0802,-5.1096,-5.1683,-5.1683,-5.2105,-5.2894,-5.2894,-5.3004,-4.9958,-5.1555,-5.2546,-5.2656,-5.2068,-5.0986,-4.9077,-4.737,-4.5406,-4.2653,-4.1075,0.0,-3.8542,0.0,0.0,0.0,0.0,0.0,-5.5886,-5.7262,-5.7831,0.0,-5.7721,0.0,-5.7373,-5.774,-5.7997,0.0,-5.8327,-5.8731,-5.9189,-5.9887,-6.0676,-6.1557,-6.1942,-6.2346,-6.2805,-6.2805,-6.2805,-6.2805,-6.2805,-6.2805,-6.2805,-6.2805,-6.2805,-6.2805,0.0,-6.2144,-6.1043,-6.0584,-5.9722,-5.8639,-5.818,-5.7997,-5.7997,-5.7997,-5.7997,-5.7997,-5.7997,-5.7997,-5.7997,-5.7997,-5.7997,-5.7997,-5.7997,-5.7997,-5.7997,-5.7997,-5.7997,-5.7997,-5.7997,-5.7997,-5.7997,-5.7997,-5.7997,-5.7997,-5.7997,-5.7997,-5.7997,-5.7997,-5.7997,-5.785,-5.7409,-5.7336,-5.706,-5.6253,-5.5739,-5.5042,-5.3885,-5.3427,-5.3206,-5.3206,-5.3206,-5.3206,-5.3206,-5.3206,-5.3023,-5.2564,-5.2527,-5.2325,-5.1885,-5.1848,-5.1848,-5.1848,-5.1848,-5.2087,-5.2527,-5.2527,-5.2766,-5.3206,-5.3206,-5.3206,-5.1555,-5.2582,-5.3023,-5.2197,-5.1298,-4.9774,-4.6489,-4.4397,-4.2231,-3.8909,0.0,-3.6743,-3.5954,0.0,-4.0671,-4.4011,0.0,-5.1793,-5.5115,-5.6877,-5.7886,-5.7997,-5.7997,-5.7997,-5.7997,-5.7997,-5.7997,-5.7997,-5.8767,-5.9263,-5.9373,-6.0786,-6.1649,-6.1759,-6.2456,-6.2805,-6.2805,-6.2805,-6.2805,-6.2805,-6.2805,-6.2805,-6.2805,-6.2805,-6.2805,-6.2805,0.0,0.0,-6.0548,-6.0438,-5.952,-5.8143,-5.8033,-5.7997,-5.7997,-5.7997,-5.7997,-5.7997,-5.7997,-5.7997,-5.7997,-5.7997,-5.7997,-5.7997,-5.7997,-5.7997,-5.7997,-5.7997,-5.7997,-5.7997,-5.7997,-5.7997,-5.7997,-5.7997,-5.7997,-5.7997,-5.7997,-5.7997,-5.7997,-5.7997,-5.7997,-5.7997,-5.7997,-5.7997,-5.7758,-5.706,-5.6877,-5.6308,-5.4895,-5.3922,-5.3335,-5.3225,-5.3206,-5.3206,-5.3206,-5.3206,-5.3206,-5.3206,-5.3206,-5.3206,-5.3206,-5.3206,-5.3206,-5.3206,-5.3206,-5.3206,-5.3206,-5.3206,-5.3206,-5.3206,-5.3206,-5.3206,-5.1536,-5.2582,-5.3023,-5.2197,-5.0894,-4.8948,-4.5663,-4.3149,0.0,0.0,0.0,-3.4192,-3.3403,-3.5789,0.0,-4.3075,0.0,0.0,0.0,0.0,-5.7262,0.0,0.0,0.0,0.0,0.0,0.0,0.0,0.0,0.0,-6.0162,-6.108,-6.1906,-6.2585,-6.275,-6.2805,-6.2805,-6.2805,-6.2805,-6.2805,-6.2805,-6.2805,-6.2805,-6.2805,-6.2805,-6.2805,-6.2805,0.0,-6.1337,-6.0676,-5.985,-5.8951,-5.8253,-5.7997,-5.7997,-5.7997,-5.7997,-5.7997,-5.7997,-5.7997,-5.7997,-5.7997,-5.7997,-5.7997,-5.7997,-5.7997,-5.7997,-5.7997,-5.7997,-5.7997,-5.7997,-5.7997,-5.7997,-5.7997,-5.7997,-5.7997,-5.7997,-5.7997,-5.7997,-5.7997,-5.7997,-5.7997,-5.7997,-5.7997,-5.7941,-5.7813,-5.7226,-5.6712,-5.6436,-5.5097,-5.394,-5.328,-5.3206,-5.3206,-5.3206,-5.3206,-5.3206,-5.3206,-5.3206,-5.3206,-5.3206,-5.3206,-5.3206,-5.3206,-5.3206,-5.3206,-5.3206,-5.3206,-5.3206,-5.3206,-5.3206,-5.3206,-5.1536,-5.2582,-5.2913,-5.1683,-5.0141,-4.7737,-4.3222,0.0,0.0,0.0,0.0,-3.2173,-3.0962,0.0,0.0,0.0,0.0,0.0,0.0,0.0,0.0,0.0,0.0,0.0,0.0,0.0,0.0,0.0,0.0,0.0,-5.9758,-6.0933,-6.1777,-6.2163,-6.2585,-6.2805,-6.2805,-6.2805,-6.2805,-6.2805,-6.2805,-6.2585,-6.2181,-6.2181,-6.1961,-6.1557,-6.1557,0.0,-6.0327,-5.9942,-5.93,-5.8547,-5.8143,-5.7997,-5.7997,-5.7997,-5.7997,-5.7997,-5.7997,-5.7997,-5.7997,-5.7997,-5.7997,-5.7997,-5.7997,-5.7997,-5.7997,-5.7997,-5.7997,-5.7997,-5.7997,-5.7997,-5.7997,-5.7997,-5.7997,-5.7997,-5.7997,-5.7997,-5.7997,-5.7997,-5.7997,-5.7997,-5.7997,-5.7997,-5.7997,-5.7997,-5.7666,-5.7281,-5.6859,-5.6143,-5.5188,-5.3959,-5.3463,-5.3206,-5.3206,-5.3206,-5.3206,-5.3206,-5.3206,-5.3206,-5.3206,-5.3206,-5.3206,-5.3206,-5.3206,-5.3206,-5.3206,-5.3206,-5.3206,-5.3206,-5.3206,-5.3206,-5.1077,-5.2068,-5.2307,-5.0674,-4.9022,-4.6361,-4.0891,-3.812,0.0,0.0,-3.043,-3.0338,-2.9439,0.0,0.0,0.0,0.0,0.0,0.0,0.0,0.0,0.0,0.0,0.0,0.0,0.0,0.0,0.0,0.0,0.0,-5.9446,-6.0658,-6.1337,-6.1337,-6.1961,-6.231,-6.231,-6.231,-6.231,-6.231,-6.231,-6.1961,-6.1337,-6.1337,-6.1006,-6.0401,-6.0401,0.0,0.0,-5.9208,-5.8731,-5.7997,-5.7997,-5.7997,-5.7997,-5.7997,-5.7997,-5.7997,-5.7997,-5.7997,-5.7997,-5.7997,-5.7997,-5.7997,-5.7997,-5.7997,-5.7997,-5.7997,-5.7997,-5.7997,-5.7997,-5.7997,-5.7997,-5.7997,-5.7997,-5.7997,-5.7997,-5.7997,-5.7997,-5.7997,-5.7997,-5.7997,-5.7997,-5.7997,-5.7997,-5.7997,-5.7997,-5.7776,-5.7152,-5.6914,-5.6326,-5.506,-5.4051,-5.339,-5.3225,-5.3206,-5.3206,-5.3206,-5.3206,-5.3206,-5.3206,-5.3206,-5.3206,-5.3206,-5.3206,-5.3206,-5.3206,-5.3206,-5.3206,-5.3206,-5.3206,-5.3206,-4.9554,-5.0398,-5.0618,-4.8948,-4.7315,-4.4837,-3.9937,0.0,0.0,-3.0742,-2.909,-2.8521,-2.9861,-3.098,0.0,0.0,0.0,0.0,0.0,0.0,0.0,0.0,0.0,0.0,0.0,0.0,0.0,0.0,0.0,0.0,-6.0217,-6.0438,-6.0511,-6.0511,-6.0584,-6.0621,-6.0621,-6.0621,-6.0621,-6.0621,-6.0621,-6.0584,-6.0511,-6.0511,-6.0474,-6.0401,-6.0401,0.0,0.0,-5.9208,-5.8731,-5.7997,-5.7997,-5.7997,-5.7997,-5.7997,-5.7997,-5.7997,-5.7997,-5.7997,-5.7997,-5.7997,-5.7997,-5.7997,-5.7997,-5.7997,-5.7997,-5.7997,-5.7997,-5.7997,-5.7997,-5.7997,-5.7997,-5.7997,-5.7997,-5.7997,-5.7997,-5.7997,-5.7997,-5.7997,-5.7997,-5.7997,-5.7997,-5.7997,-5.7997,-5.7997,-5.7997,-5.796,-5.7905,-5.7262,-5.6748,-5.6602,-5.5207,-5.3995,-5.328,-5.3206,-5.3206,-5.3206,-5.3206,-5.3206,-5.3206,-5.3206,-5.3206,-5.3206,-5.3206,-5.3206,-5.3206,-5.3206,-5.3206,-5.3206,-5.3206,-5.3206,-4.8324,-4.9793,-5.0398,-4.8728,-4.7095,-4.4507,-3.9184,0.0,-3.3568,-3.0191,-2.898,-2.8723,-2.9365,-3.0136,-3.1623,0.0,0.0,0.0,0.0,0.0,0.0,0.0,0.0,0.0,0.0,0.0,0.0,0.0,0.0,0.0,-5.8914,-5.941,-5.9685,-5.9685,-6.0162,-6.0401,-6.0401,-6.0401,-6.0401,-6.0401,-6.0401,-6.0162,-5.9685,-5.9685,-5.941,-5.8951,-5.8951,0.0,0.0,-5.8492,-5.829,-5.7997,-5.7997,-5.7997,-5.7997,-5.7997,-5.7997,-5.7997,-5.7997,-5.7997,-5.7997,-5.7997,-5.7997,-5.7997,-5.7997,-5.7997,-5.7997,-5.7997,-5.7997,-5.7997,-5.7997,-5.7997,-5.7997,-5.7997,-5.7997,-5.7997,-5.7997,-5.7997,-5.7997,-5.7997,-5.7997,-5.7997,-5.7997,-5.7997,-5.7997,-5.7997,-5.7997,-5.7997,-5.7997,-5.7721,-5.7336,-5.6859,-5.5372,-5.4271,-5.3959,-5.3482,-5.3206,-5.3206,-5.3206,-5.3206,-5.3206,-5.3206,-5.3206,-5.3206,-5.3206,-5.3206,-5.3206,-5.3206,-5.3206,-5.3206,-5.3206,-5.3206,-4.6287,-4.8086,-4.9022,-4.759,-4.603,-4.3479,0.0,0.0,-3.3266,-2.9727,-2.8815,-2.8723,-2.8957,-2.9475,-3.0467,0.0,0.0,0.0,0.0,0.0,0.0,0.0,0.0,0.0,0.0,0.0,0.0,0.0,0.0,0.0,0.0,-5.8547,-5.8859,-5.8859,-5.9391,-5.9685,-5.9685,-5.9685,-5.9685,-5.9685,-5.9685,-5.9391,-5.8859,-5.8859,-5.8547,-5.7997,0.0,0.0,0.0,-5.7997,-5.7997,-5.7997,-5.7997,-5.7997,-5.7997,-5.7997,-5.7997,-5.7997,-5.7997,-5.7997,-5.7997,-5.7997,-5.7997,-5.7997,-5.7997,-5.7997,-5.7997,-5.7997,-5.7997,-5.7997,-5.7997,-5.7997,-5.7997,-5.7997,-5.7997,-5.7997,-5.7997,-5.7997,-5.7997,-5.7997,-5.7997,-5.7997,-5.7997,-5.7997,-5.7997,-5.7997,-5.7997,-5.7997,-5.7997,-5.7997,-5.7776,-5.7226,-5.5941,-5.4913,-5.4436,-5.3885,-5.3463,-5.3225,-5.3206,-5.3206,-5.3206,-5.3206,-5.3206,-5.3206,-5.3206,-5.3206,-5.3206,-5.3206,-5.3206,-5.3206,-5.3206,-5.3335,-4.3112,-4.4727,-4.5755,-4.4947,-4.3534,-4.1277,0.0,-3.4394,-3.1953,-2.9489,-2.8374,-2.8062,-2.8847,-2.8994,-2.9782,-3.2228,-3.3927,0.0,0.0,0.0,0.0,0.0,0.0,0.0,0.0,0.0,0.0,0.0,0.0,0.0,0.0,-5.7997,-5.8015,-5.8015,-5.8015,-5.8015,-5.8015,-5.8015,-5.8015,-5.8015,-5.8015,-5.8015,-5.8015,-5.8015,-5.7997,0.0,0.0,0.0,0.0,-5.7997,-5.7997,-5.7997,-5.7997,-5.7997,-5.7997,-5.7997,-5.7997,-5.7997,-5.7997,-5.7997,-5.7997,-5.7997,-5.7997,-5.7997,-5.7997,-5.7997,-5.7997,-5.7997,-5.7997,-5.7997,-5.7997,-5.7997,-5.7997,-5.7997,-5.7997,-5.7997,-5.7997,-5.7997,-5.7997,-5.7997,-5.7997,-5.7997,-5.7997,-5.7997,-5.7997,-5.7997,-5.7997,-5.7997,-5.7997,-5.7997,-5.7997,-5.7997,-5.7262,-5.6143,-5.4546,-5.4399,-5.4051,-5.3261,-5.3206,-5.3206,-5.3206,-5.3206,-5.3206,-5.3206,-5.3206,-5.3206,-5.3206,-5.3206,-5.3206,-5.3206,-5.3206,-5.3628,-3.8946,-4.0561,-4.146,-4.012,-3.9386,-3.8083,-3.4578,-3.2742,-3.1256,-2.936,-2.8356,-2.8044,-2.8847,-2.8994,-3.0149,-3.367,-3.466,0.0,0.0,0.0,0.0,0.0,0.0,0.0,0.0,0.0,0.0,0.0,0.0,0.0,0.0,-5.7997,-5.7997,-5.7997,-5.7997,-5.7997,-5.7997,-5.7997,-5.7997,-5.7997,-5.7997,-5.7997,-5.7997,-5.7997,0.0,0.0,0.0,0.0,0.0,-5.7997,-5.7997,-5.7997,-5.7997,-5.7997,-5.7997,-5.7997,-5.7997,-5.7997,-5.7997,-5.7997,-5.7997,-5.7997,-5.7997,-5.7997,-5.7997,-5.7997,-5.7997,-5.7997,-5.7997,-5.7997,-5.7997,-5.7997,-5.7997,-5.7997,-5.7997,-5.7997,-5.7997,-5.7997,-5.7997,-5.7997,-5.7997,-5.7997,-5.7997,-5.7997,-5.7997,-5.7997,-5.7997,-5.7997,-5.7997,-5.7997,-5.7997,-5.7997,-5.7776,-5.7189,-5.6143,-5.5042,-5.4289,-5.4051,-5.35,-5.3206,-5.3206,-5.3206,-5.3206,-5.3206,-5.3206,-5.3206,-5.3206,-5.3206,-5.3482,-5.4032,-5.4583,-5.4968,0.0,-3.7294,-3.8285,-3.7294,-3.6798,-3.5771,-3.2816,-3.1513,-3.0393,-2.8503,-2.7934,-2.7952,-2.8448,-2.8815,-3.0002,-3.3146,-3.4403,0.0,0.0,0.0,0.0,0.0,0.0,0.0,0.0,0.0,0.0,0.0,0.0,0.0,0.0,-5.7997,-5.7997,-5.7997,-5.7997,-5.7997,-5.7997,-5.7997,-5.7997,-5.7997,-5.7997,-5.7997,-5.7997,-5.7997,0.0,0.0,0.0,0.0,0.0,-5.7997,-5.7997,-5.7997,-5.7997,-5.7997,-5.7997,-5.7997,-5.7997,-5.7997,-5.7997,-5.7997,-5.7997,-5.7997,-5.7997,-5.7997,-5.7997,-5.7997,-5.7997,-5.7997,-5.7997,-5.7997,-5.7997,-5.7997,-5.7997,-5.7997,-5.7997,-5.7997,-5.7997,-5.7997,-5.7997,-5.7997,-5.7997,-5.7997,-5.7997,-5.7997,-5.7997,-5.7997,-5.7997,-5.7997,-5.7997,-5.7997,-5.7997,-5.7997,-5.7997,-5.7795,-5.7299,-5.6069,-5.5188,-5.4858,-5.4381,-5.3977,-5.3683,-5.3665,-5.3518,-5.3225,-5.3206,-5.3353,-5.3665,-5.3959,-5.4363,-5.4858,-5.5354,-5.5757,0.0,-3.4412,-3.5679,-3.5624,-3.5055,-3.3899,-3.1568,-3.0485,0.0,-2.7071,-2.72,-2.7769,-2.8007,-2.8631,-2.9732,-3.1678,-3.3844,0.0,0.0,0.0,0.0,0.0,0.0,0.0,0.0,0.0,0.0,0.0,0.0,0.0,0.0,-5.7997,-5.7997,-5.7997,-5.7997,-5.7997,-5.7997,-5.7997,-5.7997,-5.7997,-5.7997,-5.7997,-5.7997,-5.7997,0.0,0.0,0.0,0.0,0.0,-5.7997,-5.7997,-5.7997,-5.7997,-5.7997,-5.7997,-5.7997,-5.7997,-5.7997,-5.7997,-5.7997,-5.7997,-5.7997,-5.7997,-5.7997,-5.7997,-5.7997,-5.7997,-5.7997,-5.7997,-5.7997,-5.7997,-5.7997,-5.7997,-5.7997,-5.7997,-5.7997,-5.7997,-5.7997,-5.7997,-5.7997,-5.7997,-5.7997,-5.7997,-5.7997,-5.7997,-5.7997,-5.7997,-5.7997,-5.7997,-5.7997,-5.7997,-5.7997,-5.7997,-5.7997,-5.7997,-5.7262,-5.6492,-5.5721,-5.5611,-5.5244,-5.4528,-5.4491,-5.4124,-5.339,-5.339,-5.3739,-5.4491,-5.528,-5.5684,-5.5684,-5.5739,-5.6161,-2.7074,0.0,-2.9641,-2.9035,-2.92,-2.9182,0.0,-2.7585,-2.7291,-2.6722,0.0,-2.764,-3.0099,-3.021,-3.1678,-3.7019,0.0,0.0,0.0,0.0,0.0,0.0,0.0,0.0,0.0,0.0,0.0,0.0,0.0,0.0,0.0,-5.7997,-5.7997,-5.7997,-5.7997,-5.7997,-5.7997,-5.7997,-5.7997,-5.7997,-5.7997,-5.7997,-5.7997,-5.7997,0.0,0.0,0.0,0.0,-5.7997,-5.7997,-5.7997,-5.7997,-5.7997,-5.7997,-5.7997,-5.7997,-5.7997,-5.7997,-5.7997,-5.7997,-5.7997,-5.7997,-5.7997,-5.7997,-5.7997,-5.7997,-5.7997,-5.7997,-5.7997,-5.7997,-5.7997,-5.7997,-5.7997,-5.7997,-5.7997,-5.7997,-5.7997,-5.7997,-5.7997,-5.7997,-5.7997,-5.7997,-5.7997,-5.7997,-5.7997,-5.7997,-5.7997,-5.7997,-5.7997,-5.7997,-5.7997,-5.7997,-5.7997,-5.7997,-5.7997,-5.7262,-5.673,-5.6528,-5.5941,-5.55,-5.5317,-5.5317,-5.5225,-5.5042,-5.5042,-5.5115,-5.5317,-5.6124,-5.6528,-5.6528,-5.7152,-5.7538,-2.4832,-2.6833,-2.8796,-2.8356,-2.8576,-2.8686,-2.7879,0.0,0.0,0.0,0.0,-2.7365,-2.9843,0.0,0.0,0.0,0.0,0.0,0.0,0.0,0.0,0.0,0.0,0.0,0.0,0.0,0.0,0.0,0.0,0.0,0.0,-5.7997,-5.7997,-5.7997,-5.7997,-5.7997,-5.7997,-5.7997,-5.7997,-5.7997,-5.7997,-5.7997,-5.7997,-5.7997,-5.7997,0.0,0.0,0.0,-5.7997,-5.7997,-5.7997,-5.7997,-5.7997,-5.7997,-5.7997,-5.7997,-5.7997,-5.7997,-5.7997,-5.7997,-5.7997,-5.7997,-5.7997,-5.7997,-5.7997,-5.7997,-5.7997,-5.7997,-5.7997,-5.7997,-5.7997,-5.7997,-5.7997,-5.7997,-5.7997,-5.7997,-5.7997,-5.7997,-5.7997,-5.7997,-5.7997,-5.7997,-5.7997,-5.7997,-5.7997,-5.7997,-5.7997,-5.7997,-5.7997,-5.7997,-5.7997,-5.7997,-5.7997,-5.7997,-5.7997,-5.7593,-5.7354,-5.7354,-5.6932,-5.6528,-5.6161,-5.6143,-5.5978,-5.5592,-5.5959,-5.6143,-5.6143,-5.6969,-5.7354,-5.7373,-5.7795,-5.7997,-2.4649,-2.7537,-3.0299,-2.9646,-2.9843,-2.9971,-2.9035,0.0,0.0,0.0,0.0,0.0,0.0,0.0,0.0,0.0,0.0,0.0,0.0,0.0,0.0,0.0,0.0,0.0,0.0,0.0,0.0,0.0,0.0,0.0,0.0,-5.7997,-5.7997,-5.7997,-5.7997,-5.7997,-5.7997,-5.7997,-5.7997,-5.7997,-5.7997,-5.7997,-5.7997,-5.7997,-5.7997,-5.7997,0.0,0.0,-5.7997,-5.7997,-5.7997,-5.7997,-5.7997,-5.7997,-5.7997,-5.7997,-5.7997,-5.7997,-5.7997,-5.7997,-5.7997,-5.7997,-5.7997,-5.7997,-5.7997,-5.7997,-5.7997,-5.7997,-5.7997,-5.7997,-5.7997,-5.7997,-5.7997,-5.7997,-5.7997,-5.7997,-5.7997,-5.7997,-5.7997,-5.7997,-5.7997,-5.7997,-5.7997,-5.7997,-5.7997,-5.7997,-5.7997,-5.7997,-5.7997,-5.7997,-5.7997,-5.7997,-5.7997,-5.7997,-5.7997,-5.7997,-5.7997,-5.7997,-5.7997,-5.7685,-5.7024,-5.6987,-5.6657,-5.5978,-5.6638,-5.6987,-5.6987,-5.7666,-5.7997,-5.7997,-5.7997,-5.7997,-2.6686,-2.9391,-3.0748,-2.7066,-2.8172,-2.9806,-2.8319,0.0,0.0,0.0,0.0,0.0,0.0,0.0,0.0,0.0,0.0,0.0,0.0,0.0,0.0,0.0,0.0,0.0,0.0,0.0,0.0,0.0,0.0,0.0,0.0,-5.7997,-5.7997,-5.7997,-5.7997,-5.7997,-5.7997,-5.7997,-5.7997,-5.7997,-5.7997,-5.7997,-5.7997,-5.7997,-5.7997,-5.7997,0.0,-5.7997,-5.7997,-5.7997,-5.7997,-5.7997,-5.7997,-5.7997,-5.7997,-5.7997,-5.7997,-5.7997,-5.7997,-5.7997,-5.7997,-5.7997,-5.7997,-5.7997,-5.7997,-5.7997,-5.7997,-5.7997,-5.7997,-5.7997,-5.7997,-5.7997,-5.7997,-5.7997,-5.7997,-5.7997,-5.7997,-5.7997,-5.7997,-5.7997,-5.7997,-5.7997,-5.7997,-5.7997,-5.7997,-5.7997,-5.7997,-5.7997,-5.7997,-5.7997,-5.7997,-5.7997,-5.7997,-5.7997,-5.7997,-5.7997,-5.7997,-5.7997,-5.7997,-5.7941,-5.7813,-5.7813,-5.7758,-5.7629,-5.774,-5.7813,-5.7813,-5.7941,-5.7997,-5.7997,-5.7997,-5.7997,-2.5548,-2.8046,-2.985,-2.7849,-3.0559,-3.3475,-3.2592,0.0,0.0,0.0,0.0,0.0,0.0,0.0,0.0,0.0,0.0,0.0,0.0,0.0,0.0,0.0,0.0,0.0,0.0,0.0,0.0,0.0,0.0,0.0,0.0,0.0,-5.7997,-5.7997,-5.7997,-5.7997,-5.7997,-5.7997,-5.7997,-5.7997,-5.7997,-5.7997,-5.7997,-5.7997,-5.7997,-5.7997,0.0,-5.7997,-5.7997,-5.7997,-5.7997,-5.7997,-5.7997,-5.7997,-5.7997,-5.7997,-5.7997,-5.7997,-5.7997,-5.7997,-5.7997,-5.7997,-5.7997,-5.7997,-5.7997,-5.7997,-5.7997,-5.7997,-5.7997,-5.7997,-5.7997,-5.7997,-5.7997,-5.7997,-5.7997,-5.7997,-5.7997,-5.7997,-5.7997,-5.7997,-5.7997,-5.7997,-5.7997,-5.7997,-5.7997,-5.7997,-5.7997,-5.7997,-5.7997,-5.7997,-5.7997,-5.7997,-5.7997,-5.7997,-5.7997,-5.7997,-5.7997,-5.7997,-5.7997,-5.7997,-5.7997,-5.7997,-5.7997,-5.7997,-5.7997,-5.7997,-5.7997,-5.7997,-5.7997,-5.7997,-5.7997,-5.7997,-2.4887,-2.7043,-2.9241,-2.9738,-3.2822,-3.5829,-3.6223,0.0,0.0,0.0,0.0,0.0,0.0,0.0,0.0,0.0,0.0,0.0,0.0,0.0,0.0,0.0,0.0,0.0,0.0,0.0,0.0,0.0,0.0,0.0,0.0,0.0,-5.7997,-5.7997,-5.7997,-5.7997,-5.7997,-5.7997,-5.7997,-5.7997,-5.7997,-5.7997,-5.7997,-5.7997,-5.7997,-5.7997,-5.7997,-5.7997,-5.7997,-5.7997,-5.7997,-5.7997,-5.7997,-5.7997,-5.7997,-5.7997,-5.7997,-5.7997,-5.7997,-5.7997,-5.7997,-5.7997,-5.7997,-5.7997,-5.7997,-5.7997,-5.7997,-5.7997,-5.7997,-5.7997,-5.7997,-5.7997,-5.7997,-5.7997,-5.7997,-5.7997,-5.7997,-5.7997,-5.7997,-5.7997,-5.7997,-5.7997,-5.7997,-5.7997,-5.7997,-5.7997,-5.7997,-5.7997,-5.7997,-5.7997,-5.7997,-5.7997,-5.7997,-5.7997,-5.7997,-5.7997,-5.7997,-5.7997,-5.7997,-5.7997,-5.7997,-5.7997,-5.7997,-5.7997,-5.7997,-5.7997,-5.7997,-5.7997,-5.7997,-5.7997,-5.7997,-5.7997,-2.6924,-2.8489,-2.9936,-3.1869,-3.2614,0.0,-3.5771,-3.6467,0.0,-3.86,0.0,0.0,0.0,0.0,0.0,0.0,0.0,0.0,0.0,0.0,0.0,0.0,0.0,0.0,0.0,0.0,0.0,0.0,0.0,0.0,0.0,0.0,0.0,-5.7997,-5.7997,-5.7997,-5.7997,-5.7997,-5.7997,-5.7997,-5.7997,-5.7997,-5.7997,-5.7997,-5.7997,-5.7997,-5.7997,-5.7997,-5.7997,-5.7997,-5.7997,-5.7997,-5.7997,-5.7997,-5.7997,-5.7997,-5.7997,-5.7997,-5.7997,-5.7997,-5.7997,-5.7997,-5.7997,-5.7997,-5.7997,-5.7997,-5.7997,-5.7997,-5.7997,-5.7997,-5.7997,-5.7997,-5.7997,-5.7997,-5.7997,-5.7997,-5.7997,-5.7997,-5.7997,-5.7997,-5.7997,-5.7997,-5.7997,-5.7997,-5.7997,-5.7997,-5.7997,-5.7997,-5.7997,-5.7997,-5.7997,-5.7997,-5.7997,-5.7997,-5.7997,-5.7997,-5.7997,-5.7997,-5.7997,-5.7997,-5.7997,-5.7997,-5.7997,-5.7997,-5.7997,-5.7997,-5.7997,-5.7997,-5.7997,-5.7997,-5.7997,-5.7997,-2.5309,-2.7843,-3.0501,-3.1599,-3.3536,0.0,0.0,-3.9956,-4.2008,0.0,0.0,0.0,0.0,0.0,0.0,0.0,0.0,0.0,0.0,0.0,0.0,0.0,0.0,0.0,0.0,0.0,0.0,0.0,0.0,0.0,0.0,0.0,0.0,-5.7997,-5.7997,-5.7997,-5.7997,-5.7997,-5.7997,-5.7997,-5.7997,-5.7997,-5.7997,-5.7997,-5.7997,-5.7997,-5.7997,-5.7997,-5.7997,-5.7997,-5.7997,-5.7997,-5.7997,-5.7997,-5.7997,-5.7997,-5.7997,-5.7997,-5.7997,-5.7997,-5.7997,-5.7997,-5.7997,-5.7997,-5.7997,-5.7997,-5.7997,-5.7997,-5.7997,-5.7997,-5.7997,-5.7997,-5.7997,-5.7997,-5.7997,-5.7997,-5.7997,-5.7997,-5.7997,-5.7997,-5.7997,-5.7997,-5.7997,-5.7997,-5.7997,-5.7997,-5.7997,-5.7997,-5.7997,-5.7997,-5.7997,-5.7997,-5.7997,-5.7997,-5.7997,-5.7997,-5.7997,-5.7997,-5.7997,-5.7997,-5.7997,-5.7997,-5.7997,-5.7997,-5.7997,-5.7997,-5.7997,-5.7997,-5.7997,-5.7997,-5.7997,-5.7997,-2.5078,-2.7886,-3.0957,0.0,0.0,0.0,-3.9469,-4.2096,-4.4466,0.0,0.0,0.0,0.0,0.0,0.0,0.0,0.0,0.0,0.0,0.0,0.0,0.0,0.0,0.0,0.0,0.0,0.0,0.0,0.0,0.0,0.0,0.0,0.0,0.0,-5.7997,-5.7997,-5.7997,-5.7997,-5.7997,-5.7997,-5.7997,-5.7997,-5.7997,-5.7997,-5.7997,-5.7997,-5.7997,-5.7997,-5.7997,-5.7997,-5.7997,-5.7997,-5.7997,-5.7997,-5.7997,-5.7997,-5.7997,-5.7997,-5.7997,-5.7997,-5.7997,-5.7997,-5.7997,-5.7997,-5.7997,-5.7997,-5.7997,-5.7997,-5.7997,-5.7997,-5.7997,-5.7997,-5.7997,-5.7997,-5.7997,-5.7997,-5.7997,-5.7997,-5.7997,-5.7997,-5.7997,-5.7997,-5.7997,-5.7997,-5.7997,-5.7997,-5.7997,-5.7997,-5.7997,-5.7997,-5.7997,-5.7997,-5.7997,-5.7997,-5.7997,-5.7997,-5.7997,-5.7997,-5.7997,-5.7997,-5.7997,-5.7997,-5.7997,-5.7997,-5.7997,-5.7997,-5.7997,-5.7997,-5.7997,-5.7997,-5.7997,-5.7997,-2.6989,-2.8967,-3.1336,0.0,0.0,0.0,0.0,0.0,0.0,0.0,0.0,0.0,0.0,0.0,0.0,0.0,0.0,0.0,0.0,0.0,0.0,0.0,0.0,0.0,0.0,0.0,0.0,0.0,0.0,0.0,0.0,0.0,0.0,0.0,-5.7978,-5.7978,-5.7978,-5.7978,-5.7978,-5.7978,-5.7978,-5.7997,-5.7997,-5.7997,-5.7997,-5.7997,-5.7997,-5.7997,-5.7997,-5.7997,-5.7997,-5.7997,-5.7997,-5.7997,-5.7997,-5.7997,-5.7997,-5.7997,-5.7997,-5.7997,-5.7997,-5.7997,-5.7997,-5.7997,-5.7997,-5.7997,-5.7997,-5.7997,-5.7997,-5.7997,-5.7997,-5.7997,-5.7997,-5.7997,-5.7997,-5.7997,-5.7997,-5.7997,-5.7997,-5.7997,-5.7997,-5.7997,-5.7997,-5.7997,-5.7997,-5.7997,-5.7997,-5.7997,-5.7997,-5.7997,-5.7997,-5.7997,-5.7997,-5.7997,-5.7997,-5.7997,-5.7997,-5.7997,-5.7997,-5.7997,-5.7997,-5.7997,-5.7997,-5.7997,-5.7997,-5.7997,-5.7997,-5.7997,-5.7997,-5.7997,-5.7997,-5.7997,-2.5872,-2.9134,0.0,0.0,0.0,0.0,0.0,0.0,0.0,0.0,0.0,0.0,0.0,0.0,0.0,0.0,0.0,0.0,0.0,0.0,0.0,0.0,0.0,0.0,0.0,0.0,0.0,0.0,0.0,0.0,0.0,0.0,0.0,0.0,-5.6308,-5.6308,-5.6308,-5.6308,-5.6308,-5.6308,-5.6895,-5.7446,-5.7997,-5.7997,-5.7997,-5.7997,-5.7997,-5.7997,-5.7997,-5.7997,-5.7997,-5.7997,-5.7997,-5.7997,-5.7997,-5.7997,-5.7997,-5.7997,-5.7997,-5.7997,-5.7997,-5.7997,-5.7997,-5.7997,-5.7997,-5.7997,-5.7997,-5.7997,-5.7997,-5.7997,-5.7997,-5.7997,-5.7997,-5.7997,-5.7997,-5.7997,-5.7997,-5.7997,-5.7997,-5.7997,-5.7997,-5.7997,-5.7997,-5.7997,-5.7997,-5.7997,-5.7997,-5.7997,-5.7997,-5.7997,-5.7997,-5.7997,-5.7997,-5.7997,-5.7997,-5.7997,-5.7997,-5.7997,-5.7997,-5.7997,-5.7997,-5.7997,-5.7997,-5.7997,-5.7997,-5.7997,-5.7997,-5.7997,-5.7997,-5.7997,-5.7997,-5.7997,-2.7734,0.0,0.0,0.0,0.0,0.0,0.0,0.0,0.0,0.0,0.0,0.0,0.0,0.0,0.0,0.0,0.0,0.0,0.0,0.0,0.0,0.0,0.0,0.0,0.0,0.0,0.0,0.0,0.0,0.0,0.0,0.0,0.0,0.0,-5.5592,-5.5592,-5.5592,-5.5592,-5.5592,-5.5592,-5.6088,-5.6583,-5.706,-5.7703,-5.7997,-5.7997,-5.7997,-5.7997,-5.7997,-5.7997,-5.7997,-5.7997,-5.7997,-5.7997,-5.7997,-5.7997,-5.7997,-5.7997,-5.7997,-5.7997,-5.7997,-5.7997,-5.7997,-5.7997,-5.7997,-5.7997,-5.7997,-5.7997,-5.7997,-5.7997,-5.7997,-5.7997,-5.7997,-5.7997,-5.7997,-5.7997,-5.7997,-5.7997,-5.7997,-5.7997,-5.7997,-5.7997,-5.7997,-5.7997,-5.7997,-5.7997,-5.7997,-5.7997,-5.7997,-5.7997,-5.7997,-5.7997,-5.7997,-5.7997,-5.7997,-5.7997,-5.7997,-5.7997,-5.7997,-5.7997,-5.7997,-5.7997,-5.7997,-5.7997,-5.7997,-5.7997,-5.7997,-5.7997,-5.7997,-5.7997,-5.7997,-5.7997,-3.0998,0.0,0.0,0.0,0.0,0.0,0.0,0.0,0.0,0.0,0.0,0.0,0.0,0.0,0.0,0.0,0.0,0.0,0.0,0.0,0.0,0.0,0.0,0.0,0.0,0.0,0.0,0.0,0.0,0.0,0.0,0.0,0.0,-5.5372,-5.5372,-5.5372,-5.5372,-5.5372,-5.5372,-5.5372,-5.5445,-5.5482,-5.5537,-5.7079,-5.7813,-5.7886,-5.7886,-5.7923,-5.7997,-5.7997,-5.7997,-5.7997,-5.7997,-5.7997,-5.7997,-5.7997,-5.7997,-5.7997,-5.7997,-5.7997,-5.7997,-5.7997,-5.7997,-5.7997,-5.7997,-5.7997,-5.7997,-5.7997,-5.7997,-5.7997,-5.7997,-5.7997,-5.7997,-5.7997,-5.7997,-5.7997,-5.7997,-5.7997,-5.7997,-5.7997,-5.7997,-5.7997,-5.7997,-5.7997,-5.7997,-5.7997,-5.7997,-5.7997,-5.7997,-5.7997,-5.7997,-5.7997,-5.7997,-5.7997,-5.7997,-5.7997,-5.7997,-5.7997,-5.7997,-5.7997,-5.7997,-5.7997,-5.7997,-5.7997,-5.7997,-5.7997,-5.7997,-5.7997,-5.7997,-5.7997,-5.7997,-5.7997,0.0,0.0,0.0,0.0,0.0,0.0,0.0,0.0,0.0,0.0,0.0,0.0,0.0,0.0,0.0,0.0,0.0,0.0,0.0,0.0,0.0,0.0,0.0,0.0,0.0,0.0,0.0,0.0,0.0,0.0,0.0,0.0,0.0,-5.372,-5.372,-5.372,-5.372,-5.372,-5.372,0.0,-5.4363,-5.4656,-5.4693,-5.5666,-5.6455,-5.706,-5.706,-5.7428,-5.7997,-5.7997,-5.7997,-5.7997,-5.7997,-5.7997,-5.7997,-5.7997,-5.7997,-5.7997,-5.7997,-5.7997,-5.7997,-5.7997,-5.7997,-5.7997,-5.7997,-5.7997,-5.7997,-5.7997,-5.7997,-5.7997,-5.7997,-5.7997,-5.7997,-5.7997,-5.7997,-5.7997,-5.7997,-5.7997,-5.7997,-5.7997,-5.7997,-5.7997,-5.7997,-5.7997,-5.7997,-5.7997,-5.7997,-5.7997,-5.7997,-5.7997,-5.7997,-5.7997,-5.7997,-5.7997,-5.7997,-5.7997,-5.7997,-5.7997,-5.7997,-5.7997,-5.7997,-5.7997,-5.7997,-5.7997,-5.7997,-5.7997,-5.7997,-5.7997,-5.7997,-5.7997,-5.7997,-5.7997,0.0,0.0,0.0,0.0,0.0,0.0,0.0,0.0,0.0,0.0,0.0,0.0,0.0,0.0,0.0,0.0,0.0,0.0,0.0,0.0,0.0,0.0,0.0,0.0,0.0,0.0,0.0,0.0,0.0,0.0,0.0,-5.3206,-5.3206,-5.3206,-5.3206,-5.3206,-5.3206,-5.3206,-5.3206,-5.3225,-5.3628,-5.383,-5.3867,-5.506,-5.5831,-5.6235,-5.6235,-5.6455,-5.6877,-5.7262,-5.7428,-5.7464,-5.785,-5.7997,-5.7997,-5.7997,-5.7997,-5.7997,-5.7997,-5.7997,-5.7997,-5.7997,-5.7997,-5.7997,-5.7997,-5.7997,-5.7997,-5.7997,-5.7997,-5.7997,-5.7997,-5.7997,-5.7997,-5.7997,-5.7997,-5.7997,-5.7997,-5.7997,-5.7997,-5.7997,-5.7997,-5.7997,-5.7997,-5.7997,-5.7997,-5.7997,-5.7997,-5.7997,-5.7997,-5.7997,-5.7997,-5.7997,-5.7997,-5.7997,-5.7997,-5.7997,-5.7997,-5.7997,-5.7997,-5.7997,-5.7997,-5.7997,-5.7997,-5.7997,-5.7997,-5.7997,-5.7997,-5.7997,-5.7997,-5.7997,-5.7997,-5.7997,0.0,0.0,0.0,0.0,0.0,0.0,0.0,0.0,0.0,0.0,0.0,0.0,0.0,0.0,0.0,0.0,0.0,0.0,0.0,0.0,0.0,0.0,0.0,0.0,0.0,0.0,0.0,0.0,0.0,0.0,-5.2803,-5.2931,-5.3004,-5.3004,-5.3133,-5.3206,-5.3206,-5.3206,-5.3206,-5.3206,-5.3206,-5.3206,-5.3261,-5.4583,-5.5244,-5.5372,-5.5372,-5.5464,-5.5647,-5.6326,-5.6602,-5.6657,-5.7336,-5.7666,-5.7795,-5.7795,-5.7886,-5.7997,-5.7997,-5.7997,-5.7997,-5.7997,-5.7997,-5.7997,-5.7997,-5.7997,-5.7997,-5.7997,-5.7997,-5.7997,-5.7997,-5.7997,-5.7997,-5.7997,-5.7997,-5.7997,-5.7997,-5.7997,-5.7997,-5.7997,-5.7997,-5.7997,-5.7997,-5.7997,-5.7997,-5.7997,-5.7997,-5.7997,-5.7997,-5.7997,-5.7997,-5.7997,-5.7997,-5.7997,-5.7997,-5.7997,-5.7997,-5.7997,-5.7997,-5.7997,-5.7997,-5.7997,-5.7997,-5.7997,-5.7997,-5.7997,-5.7997,-5.7997,-5.7997,-5.7997,-5.7997,-5.7997,0.0,0.0,0.0,0.0,0.0,0.0,0.0,0.0,0.0,0.0,0.0,0.0,0.0,0.0,0.0,0.0,0.0,0.0,0.0,0.0,0.0,0.0,0.0,0.0,0.0,0.0,0.0,0.0,0.0,0.0,-5.1132,-5.1775,-5.216,-5.216,-5.2839,-5.3206,-5.3206,-5.3206,-5.3206,-5.3206,-5.3206,-5.3206,-5.3225,-5.3427,-5.3904,-5.4564,-5.4564,-5.495,-5.5592,-5.5702,-5.5757,-5.5757,-5.5868,-5.6345,-5.6969,-5.6969,-5.7409,-5.7997,-5.7997,-5.7997,-5.7997,-5.7997,-5.7997,-5.7997,-5.7997,-5.7997,-5.7997,-5.7997,-5.7997,-5.7997,-5.7997,-5.7997,-5.7997,-5.7997,-5.7997,-5.7997,-5.7997,-5.7997,-5.7997,-5.7997,-5.7997,-5.7997,-5.7997,-5.7997,-5.7997,-5.7997,-5.7997,-5.7997,-5.7997,-5.7997,-5.7997,-5.7997,-5.7997,-5.7997,-5.7997,-5.7997,-5.7997,-5.7997,-5.7997,-5.7997,-5.7997,-5.7997,-5.7997,-5.7997,-5.7997,-5.7997,-5.7997,-5.7997,-5.7997,-5.7997,-5.7997,-5.7997,0.0,0.0,0.0,0.0,0.0,0.0,0.0,0.0,0.0,0.0,0.0,0.0,0.0,0.0,0.0,0.0,0.0,0.0,0.0,0.0,0.0,0.0,0.0,0.0,0.0,0.0,0.0,0.0,0.0,-5.0802,-5.0802,-5.1132,-5.1334,-5.1334,-5.1683,-5.1867,-5.1867,-5.1867,-5.2087,-5.2527,-5.2986,-5.3206,-5.3206,-5.3206,-5.339,-5.3739,-5.3739,-5.394,-5.4289,-5.473,-5.4932,-5.4968,-5.5409,-5.5812,-5.6124,-5.6124,-5.6638,-5.7336,-5.7336,-5.7611,-5.7997,-5.7997,-5.7997,-5.7997,-5.7997,-5.7997,-5.7997,-5.7997,-5.7997,-5.7997,-5.7997,-5.7997,-5.7997,-5.7997,-5.7997,-5.7997,-5.7997,-5.7997,-5.7997,-5.7997,-5.7997,-5.7997,-5.7997,-5.7997,-5.7997,-5.7997,-5.7997,-5.7997,-5.7997,-5.7997,-5.7997,-5.7997,-5.7997,-5.7997,-5.7997,-5.7997,-5.7997,-5.7997,-5.7997,-5.7997,-5.7997,-5.7997,-5.7997,-5.7997,-5.7997,-5.7997,-5.7997,-5.7997,-5.7997,-5.7997,-5.7997,-5.7997,0.0,0.0,0.0,0.0,0.0,0.0,0.0,0.0,0.0,0.0,0.0,0.0,0.0,0.0,0.0,0.0,0.0,0.0,0.0,0.0,0.0,0.0,0.0,0.0,0.0,0.0,0.0,0.0,0.0,-5.016,-5.016,-5.038,-5.049,-5.049,-5.0692,-5.0802,-5.0802,-5.0802,-5.1096,-5.1701,-5.2509,-5.2913,-5.2913,-5.3115,-5.3206,-5.3206,-5.3206,-5.3206,-5.3261,-5.3849,-5.4106,-5.4161,-5.4748,-5.5097,-5.5299,-5.5299,-5.5794,-5.651,-5.651,-5.7024,-5.7703,-5.7703,-5.7831,-5.7997,-5.7997,-5.7997,-5.7997,-5.7997,-5.7997,-5.7997,-5.7997,-5.7997,-5.7997,-5.7997,-5.7997,-5.7997,-5.7997,-5.7997,-5.7997,-5.7997,-5.7997,-5.7997,-5.7997,-5.7997,-5.7997,-5.7997,-5.7997,-5.7997,-5.7997,-5.7997,-5.7997,-5.7997,-5.7997,-5.7997,-5.7997,-5.7997,-5.7997,-5.7997,-5.7997,-5.7997,-5.7997,-5.7997,-5.7997,-5.7997,-5.7997,-5.7997,-5.7997,-5.7997,-5.7997,-5.7997,-5.7997,-5.7997,0.0,0.0,0.0,0.0,0.0,0.0,0.0,0.0,0.0,0.0,0.0,0.0,0.0,0.0,0.0,0.0,0.0,0.0,0.0,0.0,0.0,0.0,0.0,0.0,0.0,0.0,0.0,0.0,0.0,-4.8434,-4.8434,-4.9205,-4.9646,-4.9646,-5.0398,-5.0802,-5.0802,-5.0802,-5.082,-5.0875,-5.1683,-5.205,-5.2087,-5.2858,-5.3206,-5.3206,-5.3206,-5.3206,-5.3206,-5.3261,-5.328,-5.328,-5.3316,-5.3794,-5.4454,-5.4454,-5.4968,-5.5647,-5.5647,-5.618,-5.6877,-5.6877,-5.7373,-5.7997,-5.7997,-5.7997,-5.7997,-5.7997,-5.7997,-5.7997,-5.7997,-5.7997,-5.7997,-5.7997,-5.7997,-5.7997,-5.7997,-5.7997,-5.7997,-5.7997,-5.7997,-5.7997,-5.7997,-5.7997,-5.7997,-5.7997,-5.7997,-5.7997,-5.7997,-5.7997,-5.7997,-5.7997,-5.7997,-5.7997,-5.7997,-5.7997,-5.7997,-5.7997,-5.7997,-5.7997,-5.7997,-5.7997,-5.7997,-5.7997,-5.7997,-5.7997,-5.7997,-5.7997,-5.7997,-5.7997,-5.7997,-5.7997,0.0,0.0,0.0,0.0,0.0,0.0,0.0,0.0,0.0,0.0,0.0,0.0,0.0,0.0,0.0,0.0,0.0,0.0,0.0,0.0,0.0,0.0,0.0,0.0,0.0,0.0,0.0,0.0,0.0,0.0,-4.8306,-4.86,-4.8765,-4.8765,-4.9058,-4.9205,-4.9205,-4.9738,-5.0013,-5.0031,-5.0839,-5.1224,-5.1261,-5.2068,-5.2435,-5.2454,-5.2986,-5.3206,-5.3206,-5.3206,-5.3206,-5.3206,-5.3206,-5.339,-5.3628,-5.3628,-5.4142,-5.4821,-5.4821,-5.5354,-5.6106,-5.6638,-5.6987,-5.7336,-5.7831,-5.7997,-5.7997,-5.7997,-5.7997,-5.7997,-5.7997,-5.7997,-5.7997,-5.7997,-5.7997,-5.7997,-5.7997,-5.7997,-5.7997,-5.7997,-5.7997,-5.7997,-5.7997,-5.7997,-5.7997,-5.7997,-5.7997,-5.7997,-5.7997,-5.7997,-5.7997,-5.7997,-5.7997,-5.7997,-5.7997,-5.7997,-5.7997,-5.7997,-5.7997,-5.7997,-5.7997,-5.7997,-5.7997,-5.7997,-5.7997,-5.7997,-5.7997,-5.7997,-5.7997,-5.7997,-5.7997,-5.7997,0.0,0.0,0.0,0.0,0.0,0.0,0.0,0.0,0.0,0.0,0.0,0.0,0.0,0.0,0.0,0.0,0.0,0.0,0.0,0.0,0.0,0.0,0.0,0.0,0.0,0.0,0.0,0.0,0.0,0.0,-4.7921,-4.8159,-4.8306,-4.8306,-4.8306,-4.8306,-4.8306,-4.8875,-4.915,-4.9169,-4.9994,-5.0398,-5.0417,-5.1224,-5.1591,-5.1628,-5.2454,-5.2968,-5.3206,-5.3206,-5.3206,-5.3206,-5.3206,-5.3206,-5.3206,-5.3206,-5.3555,-5.4014,-5.4014,-5.4528,-5.528,-5.5831,-5.618,-5.6547,-5.7354,-5.7593,-5.7648,-5.7923,-5.7997,-5.7997,-5.7997,-5.7997,-5.7997,-5.7997,-5.7997,-5.7997,-5.7997,-5.7997,-5.7997,-5.7997,-5.7997,-5.7997,-5.7997,-5.7997,-5.7997,-5.7997,-5.7997,-5.7997,-5.7997,-5.7997,-5.7997,-5.7997,-5.7997,-5.7997,-5.7997,-5.7997,-5.7997,-5.7997,-5.7997,-5.7997,-5.7997,-5.7997,-5.7997,-5.7997,-5.7997,-5.7997,-5.7997,-5.7997,-5.7997,-5.7997,-5.7997,-5.7997,0.0,0.0,0.0,0.0,0.0,0.0,0.0,0.0,0.0,0.0,0.0,0.0,0.0,0.0,0.0,0.0,0.0,0.0,0.0,0.0,0.0,0.0,0.0,0.0,0.0,0.0,0.0,0.0,0.0,-4.7039,-4.7039,-4.7847,-4.8269,-4.8269,-4.8306,-4.8306,-4.8306,-4.8306,-4.8306,-4.8324,-4.915,-4.9536,-4.9572,-5.0398,-5.0765,-5.082,-5.161,-5.2417,-5.3188,-5.3206,-5.3206,-5.3206,-5.3206,-5.3206,-5.3206,-5.3206,-5.3206,-5.3206,-5.3206,-5.372,-5.4363,-5.4399,-5.4932,-5.5702,-5.6528,-5.6767,-5.6932,-5.7703,-5.7941,-5.796,-5.7997,-5.7997,-5.7997,-5.7997,-5.7997,-5.7997,-5.7997,-5.7997,-5.7997,-5.7997,-5.7997,-5.7997,-5.7997,-5.7997,-5.7997,-5.7997,-5.7997,-5.7997,-5.7997,-5.7997,-5.7997,-5.7997,-5.7997,-5.7997,-5.7997,-5.7997,-5.7997,-5.7997,-5.7997,-5.7997,-5.7997,-5.7997,-5.7997,-5.7997,-5.7997,-5.7997,-5.7997,-5.7997,-5.7997,-5.7997,-5.7997,-5.7997,-2.1877,0.0,0.0,0.0,0.0,0.0,0.0,0.0,0.0,0.0,0.0,0.0,0.0,0.0,0.0,0.0,0.0,0.0,0.0,0.0,0.0,0.0,0.0,0.0,0.0,0.0,0.0,0.0,-4.6104,-4.6232,-4.6232,-4.7003,-4.7443,-4.7443,-4.8012,-4.8306,-4.8306,-4.8306,-4.8306,-4.8306,-4.8545,-4.8655,-4.8691,-4.9536,-4.9921,-4.9976,-5.0784,-5.1591,-5.238,-5.2968,-5.3206,-5.3206,-5.3206,-5.3206,-5.3206,-5.3206,-5.3206,-5.3206,-5.3206,-5.3353,-5.3628,-5.4216,-5.4546,-5.4876,-5.5684,-5.5923,-5.5978,-5.6198,-5.6675,-5.7281,-5.785,-5.7997,-5.7997,-5.7997,-5.7997,-5.7997,-5.7997,-5.7997,-5.7997,-5.7997,-5.7997,-5.7997,-5.7997,-5.7997,-5.7997,-5.7997,-5.7997,-5.7997,-5.7997,-5.7997,-5.7997,-5.7997,-5.7997,-5.7997,-5.7997,-5.7997,-5.7997,-5.7997,-5.7997,-5.7997,-5.7997,-5.7997,-5.7997,-5.7997,-5.7997,-5.7997,-5.7997,-5.7997,-5.7997,-5.7997,-5.7997,-5.7997,-2.3015,-2.3731,0.0,0.0,0.0,0.0,0.0,0.0,0.0,0.0,0.0,0.0,0.0,0.0,0.0,0.0,0.0,0.0,0.0,0.0,0.0,0.0,0.0,0.0,0.0,0.0,0.0,-4.4892,-4.5204,-4.5553,-4.5883,-4.6342,-4.6617,-4.6617,-4.7058,-4.7462,-4.781,-4.781,-4.7976,-4.8306,-4.8306,-4.8306,-4.8324,-4.882,-4.9058,-4.9095,-4.9939,-5.0563,-5.1041,-5.1867,-5.2601,-5.3206,-5.3206,-5.3206,-5.3206,-5.3206,-5.3206,-5.3206,-5.3206,-5.3206,-5.3298,-5.3757,-5.3904,-5.4051,-5.4858,-5.5097,-5.517,-5.55,-5.5941,-5.6418,-5.6877,-5.6987,-5.7079,-5.7428,-5.7501,-5.7593,-5.7923,-5.7997,-5.7997,-5.7997,-5.7997,-5.7997,-5.7997,-5.7997,-5.7997,-5.7997,-5.7997,-5.7997,-5.7997,-5.7997,-5.7997,-5.7997,-5.7997,-5.7997,-5.7997,-5.7997,-5.7997,-5.7997,-5.7997,-5.7997,-5.7997,-5.7997,-5.7997,-5.7997,-5.7997,-5.7997,-5.7997,-5.7997,-5.7997,-5.7997,-5.7997,-5.7997,-2.4942,-2.5254,0.0,0.0,0.0,0.0,-2.9879,-2.9696,0.0,0.0,0.0,0.0,0.0,0.0,0.0,0.0,0.0,0.0,0.0,0.0,0.0,0.0,0.0,0.0,0.0,-4.3497,-4.3497,-4.3497,-4.4158,-4.4892,-4.559,-4.5718,-4.5773,-4.5773,-4.5847,-4.625,-4.6966,-4.6985,-4.7388,-4.8177,-4.8177,-4.8214,-4.8306,-4.8306,-4.8306,-4.8343,-4.9114,-4.9499,-4.9646,-5.0362,-5.161,-5.3078,-5.3078,-5.3133,-5.3206,-5.3206,-5.3206,-5.3206,-5.3206,-5.3206,-5.3206,-5.3206,-5.3206,-5.3335,-5.4051,-5.4271,-5.4436,-5.5225,-5.5464,-5.5482,-5.5574,-5.5592,-5.5776,-5.651,-5.6675,-5.6859,-5.7574,-5.7721,-5.7721,-5.7721,-5.7868,-5.7997,-5.7997,-5.7997,-5.7997,-5.7997,-5.7997,-5.7997,-5.7997,-5.7997,-5.7997,-5.7997,-5.7997,-5.7997,-5.7997,-5.7997,-5.7997,-5.7997,-5.7997,-5.7997,-5.7997,-5.7997,-5.7997,-5.7997,-5.7997,-5.7997,-5.7997,-5.7997,-5.7997,-5.7997,-5.7997,-5.7997,-2.8282,-2.8191,-2.8099,-2.7273,0.0,0.0,0.0,-2.6851,0.0,0.0,0.0,0.0,0.0,0.0,0.0,0.0,0.0,0.0,0.0,0.0,0.0,0.0,0.0,0.0,0.0,-4.3497,-4.3497,-4.3497,-4.3644,-4.3791,-4.3956,-4.458,-4.4947,-4.4947,-4.5571,-4.5975,-4.614,-4.614,-4.6544,-4.7352,-4.7352,-4.7682,-4.8306,-4.8306,-4.8306,-4.8324,-4.8489,-4.8948,-4.9591,-4.9756,-5.0765,-5.2234,-5.2234,-5.2637,-5.3206,-5.3206,-5.3206,-5.3206,-5.3206,-5.3206,-5.3206,-5.3206,-5.3206,-5.3243,-5.339,-5.3445,-5.361,-5.4418,-5.4638,-5.4785,-5.5427,-5.5592,-5.5629,-5.5794,-5.5831,-5.5868,-5.6014,-5.6069,-5.6069,-5.6069,-5.7097,-5.7997,-5.7997,-5.7997,-5.7997,-5.7997,-5.7997,-5.7997,-5.7997,-5.7997,-5.7997,-5.7997,-5.7997,-5.7997,-5.7997,-5.7997,-5.7997,-5.7997,-5.7997,-5.7997,-5.7997,-5.7997,-5.7997,-5.7997,-5.7997,-5.7997,-5.7997,-5.7997,-5.7997,-5.7997,-5.7997,-5.7997,-2.9934,-2.9604,-2.9512,-2.9108,0.0,0.0,0.0,0.0,0.0,0.0,0.0,0.0,0.0,0.0,0.0,0.0,0.0,0.0,0.0,0.0,0.0,0.0,0.0,0.0,0.0,-4.3259,-4.3497,-4.3497,-4.3497,-4.3497,-4.3497,-4.3883,-4.4103,-4.4103,-4.4488,-4.4892,-4.5296,-4.5296,-4.5718,-4.6507,-4.6507,-4.6929,-4.7719,-4.7719,-4.7921,-4.8306,-4.8306,-4.8545,-4.8948,-4.8948,-4.9664,-5.082,-5.1242,-5.1885,-5.2601,-5.2601,-5.2858,-5.3206,-5.3206,-5.3206,-5.3206,-5.3206,-5.3206,-5.3206,-5.3206,-5.3206,-5.3298,-5.3702,-5.3812,-5.3904,-5.4308,-5.4399,-5.4491,-5.4913,-5.4987,-5.5097,-5.55,-5.5592,-5.5592,-5.5592,-5.6235,-5.6932,-5.7336,-5.7721,-5.7997,-5.7997,-5.7997,-5.7997,-5.7997,-5.7997,-5.7997,-5.7997,-5.7997,-5.7997,-5.7997,-5.7997,-5.7997,-5.7997,-5.7997,-5.7997,-5.7997,-5.7997,-5.7997,-5.7997,-5.7997,-5.7997,-5.7997,-5.7997,-5.7997,-5.7997,-5.7997,-5.7997,0.0,0.0,0.0,0.0,0.0,-3.0265,0.0,0.0,0.0,-3.0044,0.0,0.0,0.0,0.0,0.0,0.0,0.0,0.0,0.0,0.0,0.0,0.0,0.0,0.0,0.0,-4.2139,-4.258,-4.3222,-4.2837,-4.2837,-4.3461,-4.3497,-4.3497,-4.3497,-4.3497,-4.3809,-4.447,-4.447,-4.4874,-4.5663,-4.5663,-4.6104,-4.6893,-4.704,-4.7462,-4.8086,-4.8233,-4.8306,-4.8306,-4.8306,-4.871,-4.9426,-5.0251,-5.1059,-5.1756,-5.1756,-5.2289,-5.2968,-5.2968,-5.3078,-5.3206,-5.3206,-5.3206,-5.3206,-5.3206,-5.3206,-5.3206,-5.3206,-5.3206,-5.3206,-5.3206,-5.3206,-5.3371,-5.4014,-5.4179,-5.4344,-5.4987,-5.5133,-5.5133,-5.5133,-5.5244,-5.5611,-5.6436,-5.7116,-5.7538,-5.7538,-5.7666,-5.7776,-5.7776,-5.7905,-5.7997,-5.7997,-5.7997,-5.7941,-5.7776,-5.7776,-5.7703,-5.7538,-5.7538,-5.7538,-5.7538,-5.7685,-5.7831,-5.7997,-5.7997,-5.7997,-5.7997,-5.7997,-5.7997,-5.7997,-5.7997,-5.7997,0.0,0.0,0.0,0.0,-3.344,0.0,0.0,0.0,-2.9292,-2.7512,0.0,0.0,0.0,0.0,0.0,0.0,0.0,0.0,0.0,0.0,0.0,0.0,0.0,0.0,0.0,0.0,-3.935,-4.2213,-4.0451,-4.0487,-4.3332,-4.3497,-4.3497,-4.3497,-4.3497,-4.3534,-4.3626,-4.3626,-4.403,-4.4856,-4.4856,-4.5259,-4.6067,-4.6783,-4.713,-4.7297,-4.7994,-4.8306,-4.8306,-4.8306,-4.8361,-4.8526,-4.9389,-5.0215,-5.0949,-5.0949,-5.1444,-5.2142,-5.2142,-5.2601,-5.3206,-5.3206,-5.3206,-5.3206,-5.3206,-5.3206,-5.3206,-5.3206,-5.3206,-5.3206,-5.3206,-5.3206,-5.3225,-5.3316,-5.3353,-5.3371,-5.3463,-5.3482,-5.3482,-5.3482,-5.4051,-5.4785,-5.5592,-5.5794,-5.5868,-5.5868,-5.6473,-5.695,-5.695,-5.7556,-5.7997,-5.7997,-5.7997,-5.7703,-5.7005,-5.695,-5.6638,-5.5904,-5.5868,-5.5868,-5.5868,-5.6565,-5.7281,-5.7997,-5.7997,-5.7997,-5.7997,-5.7997,-5.7997,-5.7997,-5.7997,-5.7997,0.0,0.0,0.0,0.0,0.0,0.0,-3.021,0.0,-2.8925,0.0,0.0,0.0,0.0,0.0,0.0,0.0,0.0,0.0,0.0,0.0,0.0,0.0,0.0,0.0,0.0,0.0,0.0,0.0,0.0,-3.9203,-4.1956,-4.2543,-4.302,-4.3479,-4.3497,-4.3497,-4.3497,-4.3497,-4.3663,-4.3993,-4.3993,-4.4433,-4.5223,-4.5553,-4.6232,-4.7094,-4.748,-4.7884,-4.8306,-4.8306,-4.8306,-4.8343,-4.8691,-4.9352,-5.0086,-5.0086,-5.06,-5.1371,-5.183,-5.2215,-5.2582,-5.3059,-5.3206,-5.3206,-5.3206,-5.3206,-5.3206,-5.3206,-5.3206,-5.3206,-5.3206,-5.3206,-5.3206,-5.3206,-5.3206,-5.3206,-5.3206,-5.3206,-5.3206,-5.3206,-5.3482,-5.3812,-5.4161,-5.4968,-5.5592,-5.5592,-5.5886,-5.6106,-5.6106,-5.64,-5.6602,-5.6602,-5.6602,-5.6455,-5.6124,-5.6106,-5.5959,-5.5611,-5.5592,-5.5592,-5.5592,-5.6363,-5.6748,-5.6602,-5.706,-5.7299,-5.7299,-5.7299,-5.7538,-5.7997,-5.7997,-5.7997,-3.7239,0.0,0.0,0.0,0.0,0.0,0.0,0.0,0.0,0.0,0.0,0.0,0.0,0.0,0.0,0.0,0.0,0.0,0.0,0.0,0.0,0.0,0.0,0.0,0.0,0.0,0.0,0.0,0.0,0.0,-4.0928,-4.1662,-4.2433,-4.3461,-4.3497,-4.3497,-4.3497,-4.3497,-4.3497,-4.3497,-4.3497,-4.3809,-4.4378,-4.4617,-4.5351,-4.6489,-4.6929,-4.7443,-4.7994,-4.8214,-4.8306,-4.8306,-4.8306,-4.8691,-4.9224,-4.9224,-4.9756,-5.0545,-5.1132,-5.1628,-5.2123,-5.2949,-5.3206,-5.3206,-5.3206,-5.3206,-5.3206,-5.3206,-5.3206,-5.3206,-5.3206,-5.3206,-5.3206,-5.3206,-5.3206,-5.3206,-5.3206,-5.3206,-5.3206,-5.3206,-5.3206,-5.3206,-5.3206,-5.4179,-5.4932,-5.4932,-5.5115,-5.5262,-5.5262,-5.5445,-5.5592,-5.5592,-5.5592,-5.55,-5.528,-5.5262,-5.517,-5.495,-5.4932,-5.5042,-5.5244,-5.5831,-5.5978,-5.5592,-5.6161,-5.6473,-5.6473,-5.6473,-5.6767,-5.7354,-5.7776,-5.7997,0.0,0.0,0.0,-3.5037,0.0,0.0,0.0,0.0,-3.2045,0.0,0.0,0.0,0.0,0.0,-2.9586,-2.8044,0.0,0.0,0.0,0.0,0.0,0.0,0.0,0.0,0.0,0.0,0.0,0.0,0.0,0.0,-4.0763,-4.113,-4.1864,-4.3442,-4.3497,-4.3497,-4.3497,-4.3497,-4.3497,-4.3497,-4.3497,-4.3497,-4.3552,-4.4342,-4.4745,-4.4874,-4.6434,-4.7131,-4.7223,-4.7994,-4.8306,-4.8306,-4.8306,-4.8324,-4.8343,-4.8343,-4.8893,-4.9627,-4.9646,-5.0692,-5.2123,-5.2949,-5.3206,-5.3206,-5.3206,-5.3206,-5.3206,-5.3206,-5.3206,-5.3206,-5.3206,-5.3206,-5.3206,-5.3206,-5.3206,-5.3206,-5.3206,-5.3206,-5.3206,-5.3206,-5.3206,-5.3206,-5.3206,-5.3243,-5.3298,-5.3298,-5.394,-5.4436,-5.4436,-5.5115,-5.5592,-5.5592,-5.5592,-5.5262,-5.4491,-5.4436,-5.4106,-5.3335,-5.3298,-5.3628,-5.4418,-5.4454,-5.4821,-5.5574,-5.5611,-5.5629,-5.5629,-5.5629,-5.5647,-5.5702,-5.7262,-5.7997,0.0,0.0,-4.1001,-3.7184,0.0,0.0,0.0,0.0,0.0,0.0,0.0,0.0,0.0,0.0,-2.9861,-2.8778,-2.7714,0.0,0.0,0.0,0.0,0.0,0.0,0.0,0.0,0.0,0.0,0.0,0.0,0.0,0.0,-4.023,-4.1589,-4.2671,-4.3222,-4.3497,-4.3497,-4.3497,-4.3497,-4.3497,-4.3497,-4.3497,-4.3497,-4.3773,-4.4195,-4.4745,-4.5296,-4.614,-4.7094,-4.7407,-4.7829,-4.8306,-4.8306,-4.8306,-4.8306,-4.8306,-4.8489,-4.882,-4.9389,-5.0288,-5.1334,-5.2142,-5.2417,-5.2509,-5.3041,-5.3206,-5.3206,-5.3206,-5.3206,-5.3206,-5.3206,-5.3206,-5.3206,-5.3206,-5.3206,-5.3206,-5.3206,-5.3206,-5.3206,-5.3206,-5.3206,-5.3206,-5.3206,-5.3206,-5.3206,-5.3206,-5.3445,-5.361,-5.361,-5.3849,-5.4014,-5.4014,-5.4014,-5.3904,-5.3628,-5.361,-5.35,-5.3225,-5.3206,-5.3335,-5.3592,-5.4124,-5.4289,-5.4014,-5.4528,-5.4803,-5.4803,-5.4803,-5.5078,-5.5592,-5.6143,-5.64,-4.1277,-4.1699,0.0,-3.8652,-3.7533,0.0,-3.2999,0.0,0.0,0.0,0.0,0.0,0.0,0.0,0.0,-2.9989,-2.8264,-2.6557,0.0,0.0,0.0,0.0,0.0,0.0,0.0,0.0,-2.8613,-3.0797,0.0,0.0,0.0,0.0,-4.0891,-4.2268,-4.3075,-4.3497,-4.3497,-4.3497,-4.3497,-4.3497,-4.3497,-4.3497,-4.3497,-4.3497,-4.3773,-4.4287,-4.458,-4.5296,-4.6305,-4.6874,-4.7425,-4.7921,-4.8196,-4.8306,-4.8306,-4.8306,-4.8306,-4.8416,-4.9297,-4.9921,-5.0508,-5.1298,-5.1756,-5.2087,-5.2619,-5.2986,-5.3206,-5.3206,-5.3206,-5.3206,-5.3206,-5.3206,-5.3206,-5.3206,-5.3206,-5.3206,-5.3206,-5.3206,-5.3206,-5.3206,-5.3206,-5.3206,-5.3206,-5.3206,-5.3206,-5.3206,-5.3206,-5.3206,-5.3206,-5.3206,-5.3206,-5.3206,-5.3206,-5.3206,-5.3206,-5.3206,-5.3206,-5.3206,-5.3206,-5.3206,-5.3206,-5.3702,-5.3739,-5.3225,-5.372,-5.3977,-5.3977,-5.3977,-5.4234,-5.4748,-5.4748,-5.4748]}]]